     2.11           OBSERVATION DATA    G (GPS)             RINEX VERSION / TYPE
teqc 2010Oct21 OPUS Account 20111025 14:54:08UTC            PGM / RUN BY / DATE
M 1521                                                      MARKER NAME
1142                                                        MARKER NUMBER
CSMIDDLETON NGS                                             OBSERVER / AGENCY
4820152812 TRIMBLE R7 2.32                                  REC # / TYPE / VERS
60244996 TRM41249.00 NONE                                   ANT # / TYPE
  -740410.3698 -5464833.0026  3193846.3853                  APPROX POSITION XYZ
        2.0030        0.0000        0.0000                  ANTENNA: DELTA H/E/N
     1     1                                                WAVELENGTH FACT L1/2
     5    L1    L2    C1    P1    P2                        # / TYPES OF OBSERV
    15                                                      LEAP SECONDS
  2011     7    24     0     0   30.0000000     GPS         TIME OF FIRST OBS
                                                            END OF HEADER
 11  7 24  0  0 30.0000000  0  8G10G17G02G04G20G09G28G27
  -4527241.32056  -2350006.00452  24027402.8204                   24027404.6644
 -12300377.61757  -8726486.40256  21049641.4064                   21049637.8404
  -9151712.66057  -6956050.83255  22723124.8914                   22723121.3554
 -19076556.24658 -14587412.55156  19933948.9614                   19933946.4414
  -1505678.59457   -126872.69553  23897845.3524                   23897842.1954
  -8288455.59857  -6437782.27755  22265855.6254                   22265853.8794
  -5554982.48458  -3745166.08256  21408405.2114                   21408402.0664
 -12767513.78957  -9226920.35955  22388046.0704                   22388043.6524
 11  7 24  0  1  0.0000000  0  8G10G17G02G04G20G09G28G27
  -4597086.63745  -2404430.58642  24014111.8914                   24014113.9384
 -12248519.67647  -8686077.60946  21059509.7664                   21059505.9534
  -9216431.48647  -7006481.00345  22710809.8524                   22710806.4734
 -19086547.51648 -14595197.92246  19932048.0394                   19932045.2584
  -1464009.25046    -94403.04343  23905773.8674                   23905772.0634
  -8312060.09947  -6456175.37545  22261364.1024                   22261361.7304
  -5491986.30948  -3696078.17245  21420393.0634                   21420390.1294
 -12769759.09847  -9228669.95745  22387618.5004                   22387616.1914
 11  7 24  0  1 30.0000000  0  8G10G17G02G04G20G09G28G27
  -4666930.43446  -2458854.01642  24000820.0944                   24000821.5354
 -12196491.17248  -8645535.90646  21069410.1024                   21069407.0514
  -9280851.55947  -7056678.38345  22698551.2274                   22698547.5124
 -19095912.04348 -14602494.92646  19930265.7894                   19930263.1684
  -1421777.23046    -61495.00043  23913809.4534                   23913808.9494
  -8335006.88347  -6474055.98045  22256997.5864                   22256995.3634
  -5428569.22748  -3646662.27746  21432460.9224                   21432457.8484
 -12771463.09447  -9229997.75845  22387294.1884                   22387292.4304
 11  7 24  0  2  0.0000000  0  8G10G17G02G04G20G09G28G27
  -4736762.12146  -2513268.00042  23987531.4924                   23987532.2774
 -12144285.13347  -8604855.87546  21079344.9064                   21079341.1804
  -9344963.92247  -7106635.98045  22686350.8284                   22686347.4654
 -19104641.83248 -14609297.32446  19928604.8674                   19928602.1884
  -1378975.15246    -28142.68043  23921955.0314                   23921952.9774
  -8357287.00447  -6491417.12144  22252757.6644                   22252755.0474
  -5364723.21948  -3596912.17246  21444611.0084                   21444607.3134
 -12772617.64147  -9230897.41845  22387074.4694                   22387072.2034
 11  7 24  0  2 30.0000000  0  8G10G17G02G04G20G09G28G27
  -4806578.62545  -2567670.26242  23974245.5394                   23974246.7624
 -12091901.26147  -8564037.27446  21089313.1254                   21089309.9264
  -9408765.84847  -7156351.70645  22674209.2584                   22674206.2114
 -19112735.63648 -14615604.15046  19927064.3364                   19927061.5124
  -1335602.10746      5654.51043  23930209.0004                   23930206.2274
  -8378898.30647  -6508257.08244  22248645.0784                   22248642.5434
  -5300447.46148  -3546827.19146  21456841.8594                   21456838.1214
 -12773221.48147  -9231367.96145  22386959.4694                   22386957.3284
 11  7 24  0  3  0.0000000  0  8G10G17G02G04G20G09G28G27
  -4876375.83245  -2622057.41442  23960963.1884                   23960965.7584
 -12039339.40247  -8523079.97746  21099315.3524                   21099311.8634
  -9472255.03147  -7205823.71145  22662127.6644                   22662124.6914
 -19120192.09848 -14621414.35246  19925645.3134                   19925642.4104
  -1291657.31646     39897.19543  23938571.8914                   23938568.7974
  -8399838.27047  -6524573.94544  22244660.0634                   22244657.9804
  -5235740.39548  -3496406.11745  21469155.3134                   21469151.8954
 -12773273.12547  -9231408.21945  22386949.9304                   22386947.7664
 11  7 24  0  3 30.0000000  0  8G10G17G02G04G20G09G28G27
  -4946157.65246  -2676432.65643  23947684.9534                   23947685.9414
 -11986607.01247  -8481989.80946  21109349.6024                   21109346.4144
  -9535436.79547  -7255056.14845  22650104.7734                   22650101.2114
 -19127017.57848 -14626732.88346  19924347.0554                   19924344.2424
  -1247147.40646     74580.25043  23947040.4454                   23947038.9774
  -8420112.25047  -6540371.82044  22240801.9144                   22240800.3794
  -5170608.41848  -3445653.94546  21481549.6414                   21481546.3054
 -12772778.83247  -9231023.07045  22387043.8364                   22387041.8244
 11  7 24  0  4  0.0000000  0  8G10G17G02G04G20G09G28G27
  -5015920.74646  -2730793.30943  23934409.1334                   23934410.5044
 -11933704.26647  -8440766.88746  21119417.2424                   21119413.6884
  -9598308.82847  -7304047.25045  22638140.6564                   22638137.1884
 -19133211.29348 -14631559.12146  19923168.0944                   19923165.4264
  -1202072.00046    109704.00442  23955618.9454                   23955616.0864
  -8439718.51247  -6555649.41844  22237071.1414                   22237069.0514
  -5105050.73848  -3394570.06245  21494024.7114                   21494021.2274
 -12771737.81647  -9230211.90245  22387241.9064                   22387240.4414
 11  7 24  0  4 30.0000000  0  8G10G17G02G04G20G09G28G27
  -5085661.86346  -2785136.78942  23921136.8594                   23921139.1484
 -11880631.01947  -8399411.10946  21129516.2424                   21129512.9534
  -9660869.14447  -7352795.47245  22626235.5864                   22626233.1024
 -19138772.24148 -14635892.31146  19922109.4614                   19922107.3244
  -1156430.55946    145268.74343  23964303.3594                   23964301.6094
  -8458654.96247  -6570405.04745  22233468.2504                   22233466.0514
  -5039066.38348  -3343153.69945  21506581.1334                   21506577.6604
 -12770148.85847  -9228973.78145  22387543.9844                   22387541.8484
 11  7 24  0  5  0.0000000  0  8G10G17G02G04G20G09G28G27
  -5155376.01246  -2839459.23443  23907871.5634                   23907871.7854
 -11827386.02748  -8357921.51646  21139648.4534                   21139645.3094
  -9723114.10547  -7401297.94545  22614390.6644                   22614386.6954
 -19143697.99248 -14639730.54346  19921172.4614                   19921169.9184
  -1110221.12546    181276.11342  23973097.9924                   23973095.5594
  -8476918.05947  -6584636.01645  22229992.5944                   22229990.9534
  -4972653.08248  -3291403.10245  21519219.5394                   21519215.4264
 -12768009.28147  -9227306.59845  22387951.2584                   22387949.3094
 11  7 24  0  5 30.0000000  0  8G10G17G02G04G20G09G28G27
  -5225063.46145  -2893760.93442  23894609.6804                   23894610.5864
 -11773972.64847  -8316300.70346  21149813.1254                   21149809.3794
  -9785045.43747  -7449556.01245  22602605.7664                   22602602.3244
 -19147991.30548 -14643075.95746  19920355.3914                   19920352.6804
  -1063446.88346    217723.53143  23981998.8914                   23981995.8794
  -8494509.98447  -6598343.96545  22226644.9924                   22226643.2974
  -4905813.44548  -3239320.30145  21531938.5704                   21531934.8204
 -12765321.90647  -9225212.55945  22388462.9454                   22388460.6884
 11  7 24  0  6  0.0000000  0  8G10G17G02G04G20G09G28G27
  -5294717.48845  -2948036.53942  23881354.6564                   23881356.6644
 -11720388.06648  -8274546.49246  21160009.7114                   21160006.4184
  -9846657.79347  -7497565.53945  22590880.8284                   22590878.2234
 -19151648.48048 -14645925.67646  19919659.3364                   19919656.4734
  -1016104.37946    254613.84043  23991007.9224                   23991005.0984
  -8511425.80947  -6611525.05945  22223425.9844                   22223423.9144
  -4838543.43748  -3186902.14145  21544739.1884                   21544735.6954
 -12762082.69147  -9222688.50045  22389079.6724                   22389077.3244
 11  7 24  0  6 30.0000000  0  8G10G17G02G04G20G09G28G27
  -5364343.65645  -3002290.47342  23868104.5944                   23868108.2734
 -11666641.18748  -8232665.81646  21170237.7344                   21170233.8594
  -9907958.11347  -7545331.91045  22579215.9064                   22579212.2114
 -19154677.41848 -14648285.85946  19919082.8524                   19919080.3594
   -968202.24646    291940.18043  24000122.2034                   24000120.4454
  -8527672.42647  -6624184.72345  22220334.4224                   22220332.5164
  -4770851.56248  -3134155.24245  21557621.0474                   21557617.1094
 -12758299.46547  -9219740.54745  22389799.2814                   22389797.2814
 11  7 24  0  7  0.0000000  0  8G10G17G02G04G20G09G28G27
  -5433949.56655  -3056528.69952  23854859.2194                   23854863.7624
 -11612743.46148  -8190667.59446  21180493.9064                   21180490.0514
  -9968955.52347  -7592862.26345  22567608.0004                   22567604.6644
 -19157088.79348 -14650164.83246  19918624.2114                   19918621.2814
   -919751.02746    329694.40242  24009341.5164                   24009340.5704
  -8543259.40647  -6636330.36945  22217368.1484                   22217366.1054
  -4702747.54548  -3081087.20045  21570580.7344                   21570577.1644
 -12753982.73047  -9216376.86345  22390621.0784                   22390618.6804
 11  7 24  0  7 30.0000000  0  8G10G17G02G04G20G09G28G27
  -5503512.92245  -3110733.68042  23841622.6254                   23841625.1334
 -11558675.89548  -8148537.03546  21190782.4144                   21190779.1094
 -10029628.83147  -7640140.04645  22556062.2664                   22556059.1844
 -19158862.53548 -14651546.95346  19918286.6334                   19918284.0124
   -870731.51646    367891.41843  24018671.2344                   24018668.3134
  -8558166.01247  -6647945.84845  22214531.4844                   22214528.9694
  -4634211.66448  -3027682.63745  21583622.1954                   21583618.8484
 -12749112.60047  -9212581.94845  22391547.2344                   22391545.2234
 11  7 24  0  8  0.0000000  0  8G10G17G02G04G20G09G28G27
  -5573036.63746  -3164907.75842  23828391.8914                   23828394.1054
 -11504444.69548  -8106278.97346  21201102.7504                   21201099.2274
 -10089982.46947  -7687168.75845  22544577.6884                   22544574.2704
 -19160004.35248 -14652436.66046  19918069.2584                   19918067.0554
   -821149.47846    406526.80043  24028106.6254                   24028103.7934
  -8572396.64847  -6659034.62145  22211823.2734                   22211821.6374
  -4565249.82848  -2973946.18045  21596745.4534                   21596742.1094
 -12743694.59048  -9208360.12145  22392579.2664                   22392576.9344
 11  7 24  0  8 30.0000000  0  8G10G17G02G04G20G09G28G27
  -5642516.64546  -3219047.75842  23815169.9224                   23815170.8444
 -11450049.06248  -8063892.77746  21211453.4224                   21211449.8754
 -10150013.33247  -7733945.94545  22533154.1564                   22533150.1094
 -19160512.81648 -14652832.84846  19917972.6484                   19917969.7424
   -771004.14846    445601.10943  24037647.9844                   24037645.7384
  -8585949.16847  -6669594.97344  22209244.3204                   22209242.1884
  -4495860.30148  -2919876.43745  21609949.8524                   21609946.1604
 -12737726.83648  -9203709.92645  22393714.1094                   22393711.8524
 11  7 24  0  9  0.0000000  0  8G10G17G02G04G20G09G28G27
  -5711952.83246  -3273153.64542  23801956.0084                   23801957.1174
 -11395492.63748  -8021381.28946  21221835.1024                   21221832.0864
 -10209723.74647  -7780473.43445  22521790.9304                   22521787.9414
 -19160390.83648 -14652737.77746  19917995.5004                   19917992.8014
   -720298.71546    485111.87543  24047296.8204                   24047295.4694
  -8598825.42247  -6679628.37145  22206794.3204                   22206791.6644
  -4426046.09048  -2865475.78545  21623235.0634                   21623231.3634
 -12731212.25447  -9198633.62545  22394954.3444                   22394952.5274
 11  7 24  0  9 30.0000000  0  8G10G17G02G04G20G09G28G27
  -5781337.06846  -3327219.18942  23788752.6024                   23788754.8164
 -11340770.87448  -7978740.97846  21232248.3524                   21232245.3014
 -10269106.46247  -7826745.58445  22510491.0314                   22510487.5664
 -19159633.20348 -14652147.39846  19918139.9924                   19918137.0044
   -669028.50246    525062.67043  24057053.5944                   24057051.3794
  -8611019.30947  -6689130.09045  22204473.4774                   22204471.5474
  -4355801.61548  -2810739.84345  21636602.2664                   21636599.0124
 -12724145.46547  -9193127.02345  22396298.5474                   22396296.3834
 11  7 24  0 10  0.0000000  0  8G10G17G02G04G20G09G28G27
  -5850673.34846  -3381247.25843  23775558.5944                   23775559.4844
 -11285891.48448  -7935977.83646  21242692.0314                   21242688.5514
 -10328167.15647  -7872766.80145  22499251.9224                   22499248.6174
 -19158246.77348 -14651067.05146  19918403.7034                   19918401.0044
   -617200.63746    565448.04743  24066915.8984                   24066913.7154
  -8622536.54747  -6698104.57044  22202281.8134                   22202279.8554
  -4285133.42248  -2755673.74645  21650050.0394                   21650046.6214
 -12716533.20347  -9187195.39145  22397747.2974                   22397745.5634
 11  7 24  0 10 30.0000000  0  8G10G17G02G04G20G09G28G27
  -5919950.32446  -3435229.14843  23762375.3754                   23762377.0354
 -11230846.37148  -7893085.55146  21253166.0164                   21253163.2734
 -10386896.03547  -7918529.48045  22488076.0944                   22488072.7274
 -19156223.01248 -14649490.07846  19918789.0084                   19918786.1094
   -564806.88346    606274.35943  24076886.4534                   24076883.5434
  -8633367.70347  -6706544.42245  22200220.9534                   22200218.6914
  -4214033.21948  -2700271.00045  21663579.9144                   21663576.6524
 -12708366.81647  -9180831.95345  22399301.5164                   22399298.7974
 11  7 24  0 11  0.0000000  0  8G10G17G02G04G20G09G28G27
  -5989161.89846  -3489160.13343  23749205.7894                   23749206.6954
 -11175632.98848  -7850062.15246  21263672.9694                   21263669.6604
 -10445288.43747  -7964029.94945  22476964.6884                   22476960.7504
 -19153558.89848 -14647414.13346  19919295.9454                   19919293.1644
   -511844.53546    647543.69543  24086964.7584                   24086962.4694
  -8643508.67247  -6714446.48845  22198291.2734                   22198288.9064
  -4142497.36748  -2644528.78945  21677192.9774                   21677189.2234
 -12699642.93747  -9174034.11745  22400961.4924                   22400959.6564
 11  7 24  0 11 30.0000000  0  8G10G17G02G04G20G09G28G27
  -6058307.89046  -3543039.96643  23736046.1254                   23736046.2854
 -11120255.00848  -7806910.49046  21274211.4924                   21274208.0514
 -10503346.06847  -8009269.57245  22465916.8754                   22465912.3014
 -19150257.37548 -14644841.49646  19919924.0084                   19919920.7304
   -458317.54646    689253.05943  24097150.9384                   24097148.6294
  -8652961.76447  -6721812.55145  22196492.6954                   22196490.4774
  -4070529.29448  -2588449.79645  21690888.0704                   21690884.3134
 -12690364.57047  -9166804.21945  22402726.4844                   22402724.7894
 11  7 24  0 12  0.0000000  0  8G10G17G02G04G20G09G28G27
  -6127384.45246  -3596865.67143  23722902.1954                   23722900.6524
 -11064711.66448  -7763629.97546  21284781.0314                   21284777.6254
 -10561066.29347  -8054246.28745  22454933.2274                   22454928.6954
 -19146317.38948 -14641771.36946  19920674.2424                   19920671.2304
   -404224.59746    731403.43243  24107443.6884                   24107441.6294
  -8661724.73747  -6728640.86645  22194824.7664                   22194822.4534
  -3998127.55948  -2532032.88745  21704665.6334                   21704662.7234
 -12680530.21347  -9159141.08445  22404598.4614                   22404596.6804
 11  7 24  0 12 30.0000000  0  8G10G17G02G04G20G09G28G27
  -6196380.59846  -3650628.74243  23709772.2974                   23709771.1214
 -11008995.45448  -7720214.75946  21295383.1564                   21295379.7034
 -10618439.51147  -8098952.59845  22444015.1024                   22444010.9964
 -19141730.75648 -14638197.34446  19921546.5234                   19921543.9804
   -349557.98846    774000.82443  24117846.5864                   24117844.6644
  -8669788.23747  -6734924.13345  22193290.3284                   22193288.1374
  -3925283.51448  -2475271.31345  21718527.0704                   21718524.1134
 -12670131.74547  -9151038.37645  22406576.7814                   22406575.0864
 11  7 24  0 13  0.0000000  0  8G10G17G02G04G20G09G28G27
  -6265299.06646  -3704331.21943  23696656.9224                   23696656.8404
 -10953112.55948  -7676669.64846  21306017.4774                   21306013.9144
 -10675470.14147  -8143391.94945  22433162.0314                   22433158.7774
 -19136503.33648 -14634124.02046  19922541.1174                   19922538.7664
   -294324.06646    817040.22743  24128358.0084                   24128355.1954
  -8677157.49247  -6740666.43045  22191887.6954                   22191885.7384
  -3852003.00848  -2418169.65645  21732471.9614                   21732468.5864
 -12659174.93447  -9142500.60945  22408661.4924                   22408659.8014
 11  7 24  0 13 30.0000000  0  8G10G17G02G04G20G09G28G27
  -6334134.09446  -3757968.76243  23683557.9454                   23683557.8594
 -10897061.01648  -7632993.12546  21316683.9694                   21316680.5084
 -10732154.26247  -8187561.31645  22422375.5394                   22422372.0984
 -19130632.61748 -14629549.41046  19923658.5004                   19923655.3914
   -238520.73446    860523.38343  24138976.3364                   24138974.1294
  -8683828.92247  -6745864.96144  22190618.3444                   22190615.9024
  -3778283.40648  -2360725.83645  21746500.5474                   21746497.0234
 -12647656.99247  -9133525.59845  22410853.5164                   22410851.8054
 11  7 24  0 14  0.0000000  0  8G10G17G02G04G20G09G28G27
  -6402881.55946  -3811538.07843  23670476.5234                   23670475.6884
 -10840839.86748  -7589184.43746  21327382.1644                   21327378.6684
 -10788489.39547  -8231458.75445  22411655.6024                   22411652.0554
 -19124117.50448 -14624472.68446  19924898.3754                   19924895.7814
   -182147.45746    904450.66843  24149703.4694                   24149702.2194
  -8689800.72747  -6750518.33245  22189482.2344                   22189479.8594
  -3704123.71548  -2302939.09045  21760612.7974                   21760609.3914
 -12635576.73447  -9124112.42245  22413152.5784                   22413150.5314
 11  7 24  0 14 30.0000000  0  8G10G17G02G04G20G09G28G27
  -6471538.12546  -3865036.48043  23657410.6334                   23657411.4384
 -10784449.23848  -7545243.69546  21338112.9384                   21338109.9264
 -10844473.58247  -8275082.70345  22401002.0164                   22400998.6914
 -19116957.93048 -14618893.78146  19926260.4614                   19926257.5744
   -125204.09446    948822.12943  24160539.3984                   24160537.1374
  -8695071.71947  -6754625.59845  22188479.0784                   22188477.3874
  -3629523.22348  -2244808.86345  21774808.3284                   21774805.4534
 -12622933.50047  -9114260.55145  22415558.5784                   22415556.5354
 11  7 24  0 15  0.0000000  0  8G10G17G02G04G20G09G28G27
  -6540111.03146  -3918469.74243  23644361.7584                   23644361.8484
 -10727900.35548  -7501179.62146  21348874.0234                   21348870.6954
 -10900116.16447  -8318440.49245  22390413.1954                   22390409.3404
 -19109164.32748 -14612820.82046  19927743.8364                   19927740.6724
    -67702.14946    993628.89343  24171482.5084                   24171479.5944
  -8699651.30947  -6758194.09445  22187607.6804                   22187605.6174
  -3554492.35548  -2186343.28945  21789086.4534                   21789082.8594
 -12609737.92247  -9103978.28145  22418069.6564                   22418067.3554
 11  7 24  0 15 30.0000000  0  8G10G17G02G04G20G09G28G27
  -6608585.15246  -3971826.00843  23631331.1334                   23631331.8674
 -10671180.93448  -7456982.68046  21359667.5394                   21359664.0944
 -10955403.04847  -8361521.09045  22379892.7974                   22379888.7894
 -19100724.55348 -14606244.36446  19929350.0784                   19929347.1524
     -9628.87646   1038880.82843  24182533.3054                   24182530.4104
  -8703526.23747  -6761213.49545  22186870.8914                   22186868.6174
  -3479018.42948  -2127532.46245  21803448.8594                   21803445.9654
 -12595977.44047  -9093255.84245  22420688.2424                   22420686.1484
 11  7 24  0 16  0.0000000  0  8G10G17G02G04G20G09G28G27
  -6676970.85547  -4025113.37543  23618317.7584                   23618317.8634
 -10614305.33248  -7412664.02346  21370490.3834                   21370487.2774
 -11010346.63747  -8404334.18745  22369437.1024                   22369433.4774
 -19091652.44948 -14599175.18046  19931076.2194                   19931073.5784
     49000.71146   1084566.23443  24193689.7034                   24193687.4924
  -8706709.78147  -6763694.15245  22186264.0864                   22186262.1804
  -3403114.96148  -2068386.93445  21817892.9224                   21817889.3134
 -12581665.81647  -9082103.91845  22423411.7814                   22423409.2974
 11  7 24  0 16 30.0000000  0  8G10G17G02G04G20G09G28G27
  -6745256.69147  -4078322.93043  23605323.2034                   23605323.5434
 -10557265.55948  -7368217.44146  21381344.8054                   21381341.1604
 -11064937.51648  -8446872.45745  22359048.8054                   22359044.7934
 -19081940.12948 -14591607.11746  19932924.7344                   19932921.2304
    108194.64546   1130691.37543  24204954.1254                   24204951.7154
  -8709193.14847  -6765629.20745  22185791.7194                   22185789.7934
  -3326774.39548  -2008900.81245  21832419.8444                   21832416.5164
 -12566794.98848  -9070516.25845  22426241.3984                   22426239.5634
 11  7 24  0 17  0.0000000  0  8G10G17G02G04G20G09G28G27
  -6813438.94147  -4131451.81244  23592349.5314                   23592348.6254
 -10500060.82848  -7323642.32846  21392230.6174                   21392227.0274
 -11119173.34048  -8489134.04345  22348727.9774                   22348723.9104
 -19071586.77348 -14583539.54346  19934894.3444                   19934891.7154
    167953.31646   1177256.60543  24216325.1094                   24216323.2624
  -8710974.44947  -6767017.19945  22185453.0474                   22185450.6914
  -3249995.10948  -1949072.82845  21847030.5164                   21847027.3204
 -12551363.74247  -9058491.89545  22429178.0864                   22429175.9884
 11  7 24  0 17 30.0000000  0  8G10G17G02G04G20G09G28G27
  -6881517.72347  -4184499.99643  23579393.9454                   23579393.0084
 -10442695.66848  -7278942.20346  21403146.7274                   21403143.3134
 -11173056.00048  -8531120.44145  22338474.0784                   22338469.5704
 -19060595.93448 -14574975.23846  19936985.8284                   19936982.9344
    228272.51646   1224258.62143  24227803.4224                   24227801.0234
  -8712056.54747  -6767860.36345  22185246.4924                   22185243.8554
  -3172780.68048  -1888905.75845  21861723.8754                   21861720.2774
 -12535375.49647  -9046033.52045  22432220.1334                   22432217.9414
 11  7 24  0 18  0.0000000  0  8G10G17G02G04G20G09G28G27
  -6949490.74247  -4237465.81243  23566458.6484                   23566458.2774
 -10385170.40248  -7234117.33646  21414093.3754                   21414090.3164
 -11226584.66448  -8572831.02045  22328288.0004                   22328283.6644
 -19048968.54748 -14565914.92646  19939198.4534                   19939195.8324
    289151.22346   1271696.57043  24239388.8834                   24239386.4964
  -8712439.30547  -6768158.58644  22185173.8834                   22185171.6454
  -3095131.61348  -1828400.02745  21876499.9224                   21876497.3714
 -12518831.01248  -9033141.71145  22435368.4534                   22435366.4574
 11  7 24  0 18 30.0000000  0  8G10G17G02G04G20G09G28G27
  -7017360.20347  -4290350.93444  23553544.0164                   23553543.0434
 -10327491.25848  -7189172.55546  21425069.2424                   21425065.9264
 -11279763.77348  -8614269.20745  22318168.1484                   22318164.3794
 -19036710.43048 -14556363.12546  19941531.2194                   19941528.8594
    350583.24246   1319565.68143  24251079.2974                   24251076.7154
  -8712127.75047  -6767915.79345  22185232.8834                   22185230.6524
  -3017053.58247  -1767559.99245  21891357.6254                   21891354.7114
 -12501736.02347  -9019820.92245  22438621.6884                   22438619.4534
 11  7 24  0 19  0.0000000  0  8G10G17G02G04G20G09G28G27
  -7085113.48047  -4343145.53544  23540649.4534                   23540649.7424
 -10269649.11348  -7144100.77046  21436076.4614                   21436073.4024
 -11332582.50848  -8655426.57845  22308117.1644                   22308113.6174
 -19023812.27748 -14546312.59446  19943985.6954                   19943982.8634
    412577.06646   1367872.57443  24262876.5164                   24262873.3244
  -8711111.98047  -6767124.27345  22185426.3984                   22185424.3094
  -2938537.09048  -1706378.33645  21906298.8524                   21906295.8204
 -12484081.22347  -9006063.92645  22441981.6094                   22441979.7424
 11  7 24  0 19 30.0000000  0  8G10G17G02G04G20G09G28G27
  -7152746.53546  -4395846.47343  23527779.8914                   23527778.8524
 -10211643.18748  -7098901.34846  21447114.4534                   21447110.8444
 -11385038.27048  -8696301.11745  22298134.7504                   22298131.4064
 -19010273.64848 -14535762.99246  19946561.9694                   19946558.6684
    475133.37947   1416617.79743  24274781.0474                   24274777.4024
  -8709390.12547  -6765782.56645  22185754.0554                   22185751.8134
  -2859581.11748  -1644854.21145  21921324.0944                   21921320.6294
 -12465865.46148  -8991869.82445  22445447.2734                   22445445.6174
 11  7 24  0 20  0.0000000  0  8G10G17G02G04G20G09G28G27
  -7220255.14547  -4448450.42644  23514933.2664                   23514933.5204
 -10153472.94148  -7053573.90246  21458184.1724                   21458180.7504
 -11437129.03148  -8736891.25445  22288222.8364                   22288218.3984
 -18996093.82848 -14524713.75846  19949260.1414                   19949257.6484
    538252.52046   1465801.54343  24286791.7974                   24286789.0744
  -8706960.82047  -6763889.62945  22186216.3134                   22186214.4574
  -2780184.56648  -1582986.80545  21936432.5474                   21936429.9144
 -12447088.04747  -8977238.07445  22449021.0474                   22449019.1994
 11  7 24  0 20 30.0000000  0  8G10G17G02G04G20G09G28G27
  -7287638.05547  -4500956.46544  23502111.0394                   23502110.7194
 -10095140.27048  -7008119.87546  21469284.5084                   21469280.8054
 -11488855.23048  -8777197.32045  22278378.8914                   22278374.9844
 -18981274.84848 -14513166.47746  19952080.2734                   19952077.4804
    601931.69146   1515421.68043  24298908.3054                   24298906.3364
  -8703825.25447  -6761446.35945  22186813.2194                   22186810.8714
  -2700349.40648  -1520777.60245  21951624.7114                   21951621.4614
 -12427750.77348  -8962170.07045  22452700.5004                   22452698.6254
 11  7 24  0 21  0.0000000  0  8G10G17G02G04G20G09G28G27
  -7354890.92647  -4553361.16044  23489312.9454                   23489312.4384
 -10036644.73048  -6962538.94146  21480416.0004                   21480412.5084
 -11540214.61748  -8817217.54345  22268605.8054                   22268601.7544
 -18965816.50048 -14501120.99246  19955021.8054                   19955018.8834
    666171.20346   1565478.43843  24311133.3444                   24311130.9964
  -8699982.01647  -6758451.63745  22187544.0634                   22187542.5434
  -2620074.88748  -1458226.04745  21966900.6884                   21966897.0944
 -12407852.89847  -8946665.24245  22456486.6024                   22456484.8094
 11  7 24  0 21 30.0000000  0  8G10G17G02G04G20G09G28G27
  -7422008.77746  -4605660.67244  23476540.7974                   23476539.7154
  -9977984.58648  -6916829.75446  21491578.5394                   21491574.8204
 -11591203.76248  -8856949.27345  22258903.1564                   22258898.8524
 -18949717.02048 -14488575.92646  19958084.9064                   19958082.5864
    730972.34046   1615972.85243  24323464.0164                   24323461.8914
  -8695428.78547  -6754903.70045  22188410.7504                   22188409.0514
  -2539358.81648  -1395330.44945  21982259.8984                   21982256.9414
 -12387392.85547  -8930722.35845  22460380.2344                   22460378.1564
 11  7 24  0 22  0.0000000  0  8G10G17G02G04G20G09G28G27
  -7488992.17246  -4657855.40644  23463794.0634                   23463793.2464
  -9919163.98848  -6870995.52746  21502771.5554                   21502768.2624
 -11641825.18448  -8896394.46945  22249270.1724                   22249265.7814
 -18932980.37548 -14475534.35946  19961270.5004                   19961267.1804
    796330.66846   1666901.48843  24335902.4534                   24335899.1214
  -8690168.69947  -6750804.94945  22189411.6564                   22189409.9264
  -2458205.17248  -1332093.85245  21997703.3754                   21997700.0354
 -12366374.19147  -8914344.18745  22464379.9924                   22464378.0594
 11  7 24  0 22 30.0000000  0  8G10G17G02G04G20G09G28G27
  -7555837.60947  -4709942.67643  23451072.9924                   23451072.7194
  -9860182.61348  -6825036.02046  21513995.4844                   21513991.8204
 -11692077.10548  -8935551.74245  22239707.4064                   22239703.1174
 -18915606.77048 -14461996.46546  19964576.2344                   19964573.2074
    862245.86346   1718263.98443  24348444.4534                   24348443.1094
  -8684201.11347  -6746154.93045  22190547.8204                   22190545.4534
  -2376613.64547  -1268516.05545  22013229.3674                   22013226.3594
 -12344796.88348  -8897530.72345  22468486.1954                   22468484.3014
 11  7 24  0 23  0.0000000  0  8G10G17G02G04G20G09G28G27
  -7622542.19946  -4761920.17644  23438379.8204                   23438379.4734
  -9801041.17648  -6778951.79346  21525249.7974                   21525246.2894
 -11741958.87148  -8974420.57845  22230215.0394                   22230211.1334
 -18897597.08648 -14447962.92246  19968003.6484                   19968000.5084
    928716.40246   1770059.18043  24361093.9534                   24361091.4614
  -8677526.05147  -6740953.61345  22191817.7034                   22191815.7934
  -2294584.69948  -1204597.43445  22028839.1644                   22028836.1334
 -12322661.58647  -8880282.45345  22472698.2424                   22472696.4804
 11  7 24  0 23 30.0000000  0  8G10G17G02G04G20G09G28G27
  -7689095.76346  -4813780.00744  23425715.4454                   23425715.0434
  -9741733.34248  -6732737.89946  21536535.5784                   21536532.1954
 -11791462.35048  -9012994.65245  22220794.7894                   22220790.4924
 -18878945.42648 -14433429.13846  19971553.0004                   19971550.0514
    995748.27046   1822291.85043  24373850.2894                   24373847.2504
  -8670136.67147  -6735195.68145  22193224.5784                   22193221.8794
  -2212111.90547  -1140332.94145  22044533.1334                   22044530.2304
 -12299961.92447  -8862594.42445  22477018.1024                   22477015.4614
 11  7 24  0 24  0.0000000  0  8G10G17G02G04G20G09G28G27
  -7755493.16047  -4865518.13343  23413080.2814                   23413079.2114
  -9682257.34848  -6686392.97346  21547853.5164                   21547850.1024
 -11840584.32048  -9051271.43745  22211446.7734                   22211443.4064
 -18859649.87148 -14418393.62146  19975224.5474                   19975221.8954
   1063342.75446   1874962.84843  24386712.1954                   24386709.5204
  -8662030.19547  -6728878.95745  22194766.9224                   22194764.3754
  -2129193.31647  -1075721.08645  22060312.0864                   22060309.0554
 -12276695.96947  -8844465.12545  22481445.5234                   22481443.7234
 11  7 24  0 24 30.0000000  0  8G10G17G02G04G20G09G28G27
  -7821748.26746  -4917145.41344  23400471.6564                   23400471.1254
  -9622630.34548  -6639930.36446  21559199.7894                   21559196.4144
 -11889340.52148  -9089263.22045  22202169.0164                   22202165.2624
 -18839728.01448 -14402870.07346  19979015.6484                   19979012.3794
   1131482.11846   1928058.45343  24399679.5084                   24399676.5634
  -8653223.58947  -6722016.67945  22196442.5474                   22196440.6644
  -2045845.85547  -1010775.04545  22076173.1484                   22076169.5234
 -12252881.26047  -8825908.22645  22485977.4144                   22485974.9694
 11  7 24  0 25  0.0000000  0  8G10G17G02G04G20G09G28G27
  -7887851.30146  -4968654.14143  23387892.6254                   23387891.7194
  -9562846.18748  -6593345.30946  21570576.0164                   21570573.0824
 -11937723.18748  -9126963.93445  22192962.4924                   22192958.0124
 -18819173.97348 -14386853.91446  19982926.5944                   19982923.8794
   1200171.71146   1981582.86343  24412750.3674                   24412747.7384
  -8643710.12147  -6714603.59045  22198253.0004                   22198250.9184
  -1962063.21947   -945489.89545  22092115.9774                   22092112.7274
 -12228511.51247  -8806918.83245  22490614.5474                   22490612.7304
 11  7 24  0 25 30.0000000  0  8G10G17G02G04G20G09G28G27
  -7953798.53146  -5020041.50844  23375343.7424                   23375342.0124
  -9502904.77048  -6546637.71146  21581983.3284                   21581979.8324
 -11985730.67648  -9164372.30945  22183826.4694                   22183822.1484
 -18797988.07048 -14370345.39846  19986958.2734                   19986955.3484
   1269411.21546   2035535.71943  24425925.7974                   24425923.2934
  -8633489.19947  -6706639.21145  22200198.0944                   22200195.9614
  -1877845.27347   -879865.57445  22108141.9924                   22108139.0704
 -12203586.75447  -8787496.94945  22495356.9064                   22495356.0164
 11  7 24  0 26  0.0000000  0  8G10G17G02G04G20G09G28G27
  -8019597.97746  -5071313.73044  23362822.6804                   23362820.9304
  -9442816.80948  -6499815.92246  21593417.4144                   21593414.3794
 -12033372.88348  -9201496.03145  22174760.2194                   22174756.0664
 -18776181.93748 -14353353.59446  19991108.0084                   19991104.8674
   1339188.78946   2089907.87943  24439204.5474                   24439202.0744
  -8622571.56247  -6698131.93445  22202275.1564                   22202272.9844
  -1793203.26647   -813910.78945  22124248.9144                   22124246.0984
 -12178118.32447  -8767651.43445  22500203.8134                   22500202.2854
 11  7 24  0 26 30.0000000  0  8G10G17G02G04G20G09G28G27
  -8085232.27746  -5122457.25844  23350333.0234                   23350331.8484
  -9382569.02348  -6452869.60246  21604882.5314                   21604878.9264
 -12080634.47348  -9238323.17245  22165766.7424                   22165762.4104
 -18753741.94148 -14335867.86346  19995378.0084                   19995375.1374
   1409517.14546   2144709.19142  24452587.3284                   24452584.7584
  -8610943.23047  -6689070.88345  22204488.5164                   22204485.9144
  -1708123.15247   -747614.63745  22140439.4534                   22140436.1024
 -12152092.55147  -8747371.62945  22505157.1174                   22505155.0594
 11  7 24  0 27  0.0000000  0  8G10G17G02G04G20G09G28G27
  -8150703.65646  -5173473.80544  23337873.3674                   23337873.9454
  -9322167.16848  -6405803.22346  21616376.7344                   21616373.3834
 -12127519.67648  -9274857.02345  22156844.9064                   22156840.7624
 -18730674.31848 -14317893.08346  19999767.9694                   19999764.5984
   1480390.03146   2199934.84442  24466074.0164                   24466071.5474
  -8598609.57647  -6679460.21145  22206835.3914                   22206833.1214
  -1622610.86747   -680981.72345  22156711.7734                   22156708.6954
 -12125515.27747  -8726662.08245  22510214.4924                   22510212.1604
 11  7 24  0 27 30.0000000  0  8G10G17G02G04G20G09G28G27
  -8216012.29746  -5224363.60244  23325446.1484                   23325445.3554
  -9261615.01648  -6358619.72346  21627898.8524                   21627895.2344
 -12174031.25448  -9311099.75045  22147994.1564                   22147989.3954
 -18706983.62148 -14299432.79746  20004275.7584                   20004272.5474
   1551802.84446   2255581.21942  24479664.5704                   24479661.2894
  -8585574.08647  -6669302.65645  22209316.0704                   22209313.4454
  -1536670.25447   -614015.04345  22173066.0084                   22173063.1994
 -12098390.78547  -8705526.13745  22515375.5234                   22515373.6454
 11  7 24  0 28  0.0000000  0  8G10G17G02G04G20G09G28G27
  -8281154.37946  -5275123.55544  23313049.5634                   23313048.8324
  -9200911.64848  -6311318.39546  21639450.2114                   21639447.2274
 -12220167.25848  -9347049.81645  22139214.1884                   22139210.4384
 -18682669.71548 -14280486.87946  20008902.3524                   20008899.4384
   1623755.10546   2311647.90242  24493354.5234                   24493353.7114
  -8571835.81247  -6658597.48845  22211929.9454                   22211927.3364
  -1450301.02747   -546714.39145  22189501.1724                   22189498.4264
 -12070718.67647  -8683963.48445  22520641.6024                   22520639.7544
 11  7 24  0 28 30.0000000  0  8G10G17G02G04G20G09G28G27
  -8346123.87946  -5325749.03144  23300686.3284                   23300684.2854
  -9140054.77048  -6263897.44546  21651031.4844                   21651027.9304
 -12265923.41848  -9382703.90645  22130507.4774                   22130503.0084
 -18657730.26248 -14261053.53146  20013648.5704                   20013645.5434
   1696249.25445   2368136.83242  24507150.2894                   24507148.4104
  -8557391.96548  -6647342.52745  22214678.6174                   22214675.7854
  -1363500.36747   -479077.55545  22206019.6024                   22206016.2704
 -12042496.67647  -8661972.32845  22526012.2274                   22526010.2504
 11  7 24  0 29  0.0000000  0  9G10G17G02G04G12G20G09G28G27
  -8410916.43046  -5376236.62144  23288356.9844                   23288355.1134
  -9079043.62147  -6216356.29746  21662641.1254                   21662637.8874
 -12311297.90248  -9418060.59046  22121872.9064                   22121868.6524
 -18632165.49248 -14241132.92246  20018513.3984                   20018510.3984
   -110472.21556    -68864.65253  24776189.6334                   24776188.5044
   1769284.11346   2425047.12942  24521048.7344                   24521046.5554
  -8542241.75847  -6635537.14545  22217561.3284                   22217559.6414
  -1276267.68047   -411104.06245  22222618.8834                   22222615.9304
 -12013724.43047  -8639552.41445  22531486.9614                   22531485.1134
 11  7 24  0 29 30.0000000  0  9G10G17G02G04G12G20G09G28G27
  -8475532.91047  -5426587.04744  23276060.5394                   23276059.8094
  -9017882.46547  -6168698.25446  21674279.4304                   21674276.3714
 -12356293.29748  -9453121.87545  22113310.4454                   22113306.0204
 -18605980.14548 -14220728.74646  20023496.2504                   20023493.5084
   -179782.32046   -122872.55143  24763001.0474                   24762998.9964
   1842855.36746   2482375.40642  24535048.9774                   24535046.1524
  -8526389.25848  -6623184.53545  22220578.4304                   22220576.1954
  -1188607.41047   -342797.39145  22239299.8754                   22239297.3014
 -11984406.30947  -8616707.15245  22537066.3364                   22537063.9734
 11  7 24  0 30  0.0000000  0  9G10G17G02G04G12G20G09G28G27
  -8539987.41847  -5476811.23444  23263795.7894                   23263793.8364
  -8956588.32448  -6120936.59046  21685943.8524                   21685940.4614
 -12400926.30548  -9487900.78545  22104817.2664                   22104812.7154
 -18579192.02348 -14199854.87546  20028593.6414                   20028590.7934
   -249070.34446   -176863.21543  24749815.1414                   24749813.7664
   1916944.55546   2540107.30142  24549147.6094                   24549144.9064
  -8509851.72747  -6610298.11745  22223725.0004                   22223723.0664
  -1100537.17247   -274171.27345  22256059.3834                   22256056.8094
 -11954560.10547  -8593450.38345  22542746.4774                   22542744.2194
 11  7 24  0 30 30.0000000  0  9G10G17G02G04G12G20G09G28G27
 -10179695.71147  -6754505.90244  22951769.7274                   22951767.6524
 -10470576.77048  -7300667.84846  21397840.9844                   21397837.6454
 -14020613.96948 -10749995.00445  21796600.2584                   21796596.4024
 -20127218.11348 -15406108.96946  19734014.2114                   19734011.0704
  -1893753.70746  -1458434.63743  24436843.4614                   24436841.6134
    416135.65645   1370645.80142  24263551.9694                   24263550.7544
 -10068045.75447  -7824475.28945  21927210.4774                   21927208.0944
  -2587471.10947  -1432821.11745  21973105.2034                   21973102.5204
 -13499602.50847  -9797379.54745  22248734.3364                   22248732.3754
 11  7 24  0 31  0.0000000  0  9G10G17G02G04G12G20G09G28G27
 -10243810.34446  -6804465.23044  22939567.6564                   22939566.8404
 -10409011.78948  -7252695.15246  21409556.7194                   21409553.4344
 -14064512.23848 -10784201.39846  21788246.9924                   21788242.3914
 -20099221.28148 -15384293.24646  19739341.8834                   19739338.7974
  -1962986.22746  -1512382.01643  24423668.7734                   24423667.3984
    491263.14145   1429186.66843  24277848.8984                   24277846.9844
 -10050132.77748  -7810517.10945  21930619.4304                   21930617.0864
  -2498575.62547  -1363551.93445  21990021.0554                   21990018.5554
 -13468695.95747  -9773296.53145  22254615.6954                   22254613.3954
 11  7 24  0 31 30.0000000  0  9G10G17G02G04G12G20G09G28G27
 -10307733.68046  -6854275.51644  22927403.5084                   22927402.4774
 -10347295.64547  -7204604.65646  21421300.3984                   21421297.1844
 -14108025.27048 -10818107.61745  21779966.6724                   21779962.0514
 -20070605.15248 -15361994.95746  19744787.1094                   19744784.0784
  -2032172.40646  -1566293.26243  24410502.8054                   24410501.0394
    566924.20346   1488143.35543  24292246.6254                   24292244.9184
 -10031516.01647  -7796010.53145  21934161.9304                   21934159.5164
  -2409251.78947  -1293948.97745  22007019.1564                   22007016.6294
 -13437243.87947  -9748788.43045  22260600.9774                   22260598.9804
 11  7 24  0 32  0.0000000  0  9G10G17G02G04G12G20G09G28G27
 -10371470.90646  -6903940.77044  22915274.9304                   22915273.8984
 -10285436.41447  -7156402.67246  21433072.3674                   21433069.3164
 -14151160.35248 -10851719.32446  21771758.6414                   21771754.1054
 -20041378.76248 -15339221.13346  19750348.8444                   19750346.1804
  -2101318.79746  -1620173.50443  24397344.2974                   24397343.1994
    643109.46146   1547508.45743  24306744.7894                   24306742.8364
 -10012203.81647  -7780962.06245  21937836.8364                   21937834.7624
  -2319508.43047  -1224019.12145  22024097.0864                   22024094.0314
 -13405255.29747  -9723862.27345  22266688.2344                   22266686.2234
 11  7 24  0 32 30.0000000  0  9G10G17G02G04G12G20G09G28G27
 -10435013.52047  -6953454.40244  22903183.4694                   22903181.9344
 -10223429.06647  -7108085.27746  21444871.7424                   21444868.7114
 -14193910.88748 -10885031.37946  21763623.0474                   21763618.9414
 -20011537.96148 -15315968.53946  19756027.2274                   19756024.2234
  -2170418.42246  -1674017.25843  24384194.7194                   24384194.0984
    719823.03546   1607285.27743  24321343.2584                   24321340.4184
  -9992191.36747  -7765367.94145  21941645.7274                   21941643.8484
  -2229340.67247  -1153758.54345  22041254.8984                   22041252.2814
 -13372725.42647  -9698514.34445  22272878.1884                   22272876.2584
 11  7 24  0 33  0.0000000  0  9G10G17G02G04G12G20G09G28G27
 -10498361.68746  -7002816.49244  22891128.8134                   22891127.3674
 -10161277.29347  -7059655.34046  21456698.6414                   21456695.6454
 -14236279.83648 -10918046.09846  21755560.5864                   21755555.8634
 -19981087.21548 -15292240.68446  19761821.8674                   19761819.4804
  -2239473.56646  -1727826.38343  24371054.4694                   24371052.8834
    797060.02746   1667469.94943  24336039.8984                   24336038.0234
  -9971482.50047  -7749231.16045  21945586.1174                   21945583.5744
  -2138752.70347  -1083170.54745  22058494.0314                   22058490.9614
 -13339658.65247  -9672748.03545  22279170.7584                   22279168.7034
 11  7 24  0 33 30.0000000  0  9G10G17G02G04G12G20G09G28G27
 -10561513.27747  -7052025.42244  22879111.0004                   22879109.7584
 -10098982.32047  -7011113.82646  21468553.1254                   21468549.7664
 -14278267.03148 -10950763.34446  21747570.4774                   21747566.1374
 -19950028.57048 -15268039.12546  19767732.2504                   19767728.8244
  -2308483.19947  -1781599.99643  24357921.9924                   24357920.4884
    874818.19946   1728060.73043  24350838.1954                   24350834.7974
  -9950078.65247  -7732552.82845  21949659.1094                   21949656.9884
  -2047745.62547  -1012255.98445  22075811.7504                   22075808.2974
 -13306056.77347  -9646564.75445  22285564.8674                   22285563.1094
 11  7 24  0 34  0.0000000  0  9G10G17G02G04G12G20G09G28G27
 -10624469.38747  -7101082.01644  22867130.2734                   22867129.1484
 -10036548.48847  -6962464.10946  21480434.0784                   21480430.9654
 -14319875.84848 -10983185.75446  21739652.7664                   21739648.3284
 -19918367.41848 -15243368.09846  19773756.9304                   19773753.9614
  -2377449.87946  -1835340.18044  24344798.8134                   24344796.4964
    953092.04346   1789053.34843  24365732.0944                   24365729.8364
  -9927984.19147  -7715336.37545  21953863.3134                   21953860.8204
  -1956324.34447   -941018.64845  22093208.6414                   22093205.5554
 -13271924.94947  -9619968.53545  22292059.5164                   22292057.9224
 11  7 24  0 34 30.0000000  0  9G10G17G02G04G12G20G09G28G27
 -10687219.26247  -7149977.89144  22855189.9064                   22855188.2934
  -9973968.55947  -6913700.55546  21492342.7274                   21492339.6454
 -14361097.61748 -11015306.56246  21731808.4304                   21731804.0394
 -19886097.09848 -15218222.37146  19779898.1414                   19779895.2504
  -2446364.43046  -1889039.73844  24331685.2194                   24331682.5664
   1031887.84046   1850452.63743  24380727.6414                   24380724.0234
  -9905192.07447  -7697576.27745  21958200.6254                   21958198.3674
  -1864481.93447   -869453.17645  22110685.7114                   22110682.6024
 -13237256.23847  -9592953.95745  22298656.9774                   22298655.6254
 11  7 24  0 35  0.0000000  0  9G10G17G02G04G12G20G09G28G27
 -10749754.78147  -7198706.78144  22843289.4924                   22843287.9064
  -9911237.94147  -6864819.58646  21504279.6484                   21504276.3554
 -14401926.69148 -11047121.38345  21724038.4064                   21724034.5354
 -19853214.16448 -15192599.29746  19786155.3284                   19786152.3014
  -2515220.73446  -1942693.90244  24318581.1334                   24318579.6564
   1111208.84446   1912261.20343  24395822.1024                   24395818.8834
  -9881698.10947  -7679269.31245  21962671.4224                   21962669.1604
  -1772214.04747   -797556.14845  22128243.8984                   22128241.3404
 -13202046.68047  -9565517.94145  22305357.3914                   22305355.4304
 11  7 24  0 35 30.0000000  0  9G10G17G02G04G12G20G09G28G27
 -10812074.41447  -7247267.45344  22831430.3984                   22831428.6024
  -9848358.44948  -6815822.60246  21516245.2424                   21516242.2194
 -14442364.09048 -11078631.00846  21716343.6644                   21716339.1844
 -19819721.14548 -15166500.82446  19792528.7504                   19792525.9304
  -2584018.89546  -1996302.78144  24305489.3134                   24305487.9224
   1191052.10146   1974476.72543  24411014.7424                   24411012.2664
  -9857504.56247  -7660417.21945  21967275.7034                   21967272.9924
  -1679522.85547   -725329.27145  22145882.2664                   22145878.7154
 -13166298.77747  -9537662.43045  22312160.0554                   22312158.0204
 11  7 24  0 36  0.0000000  0  9G10G17G02G04G12G20G09G28G27
 -10874168.50047  -7295652.34044  22819614.1564                   22819613.2384
  -9785323.78947  -6766704.71146  21528240.8204                   21528237.7624
 -14482402.14848 -11109829.43746  21708724.8054                   21708720.1804
 -19785612.82848 -15139922.90246  19799019.6644                   19799016.6724
  -2652750.42646  -2049859.74644  24292410.6804                   24292408.4104
   1271422.48446   2037102.98043  24426309.0864                   24426306.4694
  -9832605.30147  -7641015.21945  21972013.6954                   21972011.1804
  -1586402.71947   -652768.15645  22163602.4924                   22163599.6174
 -13130006.94147  -9509383.07045  22319066.1484                   22319064.3674
 11  7 24  0 36 30.0000000  0  9G10G17G02G04G12G20G09G28G27
 -10936037.90247  -7343862.17244  22807840.5314                   22807839.5164
  -9722138.32048  -6717469.30146  21540264.4144                   21540260.9064
 -14522044.17648 -11140719.29346  21701180.7734                   21701176.6684
 -19750894.60248 -15112869.73446  19805626.0474                   19805622.9144
  -2721417.98846  -2103366.88344  24279343.0164                   24279341.2034
   1352314.47746   2100135.69543  24441702.3204                   24441699.5594
  -9807005.17647  -7621067.09445  21976885.2424                   21976883.0084
  -1492858.16447   -579876.30945  22181403.4064                   22181400.5314
 -13093176.30947  -9480683.87145  22326074.9064                   22326072.9414
 11  7 24  0 37  0.0000000  0  9G10G17G02G04G12G20G09G28G27
 -10997681.29747  -7391895.88744  22796110.5394                   22796108.8874
  -9658804.23047  -6668118.08646  21552316.7424                   21552313.4064
 -14561291.57848 -11171301.63346  21693712.5704                   21693708.1484
 -19715569.78548 -15085343.89846  19812348.0634                   19812345.1884
  -2790022.14847  -2156824.62144  24266288.2894                   24266286.2304
   1433724.58646   2163572.14543  24457193.6804                   24457191.3954
  -9780706.77047  -7600574.85245  21981889.6804                   21981886.8364
  -1398892.03947   -506656.00045  22199284.1174                   22199281.4734
 -13055810.11347  -9451567.36745  22333185.5164                   22333183.5314
 11  7 24  0 37 30.0000000  0  9G10G17G02G04G12G20G09G28G27
 -11059100.85247  -7439755.18744  22784422.3364                   22784421.1334
  -9595326.81647  -6618655.18046  21564395.8284                   21564392.6374
 -14600148.75448 -11201579.89846  21686318.3754                   21686313.3634
 -19679644.62948 -15057350.25446  19819184.3364                   19819181.5704
  -2858566.03947  -2210235.39844  24253244.5004                   24253242.4264
   1515646.28146   2227407.24243  24472782.6724                   24472780.4654
  -9753716.14547  -7579543.23445  21987025.5394                   21987022.8554
  -1304510.04747   -433111.59045  22217245.0314                   22217242.4144
 -13017914.41847  -9422038.24245  22340396.1804                   22340394.6414
 11  7 24  0 38  0.0000000  0  9G10G17G02G04G12G20G09G28G27
 -11120286.80947  -7487432.45244  22772779.2504                   22772778.0514
  -9531699.56647  -6569075.52746  21576503.8984                   21576500.3364
 -14638608.02348 -11231548.10946  21678999.6024                   21678995.0274
 -19643114.12148 -15028884.90646  19826135.9694                   19826133.1174
  -2927041.37947  -2263592.72744  24240213.5944                   24240212.5864
   1598084.64846   2291644.93443  24488470.7664                   24488468.6804
  -9726027.12947  -7557967.40245  21992294.6724                   21992291.7854
  -1209706.43047   -359238.68045  22235285.9064                   22235282.6174
 -12979483.63347  -9392092.19545  22347709.2974                   22347707.4844
 11  7 24  0 38 30.0000000  0  9G10G17G02G04G12G20G09G28G27
 -11181231.20347  -7534921.50044  22761181.7584                   22761180.6564
  -9467917.85247  -6519375.50446  21588640.9534                   21588637.8984
 -14676663.54748 -11261201.71546  21671757.8984                   21671753.8674
 -19605974.28948 -14999944.76646  19833203.6414                   19833200.6254
  -2995441.67647  -2316891.60543  24227197.9064                   24227195.7974
   1681042.90246   2356287.75843  24504256.3204                   24504254.6054
  -9697635.51647  -7535844.09445  21997697.3674                   21997694.9774
  -1114477.02347   -285033.96945  22253406.8054                   22253403.7854
 -12940513.73047  -9361726.03145  22355125.0634                   22355123.4384
 11  7 24  0 39  0.0000000  0  9G10G17G02G04G12G20G09G28G27
 -11241934.72047  -7582222.86444  22749630.1414                   22749629.3244
  -9403986.18647  -6469558.64446  21600806.8594                   21600803.0274
 -14714319.21448 -11290543.73146  21664592.0944                   21664588.2814
 -19568230.70448 -14970534.17446  19840385.8284                   19840383.2894
  -3063769.75646  -2370134.21243  24214195.0394                   24214194.0864
   1764515.56846   2421331.37343  24520141.8054                   24520139.1174
  -9668546.11747  -7513177.04345  22003233.4144                   22003230.9264
  -1018826.67047   -210501.26245  22271608.4144                   22271606.2734
 -12901010.05847  -9330943.95745  22362642.5234                   22362640.5434
 11  7 24  0 39 30.0000000  0  8G10G17G02G04G12G09G28G27
 -11302397.28547  -7629336.47744  22738124.5944                   22738123.1884
  -9339907.48847  -6419627.19946  21613000.2114                   21612997.5314
 -14751577.04348 -11319575.76246  21657502.3984                   21657498.1684
 -19529887.88348 -14940656.62946  19847682.2424                   19847679.2154
  -3132026.87946  -2423321.49243  24201206.2194                   24201204.3324
  -9638763.14847  -7489969.55945  22008900.8134                   22008898.7194
   -922759.12547   -135643.44145  22289889.3984                   22289886.3364
 -12860976.68048  -9299749.14145  22370260.8834                   22370258.8984
 11  7 24  0 40  0.0000000  0  8G10G17G02G04G12G09G28G27
 -11362610.43047  -7676255.71544  22726666.0554                   22726665.2384
  -9275676.72348  -6369577.28146  21625223.1094                   21625220.1564
 -14788431.13748 -11348293.19546  21650489.1484                   21650484.2814
 -19490942.01248 -14910309.19546  19855093.2734                   19855090.0824
  -3200205.85547  -2476447.87944  24188233.0084                   24188231.0394
  -9608282.32047  -7466218.27045  22014701.2114                   22014698.9734
   -826269.95747    -60457.13345  22308251.8204                   22308248.3984
 -12820409.49247  -9268138.35545  22377980.2814                   22377978.6764
 11  7 24  0 40 30.0000000  0  8G10G17G02G04G12G09G28G27
 -11422570.85247  -7722978.02044  22715256.1724                   22715254.5704
  -9211294.02048  -6319408.94946  21637475.0394                   21637471.6914
 -14824880.38348 -11376695.14846  21643553.0474                   21643548.4184
 -19451393.95748 -14879492.50846  19862619.1094                   19862616.0084
  -3268304.55546  -2529511.78543  24175273.9304                   24175271.1724
  -9577103.69947  -7441923.25045  22020633.7974                   22020631.8834
   -729359.57047     15057.41845  22326692.1724                   22326689.7774
 -12779309.25447  -9236112.23045  22385801.8834                   22385799.5864
 11  7 24  0 41  0.0000000  0  8G10G17G02G04G12G09G28G27
 -11482272.15047  -7769498.43744  22703896.0004                   22703893.6604
  -9146756.37148  -6269119.87546  21649756.1564                   21649753.1524
 -14860921.18048 -11404778.84846  21636694.8054                   21636690.4574
 -19411242.34848 -14848205.52246  19870259.9774                   19870256.7704
  -3336318.84846  -2582509.89143  24162331.1804                   24162328.1914
  -9545225.46547  -7417083.08645  22026700.0864                   22026698.3834
   -632025.67647     90901.97345  22345214.5554                   22345211.4694
 -12737674.16847  -9203669.33645  22393724.4304                   22393722.7894
 11  7 24  0 41 30.0000000  0  8G10G17G02G04G12G09G28G27
 -11541706.08247  -7815810.49644  22692585.6174                   22692583.6764
  -9082058.73447  -6218706.14146  21662067.5164                   21662064.1214
 -14896547.60948 -11432539.64846  21629915.0314                   21629910.3874
 -19370483.39148 -14816445.27346  19878015.9844                   19878013.0124
  -3404241.08246  -2635436.22743  24149405.8204                   24149402.7154
  -9512643.42247  -7391694.47745  22032900.3984                   22032898.3754
   -534264.07447    167079.82845  22363818.0784                   22363815.6214
 -12695500.28947  -9170806.61345  22401749.9144                   22401748.3754
 11  7 24  0 42  0.0000000  0  8G10G17G02G04G12G09G28G27
 -11600875.26247  -7861916.23044  22681325.6484                   22681323.4884
  -9017207.32047  -6168172.58246  21674408.3754                   21674405.2114
 -14931764.62548 -11459981.43746  21623213.4534                   21623208.7074
 -19329124.07848 -14784217.22346  19885886.2814                   19885883.2584
  -3472075.98046  -2688294.57843  24136496.7734                   24136493.9384
  -9479364.39547  -7365762.77345  22039233.0314                   22039230.8794
   -436081.36347    243585.78145  22382501.8594                   22382498.8794
 -12652794.44547  -9137529.38345  22409876.6414                   22409874.8714
 11  7 24  0 42 30.0000000  0  8G10G17G02G04G12G09G28G27
 -11659780.77047  -7907816.55144  22670116.2664                   22670115.0434
  -8952206.47347  -6117522.57846  21686777.6484                   21686774.5474
 -14966576.18048 -11487107.27746  21616589.2894                   21616584.8324
 -19287170.42648 -14751526.05546  19893869.7664                   19893866.8094
  -3539826.21147  -2741086.85543  24123604.5704                   24123601.7704
  -9445393.62147  -7339292.02745  22045697.7424                   22045695.6804
   -337482.80547    320415.79345  22401264.7424                   22401261.3404
 -12609562.41048  -9103842.12145  22418103.2734                   22418101.4614
 11  7 24  0 43  0.0000000  0  8G10G17G02G04G12G09G28G27
 -11718411.21547  -7953502.48844  22658958.3674                   22658957.8204
  -8887047.89547  -6066749.67246  21699176.9534                   21699173.8014
 -15000973.16448 -11513910.08246  21610043.2114                   21610039.2814
 -19244615.72748 -14718366.54346  19901967.6414                   19901964.6094
  -3607481.52747  -2793805.26244  24110729.9774                   24110727.1294
  -9410723.57047  -7312276.41045  22052295.0084                   22052293.0234
   -238460.85247    397575.73845  22420107.3834                   22420105.0204
 -12565797.00447  -9069739.24245  22426431.2344                   22426429.9654
 11  7 24  0 43 30.0000000  0  8G10G17G02G04G12G09G28G27
 -11776773.85947  -7998979.79344  22647852.8284                   22647851.0904
  -8821742.15647  -6015862.08646  21711604.3134                   21711601.3554
 -15034965.33248 -11540397.44146  21603574.8364                   21603570.3554
 -19201472.07848 -14684748.10946  19910177.5314                   19910174.4844
  -3675050.65247  -2846456.46944  24097871.7274                   24097869.8954
  -9375366.07847  -7284725.12545  22059023.3984                   22059021.7034
   -139026.90647    475056.69145  22439029.0314                   22439026.4884
 -12521509.94547  -9035229.90645  22434859.3524                   22434857.5554
 11  7 24  0 44  0.0000000  0  8G10G17G02G04G12G09G28G27
 -11834861.85547  -8044243.04744  22636799.2584                   22636797.9384
  -8756285.51247  -5964856.91446  21724060.7504                   21724057.3054
 -15068548.46548 -11566566.05946  21597184.2034                   21597179.6374
 -19157736.88348 -14650668.72746  19918500.1954                   19918496.9694
  -3742528.02347  -2899036.21544  24085032.0554                   24085028.6994
  -9339318.31647  -7256635.95345  22065883.4144                   22065881.2154
    -39178.03147    552860.95345  22458029.7734                   22458026.8094
 -12476698.66848  -9000312.07445  22443386.5864                   22443385.2384
 11  7 24  0 44 30.0000000  0  8G10G17G02G04G12G09G28G27
 -11892667.00447  -8089285.93744  22625799.2734                   22625797.3204
  -8690673.52747  -5913730.70346  21736546.1254                   21736542.8554
 -15101717.10248 -11592411.70746  21590872.5474                   21590868.1174
 -19113407.12148 -14616126.04746  19926935.6884                   19926933.1134
  -3809907.12947  -2951539.36744  24072209.8054                   24072207.6684
  -9302576.62547  -7228006.05145  22072874.9454                   22072872.8094
     61089.75047    630991.69145  22477110.6804                   22477106.9694
 -12431359.82848  -8964983.15645  22452014.6094                   22452012.4804
 11  7 24  0 45  0.0000000  0  8G10G17G02G04G12G09G28G27
 -11950190.88347  -8134109.64145  22614852.8674                   22614851.4924
  -8624911.18448  -5862487.32046  21749059.9614                   21749057.0594
 -15134475.39548 -11617937.60246  21584638.8834                   21584633.5904
 -19068489.19948 -14581125.06646  19935483.3284                   19935480.6524
  -3877190.92247  -3003968.33243  24059405.8524                   24059403.0554
  -9265146.85247  -7198839.99645  22079997.2814                   22079995.6804
    161770.32447    709444.00845  22496269.5784                   22496267.1294
 -12385499.57848  -8929247.94545  22460741.3984                   22460739.6374
 11  7 24  0 45 30.0000000  0  8G10G17G02G04G12G09G28G27
 -12007419.75747  -8178703.49144  22603962.5394                   22603960.6844
  -8558987.78247  -5811118.44246  21761604.6954                   21761601.3834
 -15166811.85748 -11643134.79946  21578485.3524                   21578480.8134
 -19022973.89848 -14545658.59946  19944144.8204                   19944141.9184
  -3944367.13146  -3056313.39043  24046622.4304                   24046620.6374
  -9227019.47447  -7169130.35745  22087253.2504                   22087251.1804
    262873.68747    788225.80844  22515508.6254                   22515506.0944
 -12339108.24048  -8893098.90245  22469569.8134                   22469567.8754
 11  7 24  0 46  0.0000000  0  8G10G17G02G04G12G09G28G27
 -12064353.09847  -8223067.04744  22593128.5864                   22593126.4224
  -8492905.98447  -5759626.14146  21774180.0004                   21774176.4964
 -15198728.64148 -11668004.96546  21572411.6724                   21572407.2704
 -18976865.74648 -14509730.16446  19952918.9614                   19952915.8324
  -4011436.55547  -3108575.23844  24033859.4924                   24033857.8484
  -9188198.52747  -7138880.26245  22094640.3834                   22094638.3404
    364396.58247    867334.55944  22534827.6804                   22534824.9614
 -12292189.98848  -8856539.27345  22478497.7114                   22478496.0704
 11  7 24  0 46 30.0000000  0  8G10G17G02G04G12G09G28G27
 -12120987.99247  -8267198.04745  22582351.2424                   22582349.3524
  -8426666.16448  -5708010.68446  21786784.9454                   21786781.1174
 -15230225.74248 -11692548.11746  21566417.7894                   21566413.3834
 -18930166.00048 -14473340.75046  19961805.4144                   19961802.4654
  -4078397.25947  -3160752.33244  24021117.3054                   24021115.5354
  -9148685.44547  -7108090.85545  22102159.7034                   22102157.0864
    466337.43847    946768.91845  22554227.0084                   22554223.6134
 -12244746.57048  -8819570.42645  22487525.7734                   22487524.5314
 11  7 24  0 47  0.0000000  0  8G10G17G02G04G12G09G28G27
 -12177324.15647  -8311096.25844  22571630.5164                   22571629.2894
  -8360271.45348  -5656274.54746  21799418.7504                   21799415.9384
 -15261305.57048 -11716766.10546  21560503.1954                   21560498.4654
 -18882879.82448 -14436494.38746  19970803.5704                   19970800.8014
  -4145250.60547  -3212845.77344  24008395.8914                   24008394.1024
  -9108484.59047  -7076765.52345  22109809.3914                   22109807.6844
    568692.18047   1026525.85544  22573703.3444                   22573701.7194
 -12196782.46948  -8782195.83645  22496653.5084                   22496651.0434
 11  7 24  0 47 30.0000000  0  8G10G17G02G04G12G09G28G27
 -12233363.87947  -8354763.50844  22560966.2344                   22560964.3594
  -8293727.37548  -5604422.03146  21812082.3364                   21812079.0004
 -15291972.85248 -11740662.64546  21554667.7114                   21554663.2774
 -18835014.22348 -14399196.51246  19979912.1804                   19979909.2504
  -4212000.33247  -3264858.50044  23995693.9844                   23995691.6954
  -9067602.59847  -7044909.43045  22117589.2344                   22117586.3984
    671454.50047   1106600.30544  22593259.0704                   22593255.7894
 -12148304.15647  -8744420.55945  22505878.3134                   22505876.4454
 11  7 24  0 48  0.0000000  0  8G10G17G02G04G12G09G28G27
 -12289094.00047  -8398189.48845  22550360.9454                   22550359.8164
  -8227023.59048  -5552445.05945  21824775.6024                   21824772.2894
 -15322216.85948 -11764229.34446  21548912.8134                   21548907.8674
 -18786560.72748 -14361440.54346  19989132.5704                   19989129.6214
  -4278634.65647  -3316781.25044  23983013.8444                   23983011.7504
  -9026030.72347  -7012515.76645  22125499.6644                   22125497.6954
    774633.73047   1186999.71144  22612893.4304                   22612890.5234
 -12099303.08647  -8706237.93045  22515203.1174                   22515200.9694
 11  7 24  0 48 30.0000000  0  8G10G17G02G04G12G09G28G27
 -12344511.72347  -8441372.04345  22539815.7194                   22539814.3834
  -8160161.16048  -5500344.46146  21837499.0864                   21837495.9534
 -15352037.71948 -11787466.32846  21543237.6644                   21543232.7894
 -18737521.67248 -14323228.29746  19998464.3674                   19998461.5554
  -4345152.12547  -3368612.95744  23970355.9144                   23970354.0784
  -8983771.04347  -6979586.16445  22133541.1174                   22133539.7934
    878227.93047   1267722.38744  22632606.7894                   22632603.9694
 -12049781.30147  -8667649.53945  22524626.4064                   22524624.9414
 11  7 24  0 49  0.0000000  0  8G10G17G02G04G12G09G28G27
 -12399610.29347  -8484305.90245  22529330.5864                   22529328.5354
  -8093136.40248  -5448117.37146  21850253.4924                   21850250.0824
 -15381431.23848 -11810370.31646  21537644.1254                   21537639.7114
 -18687895.20748 -14284558.32846  20007908.0864                   20007905.0124
  -4411547.25047  -3420349.32044  23957721.1564                   23957718.7704
  -8940820.91848  -6946118.55145  22141714.6724                   22141712.7114
    982239.50047   1348770.34444  22652399.3524                   22652396.4224
 -11999736.81647  -8628653.86745  22534150.3444                   22534148.2544
 11  7 24  0 49 30.0000000  0  8G10G17G02G04G12G09G28G27
 -12454393.47747  -8526994.04345  22518905.7274                   22518903.5904
  -8025956.14148  -5395769.12146  21863037.8134                   21863034.1524
 -15410403.78948 -11832946.27746  21532131.0554                   21532126.3094
 -18637689.59048 -14245437.06646  20017461.7734                   20017458.8094
  -4477824.99247  -3471994.23043  23945108.9454                   23945106.6684
  -8897188.74647  -6912119.50045  22150017.8364                   22150015.8204
   1086661.01647   1430137.69544  22672270.5784                   22672268.3484
 -11949177.98447  -8589257.38345  22543771.4694                   22543768.9694
 11  7 24  0 50  0.0000000  0  8G10G17G02G04G12G09G28G27
 -12508848.79747  -8569426.67245  22508543.2424                   22508542.0204
  -7958611.22748  -5343292.58246  21875852.9534                   21875849.7934
 -15438946.02048 -11855186.91846  21526699.4694                   21526694.7624
 -18586897.60548 -14205858.89846  20027127.2504                   20027124.6214
  -4543974.25446  -3523539.04744  23932520.8134                   23932518.6604
  -8852866.92648  -6877583.05145  22158451.7974                   22158449.6054
   1191500.59447   1511830.84444  22692220.2424                   22692217.3524
 -11898097.07847  -8549454.10245  22553491.1334                   22553489.0084
 11  7 24  0 50 30.0000000  0  8G10G17G02G04G12G09G28G27
 -12562995.33247  -8611618.71145  22498239.1254                   22498237.2854
  -7891123.88748  -5290705.05546  21888694.9534                   21888692.0204
 -15467079.45348 -11877109.03146  21521345.6484                   21521341.3914
 -18535543.27748 -14165842.53946  20036899.8594                   20036896.8874
  -4610015.89546  -3575000.00044  23919953.3364                   23919950.8324
  -8807879.29748  -6842527.78545  22167012.7894                   22167010.7504
   1296734.77747   1593831.48045  22712246.8834                   22712244.6914
 -11846517.98847  -8509262.61745  22563306.1414                   22563305.0004
 11  7 24  0 51  0.0000000  0  8G10G17G02G04G12G09G28G27
 -12616813.10947  -8653554.57844  22487998.3524                   22487996.0594
  -7823477.43048  -5237993.54346  21901567.9924                   21901564.8204
 -15494786.57048 -11898698.93046  21516073.2114                   21516068.5314
 -18483611.46948 -14125376.19146  20046781.8914                   20046778.7774
  -4675930.76647  -3626362.15643  23907410.0944                   23907408.4414
  -8762210.27347  -6806941.58645  22175703.4534                   22175701.4654
   1402379.22747   1676151.77044  22732349.9144                   22732346.6724
 -11794425.23847  -8468670.87145  22573219.1024                   22573217.1764
 11  7 24  0 51 30.0000000  0  8G10G17G02G04G12G09G28G27
 -12670289.08647  -8695224.08645  22477821.4534                   22477820.2584
  -7755662.13948  -5185150.47046  21914473.1884                   21914469.8014
 -15522057.38248 -11919948.86246  21510883.8524                   21510879.1174
 -18431094.15448 -14084453.60946  20056775.6174                   20056772.9494
  -4741707.13046  -3677616.38544  23894892.7814                   23894891.2504
  -8715851.34947  -6770817.79245  22184524.9064                   22184523.4414
   1508442.65447   1758798.58944  22752532.5474                   22752530.5124
 -11741810.27647  -8427672.20545  22583231.5164                   22583229.6094
 11  7 24  0 52  0.0000000  0  8G10G17G02G04G12G09G28G27
 -12723430.27747  -8736632.75045  22467709.2814                   22467706.5204
  -7687687.76247  -5132183.44146  21927407.9694                   21927404.7664
 -15548901.39148 -11940866.21546  21505775.5554                   21505770.7894
 -18378003.18048 -14043084.00846  20066878.3134                   20066875.8404
  -4807353.35947  -3728769.23044  23882401.6254                   23882399.0744
  -8668814.36347  -6734165.64545  22193476.2194                   22193474.0664
   1614914.07047   1841763.25844  22772793.6334                   22772791.5984
 -11688685.23847  -8386276.08645  22593341.0474                   22593339.3244
 11  7 24  0 52 30.0000000  0  8G10G17G02G04G12G09G28G27
 -12776229.27347  -8777774.73845  22457661.6254                   22457659.7894
  -7619550.49248  -5079089.48446  21940373.9454                   21940370.4414
 -15575314.03948 -11961447.44146  21500749.3524                   21500744.8524
 -18324336.34448 -14001265.69546  20077090.9144                   20077087.7384
  -4872863.10247  -3779815.69944  23869934.6334                   23869933.3524
  -8621096.73447  -6696983.12545  22202556.5004                   22202554.2854
   1721796.37147   1925048.18044  22793133.1644                   22793130.0594
 -11635047.16047  -8344480.18745  22603547.7894                   22603545.8554
 11  7 24  0 53  0.0000000  0  8G10G17G02G04G12G09G28G27
 -12828695.80147  -8818657.64845  22447678.0084                   22447676.0044
  -7551262.89548  -5025878.39546  21953368.7344                   21953365.7854
 -15601307.99248 -11981702.42646  21495802.5474                   21495798.1134
 -18270108.18448 -13959009.98446  20087410.0474                   20087407.0004
  -4938247.40147  -3830764.43344  23857492.9304                   23857491.2624
  -8572712.95347  -6659281.52345  22211763.6724                   22211761.3634
   1829075.99247   2008642.60244  22813547.8054                   22813545.5164
 -11580910.85947  -8302296.07445  22613849.7344                   22613848.0984
 11  7 24  0 53 30.0000000  0  8G10G17G02G04G12G09G28G27
 -12880810.03947  -8859266.10245  22437761.3364                   22437758.6644
  -7482808.73447  -4972537.53146  21966394.9694                   21966392.0394
 -15626866.32448 -12001617.95346  21490939.0864                   21490934.2034
 -18215304.40248 -13916305.73446  20097839.3524                   20097836.3014
  -5003487.90246  -3881601.12144  23845077.2114                   23845076.5314
  -8523648.45347  -6621049.49245  22221100.6644                   22221098.6374
   1936767.27747   2092557.88344  22834040.5704                   22834037.7854
 -11526261.60547  -8259712.24644  22624248.9534                   22624247.7304
 11  7 24  0 54  0.0000000  0  8G10G17G02G04G12G09G28G27
 -12932583.11747  -8899608.68045  22427908.9144                   22427906.8284
  -7414201.75748  -4919077.57546  21979450.0704                   21979447.6094
 -15652002.50048 -12021204.54946  21486155.7734                   21486151.2274
 -18159940.41848 -13873164.96546  20108374.3834                   20108371.6804
  -5068596.87546  -3932335.30944  23832686.7034                   23832686.7304
  -8473918.53147  -6582298.93445  22230563.9144                   22230561.8554
   2044855.67647   2176782.57444  22854609.2424                   22854606.4774
 -11471114.74647  -8216740.67245  22634743.2664                   22634741.3754
 11  7 24  0 54 30.0000000  0  8G10G17G02G04G12G09G28G27
 -12984019.12547  -8939688.60945  22418120.5784                   22418118.8954
  -7345449.58247  -4865504.46546  21992533.6254                   21992530.4534
 -15676723.55148 -12040467.65646  21481451.7424                   21481447.1294
 -18104025.80548 -13829595.12946  20119014.4454                   20119011.9804
  -5133579.48847  -3982971.10244  23820321.8204                   23820319.9844
  -8423532.23047  -6543036.92245  22240151.6804                   22240149.9224
   2153332.38747   2261309.84844  22875251.5234                   22875249.3634
 -11415479.40247  -8173388.46145  22645330.1724                   22645328.9024
 11  7 24  0 55  0.0000000  0  8G10G17G02G04G12G09G28G27
 -13035096.71947  -8979489.26245  22408400.9774                   22408398.3404
  -7276534.10948  -4811804.11346  22005647.5704                   22005644.7704
 -15701010.86748 -12059392.80546  21476829.9614                   21476825.7074
 -18047544.22748 -13785583.49646  20129762.4774                   20129759.9454
  -5198415.66847  -4033492.79344  23807984.1334                   23807982.4344
  -8372473.29347  -6503250.75445  22249867.9614                   22249865.8634
   2262214.57847   2346153.07444  22895971.2114                   22895968.1884
 -11359339.05547  -8129642.72745  22656013.3204                   22656011.5824
 11  7 24  0 55 30.0000000  0  8G10G17G02G04G12G09G28G27
 -13085820.69147  -9019014.37945  22398748.3594                   22398746.2814
  -7207463.19548  -4757982.65646  22018791.8524                   22018788.2384
 -15724872.32048 -12077986.09846  21472289.0004                   21472284.7974
 -17990505.59448 -13741137.80546  20140616.4384                   20140614.0984
  -5263111.49247  -4083905.13744  23795673.0474                   23795671.1174
  -8320751.43447  -6462948.02045  22259710.8204                   22259708.1374
   2371492.84847   2431304.95344  22916765.6564                   22916763.4494
 -11302703.57847  -8085511.18045  22666790.5164                   22666788.5824
 11  7 24  0 56  0.0000000  0  8G10G17G02G04G12G09G28G27
 -13136189.94147  -9058263.05145  22389163.3134                   22389161.0514
  -7138238.77048  -4704041.57846  22031964.2344                   22031961.3054
 -15748309.75848 -12096248.98846  21467829.1334                   21467824.4844
 -17932913.98048 -13696261.21946  20151576.0474                   20151573.0664
  -5327667.09847  -4134208.19544  23783388.7274                   23783386.8524
  -8268370.46547  -6422131.70345  22269678.0234                   22269676.3484
   2481163.99247   2516762.97344  22937635.8204                   22937632.7504
 -11245576.73447  -8040996.76645  22677662.0944                   22677660.1294
 11  7 24  0 56 30.0000000  0  8G10G17G02G04G12G09G28G27
 -13186202.86347  -9097234.12945  22379646.2034                   22379644.1954
  -7068862.19948  -4649981.93046  22045166.5314                   22045162.9884
 -15771324.08648 -12114182.19146  21463449.5164                   21463444.6054
 -17874772.60548 -13650956.24646  20162639.9774                   20162637.1764
  -5392081.49246  -4184401.20344  23771130.6094                   23771128.9184
  -8215333.50847  -6380804.20745  22279770.7504                   22279769.0004
   2591225.49247   2602525.16044  22958579.2974                   22958577.1334
 -11187961.59047  -7996101.84845  22688625.1954                   22688624.0474
 11  7 24  0 57  0.0000000  0  8G10G17G02G04G12G09G28G27
 -14811268.83647 -10363519.23445  22070406.1414                   22070404.1334
  -8574742.30148  -5823395.01246  21758607.0004                   21758603.5354
 -17369326.74248 -13359379.02346  21159359.5004                   21159355.0984
 -19391492.64148 -14832816.00446  19874017.5784                   19874015.1884
  -7031766.30946  -5462077.62944  23459109.3054                   23459107.2194
  -9737051.74647  -7566558.68745  21990197.5554                   21990195.6294
   1126268.62947   1461000.28544  22679807.8524                   22679805.5864
 -12705269.02047  -9178419.32445  22399891.6334                   22399890.1334
 11  7 24  0 57 30.0000000  0  8G10G17G02G04G12G09G28G27
 -14860543.12547 -10401914.75445  22061029.2974                   22061027.6844
  -8505044.99647  -5769085.43746  21771870.2344                   21771866.9144
 -17391477.45348 -13376639.28946  21155144.6954                   21155139.7854
 -19332241.45748 -14786646.23846  19885292.8134                   19885289.8754
  -7095876.82446  -5512033.80644  23446908.7194                   23446906.9144
  -9682692.02347  -7524200.46945  22000541.9454                   22000539.6414
   1237123.33247   1547380.56644  22700902.7114                   22700900.0634
 -12646666.25447  -9132754.83645  22411042.7584                   22411041.6334
 11  7 24  0 58  0.0000000  0  8G10G17G02G04G12G09G28G27
 -14909449.34847 -10440023.43445  22051723.0634                   22051721.3674
  -8435192.98048  -5714655.30945  21785162.3284                   21785159.6024
 -17413201.77748 -13393567.30146  21151010.7274                   21151005.7734
 -19272444.13348 -14740050.91446  19896671.8914                   19896668.9414
  -7159838.19546  -5561873.75444  23434737.8674                   23434736.3524
  -9627679.60247  -7481333.64545  22011010.3204                   22011008.7304
   1348366.63347   1634063.64144  22722071.6884                   22722068.5984
 -12587578.07847  -9086712.12145  22422287.1334                   22422285.9654
 11  7 24  0 58 30.0000000  0  8G10G17G02G04G12G09G28G27
 -14957977.84047 -10477837.78545  22042488.3364                   22042486.5204
  -8365179.68747  -5660099.51246  21798485.9224                   21798482.6134
 -17434493.19548 -13410157.98046  21146959.1564                   21146954.0004
 -19212096.23848 -14693026.56646  19908155.7034                   19908152.7854
  -7223641.66547  -5611590.69544  23422596.7664                   23422594.3984
  -9572010.03847  -7437954.76645  22021604.2194                   22021601.5864
   1460003.70347   1721053.52344  22743315.3834                   22743313.5944
 -12528000.25047  -9040287.84445  22433625.5944                   22433623.0124
 11  7 24  0 59  0.0000000  0  8G10G17G02G04G12G09G28G27
 -15006131.73847 -10515360.24245  22033324.9144                   22033322.6374
  -8295011.73448  -5605423.19546  21811838.1884                   21811835.3244
 -17455357.83248 -13426416.10246  21142988.5004                   21142983.5204
 -19151206.11748 -14645579.71146  19919742.7894                   19919740.0394
  -7287292.20747  -5661188.44944  23410484.0864                   23410481.5514
  -9515691.64147  -7394070.28945  22032321.0314                   22032318.9494
   1572026.98847   1808344.35544  22764632.9454                   22764629.9454
 -12467940.59047  -8993488.14145  22445054.0164                   22445051.8834
 11  7 24  0 59 30.0000000  0  8G10G17G02G04G12G09G28G27
 -15053897.78947 -10552580.46245  22024235.0314                   22024232.7464
  -8224679.02047  -5550618.49046  21825221.9614                   21825218.9304
 -17475785.04948 -13442333.37446  21139101.4844                   21139096.6604
 -19089765.88348 -14597704.20046  19931434.6174                   19931431.7854
  -7350776.92646  -5710657.01244  23398403.5164                   23398401.6294
  -9458715.77047  -7349673.49645  22043162.7504                   22043160.9264
   1684445.39847   1895943.11344  22786025.2504                   22786022.7584
 -12407390.92647  -8946306.61045  22456575.9454                   22456574.7194
 11  7 24  1  0  0.0000000  0  8G10G17G02G04G12G09G28G27
 -15101289.66047 -10589509.14845  22015216.9144                   22015214.6134
  -8154198.03547  -5495698.23845  21838634.2664                   21838631.0664
 -17495791.75848 -13457922.98846  21135294.0474                   21135289.1564
 -19027794.08248 -14549414.47746  19943227.0704                   19943224.4844
  -7414110.93746  -5760008.09844  23386350.6024                   23386348.4844
  -9401101.62147  -7304779.34845  22054126.4774                   22054124.6644
   1797240.59846   1983835.46544  22807489.1024                   22807486.8524
 -12346369.94947  -8898757.82045  22468187.9924                   22468186.5234
 11  7 24  1  0 30.0000000  0  8G10G17G02G04G12G09G28G27
 -15148289.45347 -10626132.29745  22006273.4064                   22006271.0044
  -8083553.59048  -5440650.61746  21852077.3054                   21852074.3094
 -17515362.44548 -13473172.83646  21131570.1174                   21131565.1564
 -18965277.90648 -14500700.57846  19955123.7194                   19955120.7424
  -7477277.35246  -5809228.58244  23374330.3284                   23374328.6454
  -9342836.18047  -7259377.69945  22065214.2424                   22065212.2664
   1910426.26647   2072032.04744  22829028.3834                   22829026.0784
 -12284864.66447  -8850831.64145  22479891.6644                   22479890.7544
 11  7 24  1  1  0.0000000  0  8G10G17G02G04G12G09G28G27
 -15194897.53147 -10662450.19945  21997403.9064                   21997402.2034
  -8012749.10548  -5385478.28146  21865550.8134                   21865547.7734
 -17534500.67248 -13488085.71946  21127928.0704                   21127923.1414
 -18902222.72748 -14451566.66846  19967122.8674                   19967119.7854
  -7540277.34647  -5858319.33444  23362342.4694                   23362340.0904
  -9283925.00247  -7213472.84645  22076424.4924                   22076422.7894
   2023997.66247   2160529.22544  22850640.2974                   22850637.2584
 -12222880.27447  -8802532.14645  22491687.0944                   22491685.6804
 11  7 24  1  1 30.0000000  0  8G10G17G02G04G12G09G28G27
 -15241110.26647 -10698460.05145  21988610.0314                   21988607.4844
  -7941783.88348  -5330180.70346  21879055.2664                   21879052.5594
 -17553205.41848 -13502660.81646  21124368.6884                   21124363.7074
 -18838630.38748 -14402014.18746  19979224.0864                   19979221.4774
  -7603108.02047  -5907278.18744  23350385.8754                   23350383.7734
  -9224369.45347  -7167065.91445  22087757.9534                   22087756.4694
   2137954.02047   2249326.38344  22872325.1644                   22872322.7234
 -12160418.17247  -8753860.41845  22503573.5554                   22503572.2624
 11  7 24  1  2  0.0000000  0  8G10G17G02G04G12G09G28G27
 -15286933.21147 -10734166.16845  21979889.4304                   21979888.1024
  -7870666.62548  -5274764.64546  21892588.8054                   21892585.2274
 -17571485.22748 -13516904.79346  21120889.8594                   21120885.0984
 -18774511.42648 -14352051.35946  19991425.3594                   19991422.3874
  -7665776.28547  -5956110.49644  23338460.3834                   23338458.3094
  -9164180.46547  -7120165.39845  22099211.3524                   22099208.4384
   2252285.17247   2338415.55944  22894081.9774                   22894079.6914
 -12097489.15647  -8704824.84445  22515548.5554                   22515547.0044
 11  7 24  1  2 30.0000000  0  8G10G17G02G04G12G09G28G27
 -15332351.47747 -10769556.94545  21971247.2734                   21971245.0824
  -7799385.59847  -5219220.98845  21906152.9064                   21906149.4414
 -17589328.37148 -13530808.51646  21117494.4384                   21117489.4304
 -18709856.33248 -14301670.75846  20003728.9774                   20003725.5984
  -7728268.50047  -6004805.64844  23326569.2344                   23326566.4964
  -9103348.47747  -7072763.82045  22110787.4454                   22110785.0554
   2367001.30547   2427804.74244  22915911.4224                   22915908.1764
 -12034083.32847  -8655417.74245  22527614.2894                   22527612.8444
 11  7 24  1  3  0.0000000  0  8G10G17G02G04G12G09G28G27
 -15377370.75847 -10804636.82845  21962680.2034                   21962677.9384
  -7727949.21547  -5163556.27345  21919746.3204                   21919743.3674
 -17606743.60548 -13544378.80546  21114180.6564                   21114176.0664
 -18644676.14848 -14250881.01246  20016132.1804                   20016129.1454
  -7790591.45747  -6053368.94144  23314709.2814                   23314706.2664
  -9041884.23047  -7024869.58245  22122483.3054                   22122480.9804
   2482092.24647   2517485.97344  22937811.9844                   22937810.2854
 -11970211.64547  -8605647.62145  22539768.4534                   22539766.6294
 11  7 24  1  3 30.0000000  0  8G10G17G02G04G12G09G28G27
 -15421968.82047 -10839388.50445  21954193.4534                   21954190.9924
  -7656338.69947  -5107755.86745  21933373.6334                   21933370.2974
 -17623711.85548 -13557600.78146  21110951.7034                   21110946.6174
 -18578954.01248 -14199668.94946  20028638.8754                   20028635.8754
  -7852724.02346  -6101783.87944  23302885.0784                   23302882.5944
  -8979770.79747  -6976469.48845  22134303.3444                   22134301.2424
   2597575.67247   2607473.07844  22959789.0474                   22959786.0274
 -11905856.83647  -8555501.03545  22552014.9454                   22552012.8914
 11  7 24  1  4  0.0000000  0  8G10G17G02G04G12G09G28G27
 -15466157.70747 -10873821.30945  21945784.3524                   21945782.1094
  -7584568.47347  -5051831.01645  21947030.6954                   21947027.6334
 -17640247.30148 -13570485.52046  21107804.8984                   21107800.1764
 -18512706.57048 -14148047.57046  20041244.9774                   20041242.2664
  -7914678.55547  -6150060.08244  23291096.2034                   23291092.9304
  -8917025.15247  -6927576.77745  22146243.2894                   22146241.6294
   2713435.35547   2697753.30144  22981835.9454                   22981833.1524
 -11841035.73847  -8504991.12545  22564350.1254                   22564347.9804
 11  7 24  1  4 30.0000000  0  8G10G17G02G04G12G09G28G27
 -15509931.05547 -10907930.33645  21937454.6484                   21937452.1884
  -7512635.00048  -4995778.96145  21960719.3134                   21960716.4184
 -17656346.69948 -13583030.48446  21104741.4064                   21104736.5944
 -18445932.87148 -14096016.11746  20053951.4064                   20053948.6374
  -7976449.84847  -6198193.53944  23279340.5084                   23279338.4654
  -8853646.73047  -6878190.97745  22158303.2504                   22158301.5634
   2829673.09847   2788328.10544  23003955.2734                   23003952.7504
 -11775747.09447  -8454116.87944  22576773.4774                   22576771.7504
 11  7 24  1  5  0.0000000  0  8G10G17G02G04G12G09G28G27
 -15553280.30947 -10941708.91445  21929205.4694                   21929202.9924
  -7440533.31647  -4939595.82445  21974439.9144                   21974436.7894
 -17672004.80548 -13595231.56646  21101761.7814                   21101756.7934
 -18378629.47348 -14043571.91846  20066758.9534                   20066756.1134
  -8038030.34847  -6246178.31245  23267622.8594                   23267620.8874
  -8789632.15247  -6828309.47745  22170485.4454                   22170483.0864
   2946292.85547   2879200.62144  23026147.4534                   23026144.5354
 -11709987.43747  -8402875.62945  22589288.0234                   22589285.7894
 11  7 24  1  5 30.0000000  0  9G10G17G02G04G12G09G05G28G27
 -15596204.89147 -10975156.57045  21921037.3054                   21921034.8554
  -7368265.31247  -4883283.09845  21988192.2894                   21988189.5004
 -17687223.96548 -13607090.63746  21098865.4304                   21098861.0514
 -18310801.39848 -13990718.87146  20079666.4224                   20079663.6684
  -8099420.68747  -6294014.93045  23255941.1484                   23255938.6484
  -8724986.21947  -6777936.01645  22182787.2344                   22182784.9024
  -3267704.64156  -2528974.77053  24609810.3834                   24609813.5394
   3063290.39847   2970367.48844  23048411.6644                   23048408.7814
 -11643761.56247  -8351271.07445  22601889.8284                   22601888.4694
 11  7 24  1  6  0.0000000  0  9G10G17G02G04G12G09G05G28G27
 -15638708.60247 -11008276.28545  21912949.2664                   21912947.0824
  -7295837.79347  -4826846.08645  22001974.1804                   22001971.5124
 -17702010.89148 -13618612.88346  21096051.8524                   21096046.9384
 -18242457.60248 -13937463.96546  20092671.8134                   20092668.8834
  -8160625.22747  -6341706.76244  23244294.1724                   23244291.8594
  -8659717.74647  -6727077.46945  22195207.4144                   22195205.0274
  -3340482.30946  -2585684.34443  24595961.9064                   24595963.8674
   3180657.59047   3061822.44943  23070745.4224                   23070742.3674
 -11577078.19147  -8299310.02044  22614579.6954                   22614577.7424
 11  7 24  1  6 30.0000000  0  9G10G17G02G04G12G09G05G28G27
 -15680803.27747 -11041077.27345  21904938.5704                   21904936.3484
  -7223265.48447  -4770296.22745  22015784.8204                   22015781.6134
 -17716380.19148 -13629809.69946  21093317.0784                   21093312.0704
 -18173614.89148 -13883820.30146  20105772.0234                   20105769.3484
  -8221656.55946  -6389263.63344  23232679.2424                   23232677.2154
  -8593843.79747  -6675747.12545  22207742.0704                   22207740.9494
  -3413293.45346  -2642419.98444  24582106.1804                   24582107.7344
   3298378.19947   3153552.76243  23093146.3594                   23093144.2194
 -11509954.04747  -8247005.51645  22627352.8364                   22627351.1684
 11  7 24  1  7  0.0000000  0  9G10G17G02G04G12G09G05G28G27
 -15722468.80547 -11073543.86745  21897010.0234                   21897007.3134
  -7150530.84448  -4713619.89145  22029625.7974                   22029622.1724
 -17730314.93048 -13640667.90646  21090665.3204                   21090660.7934
 -18104258.27048 -13829776.17246  20118970.1254                   20118967.7894
  -8282495.81246  -6436670.84844  23221102.7734                   23221099.2544
  -8527349.58647  -6623933.47745  22220396.5004                   22220393.9694
  -3486118.58646  -2699166.53143  24568247.5164                   24568249.2814
   3416467.75047   3245570.54344  23115618.5084                   23115615.5664
 -11442374.40647  -8194346.07444  22640212.9224                   22640211.2344
 11  7 24  1  7 30.0000000  0  9G10G17G02G04G12G09G05G28G27
 -15763711.14547 -11105680.73445  21889161.6564                   21889159.2974
  -7077642.78547  -4656823.99245  22043495.9614                   22043492.5314
 -17743823.72348 -13651194.19946  21088094.8914                   21088089.9384
 -18034399.05548 -13775340.41846  20132264.0164                   20132261.1644
  -8343149.46947  -6483933.43744  23209560.4774                   23209557.4414
  -8460246.52747  -6571645.37945  22233165.6724                   22233162.6294
  -3558964.39146  -2755929.19943  24554385.6094                   24554386.5204
   3534915.88747   3337867.75844  23138158.8524                   23138156.0904
 -11374349.96147  -8141340.04345  22653157.5634                   22653156.0704
 11  7 24  1  8  0.0000000  0  9G10G17G02G04G12G09G05G28G27
 -15804515.12947 -11137475.98845  21881397.2194                   21881394.4654
  -7004588.91048  -4599898.89845  22057397.0474                   22057394.3284
 -17756894.43448 -13661379.13746  21085607.4224                   21085602.9964
 -17964027.12148 -13720505.14146  20145655.4844                   20145652.6844
  -8403603.01647  -6531040.12944  23198056.4064                   23198053.5434
  -8392524.62947  -6518875.07445  22246052.4534                   22246049.8634
  -3631816.13347  -2812696.50843  24540522.3204                   24540522.1524
   3653733.23447   3430452.67644  23160769.2034                   23160766.3984
 -11305870.62147  -8087979.54344  22666188.8674                   22666187.5044
 11  7 24  1  8 30.0000000  0  9G10G17G02G04G12G09G05G28G27
 -15844877.41048 -11168927.08645  21873716.0084                   21873713.4494
  -6931368.91848  -4542844.36345  22071330.6804                   22071327.6804
 -17769527.26648 -13671222.86746  21083203.6564                   21083198.8524
 -17893144.78548 -13665272.14546  20159143.9144                   20159140.8754
  -8463854.02047  -6577988.92645  23186591.1174                   23186588.9414
  -8324186.30547  -6465624.45345  22259055.9454                   22259054.6134
  -3704671.53146  -2869466.68443  24526658.2194                   24526657.8874
   3772918.27047   3523324.08644  23183448.6334                   23183446.7894
 -11236938.71147  -8034266.39145  22679306.1724                   22679304.7894
 11  7 24  1  9  0.0000000  0  9G10G17G02G04G12G09G05G28G27
 -15884803.16647 -11200038.02845  21866118.3524                   21866115.7704
  -6857990.32047  -4485666.23545  22085294.1954                   22085291.0704
 -17781729.96848 -13680731.43146  21080881.3914                   21080876.8324
 -17821762.09548 -13609649.25446  20172727.3914                   20172724.7114
  -8523908.96147  -6624784.94645  23175163.1564                   23175160.6564
  -8255242.07747  -6411901.70745  22272176.1644                   22272174.2544
  -3777535.92646  -2926243.89644  24512792.7504                   24512792.5984
   3892461.50647   3616474.59443  23206197.5164                   23206195.0744
 -11167564.36547  -7980208.48945  22692507.4694                   22692506.0124
 11  7 24  1  9 30.0000000  0  9G10G17G02G04G12G09G05G28G27
 -15924282.37947 -11230800.99645  21858605.5314                   21858603.7584
  -6784446.37947  -4428359.28545  22099289.2814                   22099286.4694
 -17793495.58648 -13689899.40646  21078642.6414                   21078637.4774
 -17749874.44948 -13553632.90646  20186407.6414                   20186404.7154
  -8583758.35947  -6671420.78144  23163773.5864                   23163771.3594
  -8185687.22747  -6357703.14145  22285411.9924                   22285410.4654
  -3850399.85946  -2983020.68444  24498926.9304                   24498926.9734
   4012368.29747   3709908.45344  23229014.9224                   23229012.1954
 -11097742.65247  -7925801.99244  22705793.8674                   22705792.4884
 11  7 24  1 10  0.0000000  0  9G10G17G02G04G12G09G05G28G27
 -15963311.10947 -11261212.95345  21851179.1414                   21851176.3484
  -6710736.35348  -4370922.89545  22113315.4384                   22113312.5594
 -17804823.52048 -13698726.33246  21076487.0784                   21076481.8674
 -17677483.46548 -13497224.33646  20200182.7894                   20200180.2304
  -8643399.34447  -6717894.20744  23152424.7584                   23152422.2154
  -8115523.65647  -6303030.24645  22298764.0164                   22298762.0044
  -3923260.21046  -3039794.69743  24485061.1644                   24485061.9924
   4132637.92147   3803624.97744  23251901.2424                   23251898.8874
 -11027475.05547  -7871048.03644  22719165.8444                   22719164.0314
 11  7 24  1 10 30.0000000  0  9G10G17G02G04G12G09G05G28G27
 -16001888.84047 -11291273.47745  21843837.7194                   21843834.8954
  -6636861.80948  -4313358.31245  22127373.6804                   22127370.5434
 -17815715.78148 -13707213.76646  21074414.0084                   21074409.1724
 -17604593.44948 -13440426.91846  20214053.5554                   20214050.5124
  -8702831.48447  -6764204.91845  23141115.5784                   23141112.1724
  -8044755.80947  -6247886.46944  22312230.3594                   22312228.0044
  -3996116.82446  -3096565.77043  24471196.7274                   24471197.5594
   4253266.15247   3897620.96544  23274857.0314                   23274853.8634
 -10956766.02347  -7815950.10944  22732620.9534                   22732619.9494
 11  7 24  1 11  0.0000000  0  9G10G17G02G04G12G09G05G28G27
 -16040011.83647 -11320979.67245  21836583.0004                   21836580.7504
  -6562822.55947  -4255665.37545  22141462.9064                   22141459.6604
 -17826172.19948 -13715361.59446  21072423.9844                   21072419.1214
 -17531206.12148 -13383241.97746  20228018.5084                   20228015.3094
  -8762052.47747  -6810351.13345  23129845.7894                   23129842.7624
  -7973385.96947  -6192273.63745  22325811.3134                   22325809.8714
  -4068966.37146  -3153331.35543  24457333.4844                   24457334.7424
   4374252.16047   3991895.75044  23297879.5634                   23297877.0354
 -10885617.07847  -7760509.38745  22746160.2274                   22746158.9344
 11  7 24  1 11 30.0000000  0  9G10G17G02G04G12G09G05G28G27
 -16077673.00447 -11350325.98845  21829416.5084                   21829413.7974
  -6488613.53948  -4197840.18445  22155584.2734                   22155581.2424
 -17836188.29748 -13723166.31646  21070518.4224                   21070513.4304
 -17457319.53148 -13325668.00846  20242078.9144                   20242076.0784
  -8821055.56247  -6856327.52045  23118617.9304                   23118614.9454
  -7901412.05947  -6136190.07445  22339507.3984                   22339505.8484
  -4141801.93746  -3210086.03143  24443473.0784                   24443474.9454
   4495598.87947   4086451.59044  23320970.5554                   23320968.4184
 -10814026.20747  -7704724.31244  22759783.5234                   22759781.5234
 11  7 24  1 12  0.0000000  0  9G10G17G02G04G12G09G05G28G27
 -16114875.72747 -11379315.09445  21822337.0554                   21822334.1804
  -6414241.03548  -4139887.58245  22169736.8364                   22169733.7934
 -17845770.71948 -13730633.10946  21068694.9384                   21068689.7774
 -17382942.39848 -13267711.79746  20256231.8674                   20256229.2894
  -8879845.19147  -6902137.54745  23107430.1174                   23107427.6094
  -7828843.31647  -6079643.02745  22353317.0394                   22353315.0234
  -4214627.68546  -3266833.04443  24429615.5164                   24429616.9884
   4617298.28147   4181282.25044  23344129.3364                   23344127.5634
 -10742002.08247  -7648601.64144  22773489.2424                   22773487.8134
 11  7 24  1 12 30.0000000  0  9G10G17G02G04G12G09G05G28G27
 -16151609.61347 -11407938.84845  21815346.8284                   21815344.0514
  -6339697.65647  -4081801.84445  22183922.3674                   22183918.7854
 -17854911.67648 -13737755.91446  21066955.2504                   21066950.4414
 -17308069.48048 -13209369.26646  20270480.1024                   20270477.3874
  -8938411.52347  -6947773.57445  23096286.0164                   23096283.4654
  -7755674.54347  -6022628.44545  22367240.4304                   22367239.2934
  -4287433.88346  -3323564.87144  24415760.7504                   24415762.7584
   4739355.95747   4276392.08244  23367356.9384                   23367354.8134
 -10669539.29747  -7592137.13344  22787278.6484                   22787276.9654
 11  7 24  1 13  0.0000000  0  9G10G17G02G04G12G09G05G28G27
 -16187869.51247 -11436193.25845  21808446.3524                   21808444.3794
  -6264980.23447  -4023580.48445  22198140.5634                   22198137.4844
 -17863609.18448 -13744533.15646  21065299.8054                   21065295.1374
 -17232700.82448 -13150640.43446  20284822.1564                   20284819.2854
  -8996749.95347  -6993231.98045  23085183.7974                   23085181.6134
  -7681906.14547  -5965146.58245  22381278.1094                   22381276.7274
  -4360215.37946  -3380277.43444  24401910.9224                   24401911.7544
   4861772.85947   4371781.80944  23390651.0164                   23390649.3914
 -10596637.54347  -7535330.59044  22801151.4694                   22801150.0004
 11  7 24  1 13 30.0000000  0  9G10G17G02G04G12G09G05G28G27
 -16223654.06247 -11464077.28945  21801637.1334                   21801634.2974
  -6190090.59848  -3965224.93445  22212391.2894                   22212388.4184
 -17871865.23048 -13750966.41446  21063729.2274                   21063724.3364
 -17156840.31648 -13091528.33646  20299258.1884                   20299255.3164
  -9054860.06647  -7038512.50845  23074126.4064                   23074123.3954
  -7607542.21547  -5907200.69145  22395429.6414                   22395427.6374
  -4432971.38346  -3436970.19144  24388065.2974                   24388066.1844
   4984545.44147   4467448.71943  23414013.7424                   23414011.7704
 -10523301.05547  -7478185.33044  22815106.9774                   22815105.2274
 11  7 24  1 14  0.0000000  0  9G10G17G02G04G12G09G05G28G27
 -16258966.57847 -11491593.50045  21794917.2974                   21794914.3794
  -6115034.80947  -3906739.91045  22226674.2974                   22226671.2464
 -17879685.84848 -13757060.37946  21062240.7274                   21062235.9614
 -17080496.35248 -13032039.52346  20313785.6724                   20313782.9534
  -9112745.28147  -7083617.81645  23063111.1094                   23063107.9494
  -7532591.48447  -5848797.54745  22409691.8594                   22409690.4144
  -4505705.37546  -3493645.78143  24374223.8984                   24374225.1564
   5107666.00047   4563386.76243  23437443.9614                   23437440.7304
 -10449538.30547  -7420707.86744  22829143.8754                   22829141.6844
 11  7 24  1 14 30.0000000  0  9G10G17G02G04G12G09G05G28G27
 -16293795.61347 -11518732.93745  21788289.3834                   21788286.6994
  -6039803.94147  -3848118.48045  22240990.6174                   22240986.4884
 -17887062.55548 -13762808.43046  21060837.2974                   21060832.4344
 -17003662.91048 -12972169.30546  20328406.5864                   20328403.9264
  -9170395.00447  -7128539.60945  23052140.6024                   23052137.3874
  -7457048.16847  -5789932.65644  22424067.7424                   22424064.8324
  -4578406.45746  -3550295.77343  24360388.8674                   24360390.0784
   5231141.20147   4659601.18043  23460939.3204                   23460937.5084
 -10375343.05547  -7362893.41045  22843262.6024                   22843261.2934
 11  7 24  1 15  0.0000000  0  9G10G17G02G04G12G09G05G28G27
 -16328143.57847 -11545497.54345  21781753.2114                   21781750.4064
  -5964402.94148  -3789364.44945  22255338.2734                   22255335.3914
 -17894000.85948 -13768214.87946  21059516.5474                   21059511.8444
 -16926347.39548 -12911923.43746  20343119.1334                   20343116.4494
  -9227812.36747  -7173280.35945  23041213.6414                   23041211.4884
  -7380920.34047  -5730612.28545  22438554.0004                   22438552.9224
  -4651077.43546  -3606922.26743  24346559.4924                   24346560.0904
   5354964.20747   4756086.61344  23484502.9454                   23484500.2734
 -10300722.73447  -7304747.72344  22857461.9144                   22857461.1684
 11  7 24  1 15 30.0000000  0  9G10G17G02G04G12G09G05G28G27
 -16362005.92247 -11571883.75845  21775309.6414                   21775307.0044
  -5888830.05547  -3730476.49245  22269719.5474                   22269716.2774
 -17900499.31248 -13773278.57446  21058280.0944                   21058275.1724
 -16848550.51248 -12851302.49246  20357923.4844                   20357920.3914
  -9284993.40247  -7217836.95345  23030332.4224                   23030330.3014
  -7304208.87547  -5670837.15645  22453152.0634                   22453149.8634
  -4723714.12046  -3663521.96143  24332737.4614                   24332736.7504
   5479134.93447   4852842.98843  23508131.7664                   23508128.9144
 -10225678.02847  -7246271.34544  22871742.9924                   22871741.5514
 11  7 24  1 16  0.0000000  0  9G10G17G02G04G12G09G05G28G27
 -16395379.92647 -11597889.41445  21768958.2114                   21768955.8674
  -5813085.22247  -3671454.54845  22284132.6564                   22284129.8524
 -17906558.20248 -13777999.76746  21057127.0314                   21057122.3794
 -16770274.85448 -12790308.48346  20372818.8134                   20372815.8014
  -9341935.82147  -7262207.59045  23019497.1954                   23019494.2384
  -7226916.62247  -5610609.47145  22467860.4454                   22467858.8014
  -4796313.49546  -3720092.61044  24318922.3444                   24318920.8874
   5603651.67647   4949869.02643  23531826.0084                   23531823.5084
 -10150211.39847  -7187466.19844  22886103.1024                   22886102.3054
 11  7 24  1 16 30.0000000  0  9G10G17G02G04G12G09G05G28G27
 -16428267.26247 -11623515.87945  21762699.7894                   21762698.0274
  -5737172.30547  -3612301.63745  22298579.1414                   22298575.4264
 -17912182.12548 -13782382.01646  21056056.7194                   21056051.6764
 -16691527.21548 -12728946.68446  20387803.8524                   20387801.2734
  -9398641.86747  -7306394.07045  23008706.3754                   23008703.7934
  -7149050.56247  -5549934.64845  22482677.9384                   22482676.0274
  -4868878.08247  -3776636.19144  24305114.1724                   24305112.4964
   5728508.28547   5047159.87543  23555585.9844                   23555583.0784
 -10074329.69147  -7128337.64144  22900543.0864                   22900542.3714
 11  7 24  1 17  0.0000000  0  9G10G17G02G04G12G09G05G28G27
 -16460659.21547 -11648756.31245  21756536.2114                   21756533.8134
  -5661085.51947  -3553013.23645  22313057.9844                   22313054.3834
 -17917365.80148 -13786421.22346  21055070.7344                   21055065.1334
 -16612304.10548 -12667214.39146  20402879.5474                   20402876.7934
  -9455103.60947  -7350390.18045  22997962.5554                   22997959.1054
  -7070608.14547  -5488810.72345  22497604.8524                   22497602.7854
  -4941399.61747  -3833146.28544  24291314.1334                   24291312.8484
   5853708.78547   5144718.67643  23579410.2504                   23579407.7074
  -9998029.51647  -7068882.98044  22915062.9384                   22915061.4734
 11  7 24  1 17 30.0000000  0  9G10G17G02G04G12G09G05G28G27
 -16492560.00047 -11673614.02345  21750465.3754                   21750463.0594
  -5584831.67648  -3493594.64845  22327568.3754                   22327565.0204
 -17922115.96948 -13790122.62946  21054166.6804                   21054161.6604
 -16532614.99248 -12605118.98046  20418044.1484                   20418041.1054
  -9511325.80547  -7394199.64145  22987263.4384                   22987260.1954
  -6991598.62947  -5427244.90245  22512640.1254                   22512638.3364
  -5013882.04746  -3889625.87544  24277520.2584                   24277520.3054
   5979244.06347   5242538.34044  23603299.7974                   23603297.1994
  -9921320.16447  -7009109.48444  22929660.5164                   22929659.0594
 11  7 24  1 18  0.0000000  0  9G10G17G02G04G12G09G05G28G27
 -16523955.37148 -11698077.91845  21744491.2344                   21744488.8054
  -5508398.64847  -3434036.44545  22342112.9304                   22342109.7154
 -17926421.71148 -13793477.72746  21053347.1564                   21053341.9064
 -16452450.94148 -12542653.48846  20433298.9384                   20433295.9654
  -9567294.59047  -7437811.64545  22976612.5944                   22976609.7624
  -6912013.63748  -5365230.63345  22527784.6094                   22527782.8714
  -5086311.77046  -3946064.39144  24263737.1024                   24263738.0704
   6105123.92246   5340626.55943  23627253.4844                   23627250.8484
  -9844192.77347  -6949010.25044  22944337.1174                   22944335.3794
 11  7 24  1 18 30.0000000  0  9G10G17G02G04G12G09G05G28G27
 -16554857.00048 -11722157.05545  21738610.7734                   21738608.8594
  -5431801.49247  -3374350.34845  22356688.8054                   22356685.6484
 -17930297.86348 -13796498.08246  21052609.6724                   21052604.6644
 -16371828.82448 -12479831.07046  20448640.7424                   20448637.5824
  -9623022.15647  -7481235.69545  22966007.3674                   22966004.6914
  -6831870.46547  -5302781.43745  22543035.4224                   22543033.3134
  -5158700.74246  -4002471.22344  24249961.3444                   24249962.6684
   6231332.16446   5438970.57843  23651269.6804                   23651268.2074
  -9766664.27347  -6888598.45744  22959090.3594                   22959088.9494
 11  7 24  1 19  0.0000000  0  9G10G17G02G04G12G09G05G28G27
 -16585257.83247 -11745845.98045  21732825.7034                   21732823.1954
  -5355034.66447  -3314532.02745  22371297.4064                   22371293.9344
 -17933740.03548 -13799180.27346  21051954.4924                   21051949.5634
 -16290746.12948 -12416649.75046  20464070.0784                   20464067.0944
  -9678501.80147  -7524466.56245  22955450.6094                   22955448.1484
  -6751167.18747  -5239895.79745  22558392.9454                   22558391.2584
  -5231041.20746  -4058840.23444  24236194.7504                   24236197.8754
   6357871.77746   5537572.84843  23675349.3444                   23675347.3754
  -9688732.16447  -6827872.18744  22973920.5784                   22973918.8754
 11  7 24  1 19 30.0000000  0  9G10G17G02G04G12G09G05G28G27
 -16615157.43047 -11769144.33645  21727135.8914                   21727133.7344
  -5278100.37547  -3254583.22345  22385937.2814                   22385933.9304
 -17936750.84848 -13801526.33246  21051381.5394                   21051376.5044
 -16209207.97748 -12353113.53146  20479586.4454                   20479583.6134
  -9733733.48847  -7567504.19945  22944940.3834                   22944937.5394
  -6669909.41447  -5176578.07845  22573855.9144                   22573853.6094
  -5303333.52746  -4115171.78544  24222437.3594                   24222440.2384
   6484738.31646   5636429.85243  23699491.8524                   23699489.7464
  -9610401.56647  -6766835.38344  22988825.8204                   22988824.5744
 11  7 24  1 20  0.0000000  0  9G10G17G02G04G12G09G05G28G27
 -16644547.36747 -11792045.54345  21721543.2734                   21721540.2034
  -5200993.21147  -3194499.70345  22400610.2504                   22400607.1214
 -17939325.26648 -13803532.34846  21050891.5004                   21050886.5554
 -16127211.24648 -12289219.98046  20495189.7814                   20495187.1454
  -9788709.68747  -7610342.77745  22934478.9454                   22934476.2584
  -6588094.31247  -5112826.06245  22589424.8134                   22589423.0744
  -5375569.51246  -4171459.44543  24208692.0944                   24208692.9734
   6611935.24646   5735544.30143  23723696.5864                   23723694.3634
  -9531669.40647  -6705485.66844  23003808.4224                   23003807.1334
 11  7 24  1 20 30.0000000  0  9G10G17G02G04G12G09G05G28G27
 -16673429.68747 -11814551.19945  21716046.8914                   21716044.5004
  -5123717.41447  -3134284.79345  22415315.5704                   22415312.2894
 -17941467.97748 -13805201.96546  21050483.7584                   21050478.8794
 -16044763.06648 -12224974.64546  20510879.1804                   20510876.5744
  -9843432.23447  -7652983.68445  22924065.3674                   22924062.3404
  -6505729.43447  -5048645.66445  22605098.3594                   22605096.1334
  -5447751.44146  -4227704.99243  24194956.3754                   24194955.8594
   6739456.30946   5834911.35243  23747963.0084                   23747961.1994
  -9452542.89147  -6643828.68444  23018866.1724                   23018864.0784
 11  7 24  1 21  0.0000000  0  9G10G17G02G04G12G09G05G28G27
 -16701807.87947 -11836664.04745  21710646.4454                   21710643.9614
  -5046279.25047  -3073943.37545  22430051.3054                   22430048.1214
 -17943185.61748 -13806540.36346  21050157.3524                   21050152.1054
 -15961871.91848 -12160384.15646  20526652.8444                   20526650.1174
  -9897905.37147  -7695430.27045  22913699.2114                   22913696.3914
  -6422823.71147  -4984043.82045  22620874.4454                   22620873.2344
  -5519882.68046  -4283911.05544  24181230.8524                   24181229.3674
   6867293.63346   5934524.82443  23772289.6804                   23772287.2034
  -9373030.70347  -6581871.15244  23033996.4614                   23033995.2584
 11  7 24  1 21 30.0000000  0  9G10G17G02G04G12G09G05G28G27
 -18305090.66047 -13085975.25845  21405552.0554                   21405549.8164
  -6544085.59847  -4241065.19545  22145028.3984                   22145025.1954
 -19519889.18048 -15035140.51646  20750120.1884                   20750115.3674
 -17453948.24248 -13323041.03546  20242720.2894                   20242717.5594
 -11527539.13747  -8965274.74245  22603590.3444                   22603587.5824
  -7914787.94147  -6146613.38345  22336962.9924                   22336961.6844
  -7167373.48047  -5567670.03544  23867723.7114                   23867721.3674
   5420039.04346   4806793.91443  23496886.2194                   23496884.6174
 -10868543.03547  -7747205.47344  22749410.2504                   22749409.0514
 11  7 24  1 22  0.0000000  0  9G10G17G02G04G12G09G05G28G27
 -18332433.18747 -13107281.08645  21400349.0864                   21400346.0044
  -6466302.10547  -4180454.68445  22159829.8444                   22159826.7074
 -19520738.19548 -15035802.05546  20749958.8524                   20749953.8204
 -17370159.60548 -13257751.19146  20258664.4384                   20258661.8524
 -11581487.18047  -9007312.15645  22593324.4304                   22593321.4494
  -7830790.50447  -6081160.85545  22352947.2424                   22352945.9224
  -7239376.09847  -5623775.86744  23854021.7664                   23854019.6684
   5548522.13746   4906910.58243  23521335.7424                   23521333.8444
 -10788247.27747  -7684637.35944  22764690.0474                   22764688.6294
 11  7 24  1 22 30.0000000  0  9G10G17G02G04G12G09G05G28G27
 -18359265.34847 -13128189.22345  21395242.8754                   21395240.5864
  -6388356.84847  -4119718.10945  22174662.7734                   22174659.5704
 -19521165.39848 -15036134.90646  20749877.5314                   20749872.4454
 -17285937.32848 -13192123.45346  20274691.6334                   20274688.8324
 -11635180.58247  -9049151.14545  22583106.2894                   22583103.8364
  -7746263.13547  -6015295.40045  22369031.7894                   22369030.4064
  -7311322.16047  -5679837.59444  23840330.6954                   23840329.3054
   5677313.78146   5007267.63343  23545843.5634                   23545842.2304
 -10707574.96147  -7621775.84844  22780041.5084                   22780039.7624
 11  7 24  1 23  0.0000000  0  9G10G17G02G04G12G09G05G28G27
 -18385577.73447 -13148692.33645  21390236.2974                   21390233.0474
  -6310242.71948  -4058849.96145  22189527.1884                   22189524.1134
 -19521163.95348 -15036133.74646  20749877.6954                   20749873.1724
 -17201276.70348 -13126154.14146  20290801.8754                   20290799.0864
 -11688610.12547  -9090784.49245  22572939.2584                   22572937.1214
  -7661201.92247  -5949013.97344  22385218.9144                   22385217.8164
  -7383202.02047  -5735847.71144  23826652.9224                   23826651.1644
   5806419.16047   5107869.22343  23570412.5634                   23570409.6724
 -10626521.72747  -7558617.50044  22795464.7344                   22795463.6094
 11  7 24  1 23 30.0000000  0  9G10G17G02G04G12G09G05G28G27
 -18411369.10847 -13168789.48046  21385328.3284                   21385325.6054
  -6231960.98648  -3997851.21545  22204423.9454                   22204420.6914
 -19520735.44648 -15035799.81346  20749959.4384                   20749954.2504
 -17116181.86448 -13059846.47746  20306994.9384                   20306992.2154
 -11741774.90147  -9132211.51545  22562822.8134                   22562819.9144
  -7575610.99547  -5882319.77145  22401506.4064                   22401504.8094
  -7455014.58047  -5791805.46043  23812987.2274                   23812983.9694
   5935834.81047   5208712.58043  23595039.4384                   23595036.8554
 -10545091.70647  -7495165.53944  22810960.8444                   22810959.3984
 11  7 24  1 24  0.0000000  0  9G10G17G02G04G12G09G05G28G27
 -18436637.29747 -13188478.95745  21380519.6174                   21380517.0864
  -6153511.89847  -3936722.05145  22219352.0634                   22219348.7854
 -19519881.02348 -15035133.98846  20750121.6724                   20750116.5434
 -17030655.73048 -12993202.75046  20323270.0004                   20323267.1134
 -11794673.19947  -9173430.94145  22552756.5164                   22552753.6804
  -7489494.32447  -5815215.91044  22417893.3364                   22417891.9654
  -7526757.56647  -5847708.94944  23799334.7504                   23799333.2934
   6065558.42247   5309795.89143  23619724.8134                   23619723.1884
 -10463287.75847  -7431422.22744  22826527.2894                   22826525.6884
 11  7 24  1 24 30.0000000  0  9G10G17G02G04G12G09G05G28G27
 -18461381.78147 -13207760.32845  21375811.0634                   21375808.3364
  -6074896.87947  -3875463.60545  22234312.1644                   22234309.0664
 -19518602.96148 -15034138.06246  20750364.8754                   20750359.5204
 -16944702.71948 -12926226.38346  20339626.5554                   20339623.6254
 -11847304.33647  -9214442.15245  22542740.3754                   22542737.9184
  -7402856.47347  -5747705.91044  22434380.5084                   22434378.7114
  -7598430.28147  -5903557.66844  23785695.4384                   23785695.5234
   6195586.20347   5411116.22743  23644468.0554                   23644466.4064
 -10381114.43747  -7367391.11344  22842164.7034                   22842163.4454
 11  7 24  1 25  0.0000000  0  9G10G17G02G04G12G09G05G28G27
 -18485600.04347 -13226631.66845  21371202.6174                   21371199.7504
  -5996116.27347  -3814076.12545  22249303.5704                   22249300.3484
 -19516902.00048 -15032812.59446  20750688.5084                   20750683.7424
 -16858325.54348 -12858919.50046  20356063.4844                   20356061.0704
 -11899666.54747  -9255243.81245  22532776.5634                   22532773.8444
  -7315701.13347  -5679792.68444  22450965.0864                   22450963.8714
  -7670030.64546  -5959350.02743  23772070.0084                   23772070.9534
   6325915.75447   5512671.71143  23669268.9694                   23669267.1454
 -10298574.91847  -7303074.62544  22857871.0394                   22857870.2034
 11  7 24  1 25 30.0000000  0  9G10G17G02G04G12G09G05G28G27
 -18509288.02748 -13245089.80545  21366694.7274                   21366692.1524
  -5917167.96947  -3752557.96145  22264326.8834                   22264323.8634
 -19514776.89148 -15031156.62946  20751093.0394                   20751087.8094
 -16771525.16448 -12791282.85246  20372580.9224                   20372577.9804
 -11951755.84047  -9295832.79745  22522863.7734                   22522861.3674
  -7228029.64847  -5611477.27744  22467648.8054                   22467646.7464
  -7741553.93046  -6015082.34444  23758458.9224                   23758459.3284
   6456546.77747   5614462.11343  23694128.0084                   23694124.6334
 -10215669.82047  -7238473.30944  22873647.0394                   22873645.6524
 11  7 24  1 26  0.0000000  0  9G10G17G02G04G12G09G05G28G27
 -18532446.65248 -13263135.46145  21362287.7504                   21362285.1094
  -5838054.75847  -3690911.31345  22279381.9144                   22279378.7854
 -19512231.65648 -15029173.30146  20751576.9844                   20751571.6884
 -16684307.34448 -12723320.93046  20389177.8754                   20389175.1954
 -12003573.46547  -9336210.09045  22513004.0704                   22513000.7034
  -7139848.25847  -5542764.54744  22484429.4224                   22484427.5314
  -7813001.24646  -6070755.41044  23744863.0944                   23744863.7034
   6587474.12546   5716483.36343  23719041.9304                   23719039.6054
 -10132405.22347  -7173591.89144  22889491.9064                   22889491.3364
 11  7 24  1 26 30.0000000  0  9G10G17G02G04G12G09G05G28G27
 -18555070.73448 -13280764.57445  21357982.3594                   21357979.6294
  -5758774.30547  -3629134.33645  22294468.1484                   22294465.1174
 -19509263.92648 -15026860.73846  20752142.2114                   20752136.8094
 -16596672.07848 -12655033.71946  20405854.6174                   20405851.7584
 -12055114.15647  -9376371.61745  22503195.7424                   22503192.5514
  -7051157.67647  -5473655.03144  22501306.2274                   22501304.6024
  -7884367.38746  -6126365.24644  23731282.9064                   23731283.1334
   6718698.40246   5818736.01643  23744013.5634                   23744010.9184
 -10048781.30947  -7108430.46144  22905405.7664                   22905404.0984
 11  7 24  1 27  0.0000000  0  9G10G17G02G04G12G09G05G28G27
 -18577157.12148 -13297974.71545  21353779.3674                   21353776.6994
  -5679325.48047  -3567226.16445  22309586.8984                   22309583.2774
 -19505873.48848 -15024218.79746  20752787.0554                   20752782.0164
 -16508621.09048 -12586422.56246  20422610.7114                   20422607.3364
 -12106374.79747  -9416314.87545  22493441.1644                   22493437.6764
  -6961960.54747  -5404150.82044  22518280.1564                   22518278.4454
  -7955648.71147  -6181908.98444  23717719.2194                   23717718.6724
   6850218.06646   5921218.86743  23769040.3754                   23769038.0944
  -9964799.78547  -7042990.37544  22921386.9774                   22921385.5634
 11  7 24  1 27 30.0000000  0  9G10G17G02G04G12G09G05G28G27
 -18598707.37548 -13314767.07045  21349678.7344                   21349675.8794
  -5599711.88747  -3505189.59845  22324736.6724                   22324734.2344
 -19502065.03948 -15021251.14546  20753512.0314                   20753507.0274
 -16420161.06648 -12517492.68446  20439443.6564                   20439440.7074
 -12157357.41447  -9456041.51645  22483739.4384                   22483735.8954
  -6872263.94547  -5334257.39144  22535349.3054                   22535346.6294
  -8026846.84047  -6237387.93744  23704170.9224                   23704169.0904
   6982027.28146   6023927.32443  23794123.3204                   23794120.9574
  -9880467.25846  -6977276.80544  22937434.8984                   22937433.6914
 11  7 24  1 28  0.0000000  0  9G10G17G02G04G12G09G05G28G27
 -18619715.12547 -13331136.71946  21345681.0394                   21345678.5704
  -5519929.66147  -3443021.62845  22339918.8984                   22339916.0784
 -19497835.34248 -15017955.24446  20754316.8284                   20754311.9534
 -16331290.56248 -12448242.95046  20456354.4844                   20456352.1954
 -12208055.79347  -9495546.66845  22474091.4224                   22474089.0984
  -6782066.84847  -5263973.96944  22552513.3444                   22552510.9614
  -8097955.38747  -6292797.03944  23690638.0554                   23690637.3794
   7114127.60546   6126862.57443  23819261.1254                   23819259.3244
  -9795782.75147  -6911288.97444  22953550.6484                   22953548.7544
 11  7 24  1 28 30.0000000  0  9G10G17G02G04G12G09G05G28G27
 -18640180.92248 -13347084.06645  21341786.4304                   21341783.9804
  -5439981.66047  -3380724.48845  22355132.3134                   22355129.7504
 -19493188.28548 -15014334.12546  20755200.9304                   20755195.8404
 -16242015.43048 -12378677.91046  20473343.2734                   20473340.6644
 -12258470.55547  -9534830.80145  22464498.3524                   22464495.4924
  -6691375.76247  -5193305.60245  22569771.1954                   22569769.7854
  -8168974.73847  -6348136.60244  23677123.1334                   23677121.5314
   7246513.93446   6230020.71543  23844452.7274                   23844451.7624
  -9710752.16447  -6845031.40644  22969730.5944                   22969729.3324
 11  7 24  1 29  0.0000000  0  9G10G17G02G04G12G09G05G28G27
 -18660107.43748 -13362611.18045  21337994.7274                   21337991.7194
  -5359872.59047  -3318301.84045  22370376.5394                   22370373.8014
 -19488129.02748 -15010391.80146  20756163.9144                   20756159.0164
 -16152343.01648 -12308803.31246  20490407.7274                   20490404.7074
 -12308604.46547  -9573896.09445  22454957.4774                   22454954.8754
  -6600198.86247  -5122258.69344  22587121.4774                   22587119.8014
  -8239907.00447  -6403408.40244  23663625.3984                   23663624.2384
   7379179.57146   6333396.54743  23869698.7114                   23869697.2034
  -9625382.85147  -6778509.97044  22985976.2814                   22985974.4654
 11  7 24  1 29 30.0000000  0  9G10G17G02G04G12G09G05G28G27
 -18679493.80948 -13377717.41445  21334305.1884                   21334302.6764
  -5279603.73047  -3255754.67645  22385651.2274                   22385648.2384
 -19482659.73848 -15006129.99246  20757204.2814                   20757199.4804
 -16062277.41048 -12238622.32446  20507546.3134                   20507543.7034
 -12358456.75447  -9612741.96145  22445471.2814                   22445467.9804
  -6508540.93847  -5050836.96145  22604563.4694                   22604561.7894
  -8310751.37547  -6458611.66044  23650144.0474                   23650143.7154
   7512120.60246   6436986.94542  23894997.2584                   23894994.4024
  -9539679.23847  -6711727.99644  23002284.9844                   23002283.7234
 11  7 24  1 30  0.0000000  0  9G10G17G02G04G12G09G05G28G27
 -18698332.69548 -13392397.01245  21330720.2344                   21330717.5204
  -5199169.42647  -3193078.60245  22400957.2664                   22400954.1484
 -19476775.88748 -15001545.13746  20758323.8204                   20758319.2464
 -15971816.29748 -12168133.15646  20524760.2504                   20524757.7624
 -12408020.22348  -9651362.78545  22436039.1484                   22436036.0744
  -6416400.17247  -4979038.98445  22622097.7424                   22622095.5784
  -8381500.33647  -6513740.53144  23636680.0634                   23636680.0164
   7645340.09046   6540794.28543  23920347.3444                   23920345.1524
  -9453638.76647  -6644683.54744  23018658.1094                   23018657.4654
 11  7 24  1 30 30.0000000  0  9G10G17G02G04G12G09G05G28G27
 -18716619.59048 -13406646.50845  21327240.8524                   21327237.7344
  -5118567.43047  -3130271.85945  22416295.1484                   22416292.4614
 -19470475.68048 -14996635.85546  20759522.6884                   20759518.1914
 -15880959.47348 -12097335.62546  20542049.9304                   20542047.7384
 -12457289.93447  -9689754.72345  22426663.6644                   22426660.7424
  -6323777.31647  -4906865.34844  22639723.1724                   22639721.2114
  -8452148.43747  -6568790.87944  23623236.5234                   23623234.4264
   7778838.46546   6644818.87942  23945752.0784                   23945750.2154
  -9367261.84047  -6577376.89144  23035095.1564                   23035093.5234
 11  7 24  1 31  0.0000000  0  9G10G17G02G04G12G09G05G28G27
 -18734350.41448 -13420462.67646  21323866.2664                   21323863.3794
  -5037795.79347  -3067332.91845  22431665.4224                   22431663.0744
 -19463758.10548 -14991401.34846  20760800.9844                   20760795.8634
 -15789708.18448 -12026230.73046  20559414.5004                   20559411.8204
 -12506261.96947  -9727914.69945  22417345.1644                   22417342.0554
  -6230674.09447  -4834317.39845  22657439.3834                   22657438.0044
  -8522691.58247  -6623759.50444  23609812.8834                   23609810.9534
   7912615.19945   6749060.59842  23971208.0554                   23971207.0704
  -9280549.57047  -6509808.91844  23051595.7734                   23051594.2624
 11  7 24  1 31 30.0000000  0  9G10G17G02G04G12G09G05G28G27
 -18751531.19948 -13433850.26645  21320597.0474                   21320594.3204
  -4956862.59447  -3004268.09045  22447067.2034                   22447063.4844
 -19456632.43748 -14985848.84446  20762157.0944                   20762152.3244
 -15698073.46948 -11954827.05946  20576852.1884                   20576849.0394
 -12554942.36747  -9765847.44945  22408081.6024                   22408078.1214
  -6137102.55147  -4761404.52345  22675245.6724                   22675244.1484
  -8593135.64147  -6678650.84044  23596407.7034                   23596407.5314
   8046659.69146   6853510.76642  23996716.6334                   23996715.4964
  -9193513.34447  -6441988.51244  23068158.1804                   23068157.0634
 11  7 24  1 32  0.0000000  0  9G10G17G02G04G12G09G05G28G27
 -18768157.17248 -13446805.52745  21317433.1724                   21317430.0784
  -4875764.98847  -2941075.13745  22462498.9924                   22462496.3484
 -19449096.53948 -14979976.68046  20763591.1954                   20763586.2154
 -15606055.00448 -11883124.35246  20594362.5394                   20594359.7854
 -12603326.12147  -9803549.02045  22398873.7504                   22398870.8954
  -6043062.85947  -4688126.88744  22693140.8054                   22693139.2114
  -8663475.45747  -6733460.92644  23583022.7974                   23583021.0164
   8180972.63746   6958170.21542  24022275.8204                   24022274.9384
  -9106153.22947  -6373915.74244  23084781.9534                   23084781.1764
 11  7 24  1 32 30.0000000  0  9G10G17G02G04G12G09G05G28G27
 -18784220.40248 -13459322.28546  21314376.3754                   21314373.6764
  -4794497.17247  -2877749.57445  22477964.0784                   22477960.6334
 -19441145.66848 -14973781.18046  20765104.0394                   20765099.1804
 -15513650.03148 -11811120.46546  20611946.9774                   20611943.9414
 -12651405.80147  -9841013.67645  22389724.8834                   22389721.5434
  -5948553.10547  -4614482.90644  22711125.7114                   22711123.7464
  -8733702.62147  -6788183.29744  23569658.7344                   23569656.9654
   8315557.26646   7063041.24642  24047885.4384                   24047885.6414
  -9018466.36747  -6305588.34444  23101469.4144                   23101467.6954
 11  7 24  1 33  0.0000000  0  9G10G17G02G04G12G09G05G28G27
 -18799721.65648 -13471401.14845  21311426.6954                   21311423.5634
  -4713061.89147  -2814293.51245  22493460.8594                   22493457.8524
 -19432783.14548 -14967264.89846  20766695.2584                   20766690.2194
 -15420864.07448 -11738819.72346  20629603.5164                   20629600.6174
 -12699181.89547  -9878241.78945  22380633.2504                   22380629.6764
  -5853579.75847  -4540477.71144  22729198.9614                   22729196.9264
  -8803817.43747  -6842818.07444  23556315.5864                   23556315.6524
   8450408.324 5                  24073545.977
  -8930458.52047  -6237010.79344  23118215.8364                   23118214.6724
 11  7 24  1 33 30.0000000  0  9G10G17G02G04G12G09G05G28G27
 -18814660.97348 -13483042.13746  21308583.2664                   21308580.8834
  -4631461.30547  -2750708.63345  22508988.6644                   22508985.4224
 -19424012.19148 -14960430.36346  20768364.6414                   20768359.7624
 -15327701.92648 -11666225.83646  20647331.3204                   20647328.5314
 -12746654.11347  -9915233.12145  22371599.8134                   22371596.0744
  -5758148.25047  -4466115.54345  22747358.8524                   22747356.3794
  -8873819.35947  -6897364.85544  23542995.4774                   23542994.3714
   8585521.602 5                  24099256.508
  -8842134.57447  -6168186.94544  23135023.7814                   23135022.1564
 11  7 24  1 34  0.0000000  0  9G10G17G02G04G12G09G05G28G27
 -18829038.53948 -13494245.40246  21305848.0784                   21305844.7544
  -4549697.04348  -2686996.19545  22524548.2974                   22524544.8404
 -19414835.93448 -14953280.00846  20770110.5474                   20770105.6254
 -15234168.42648 -11593342.59446  20665130.3984                   20665127.5984
 -12793822.59847  -9951987.78145  22362623.7424                   22362620.5434
  -5662264.29347  -4391400.81244  22765604.9534                   22765602.6054
  -8943708.33247  -6951823.69144  23529696.0234                   23529693.6604
                                  24125018.922
  -8753499.95347  -6099121.03544  23151890.5704                   23151889.2774
 11  7 24  1 34 30.0000000  0  9G10G17G02G04G12G09G05G28G27
 -18842849.43448 -13505007.10546  21303219.2894                   21303216.4884
  -4467766.37147  -2623154.11345  22540139.2894                   22540136.1644
 -19405251.93748 -14945811.93046  20771934.4064                   20771929.2464
 -15140263.50048 -11520169.92246  20682999.4694                   20682997.2424
 -12840682.18747  -9988501.72745  22353706.2894                   22353703.7274
  -5565928.17247  -4316333.75044  22783937.3204                   22783934.9774
  -9013478.71547  -7006190.03544  23516418.3054                   23516416.5514
   8856522.27715                  24150829.000
  -8664554.65247  -6029813.02344  23168816.5234                   23168814.8554
 11  7 24  1 35  0.0000000  0  9G10G17G02G04G12G09G05G28G27
 -18856094.26648 -13515327.72346  21300699.3364                   21300696.2344
  -4385671.57047  -2559184.14145  22555761.2274                   22555757.7304
 -19395263.63748 -14938028.81646  20773835.1024                   20773829.9734
 -15045992.20748 -11446711.77046  20700939.0784                   20700936.4264
 -12887233.19547 -10024775.23845  22344848.3364                   22344845.1844
  -5469146.01247  -4240919.09444  22802353.7974                   22802351.6334
  -9083130.68047  -7060464.19544  23503163.8444                   23503163.3054
                                  24176689.148
  -8575303.82447  -5960266.96544  23185799.3284                   23185798.6174
 11  7 24  1 35 30.0000000  0  8G10G17G02G04G12G09G05G27
 -18868768.88348 -13525204.02045  21298286.7584                   21298284.1094
  -4303410.69147  -2495084.73845  22571414.5234                   22571411.7814
 -19384870.35548 -14929930.13746  20775812.8834                   20775807.6844
 -14951355.40248 -11372968.80946  20718947.8364                   20718944.9614
 -12933471.53147 -10060805.11345  22336049.1094                   22336046.3404
  -5371919.39547  -4165158.16044  22820855.9454                   22820853.6484
  -9152659.65247  -7114642.43444  23489933.4224                   23489932.8594
  -8485748.89546  -5890483.94944  23202841.3674                   23202841.0634
 11  7 24  1 36  0.0000000  0  8G10G17G02G04G12G09G05G27
 -18880871.91448 -13534634.92646  21295983.8594                   21295981.2664
  -4220984.06647  -2430856.19945  22587100.4774                   22587096.6884
 -19374073.37548 -14921516.88346  20777867.5944                   20777862.1484
 -14856356.40648 -11298943.61746  20737025.6564                   20737022.7894
 -12979395.45347 -10096589.97745  22327310.0864                   22327306.8284
  -5274252.62547  -4089054.24244  22839440.9224                   22839439.4964
  -9222063.74247  -7168723.41044  23476725.9614                   23476724.1884
  -8395893.30947  -5820466.66444  23219940.5084                   23219939.5274
 11  7 24  1 36 30.0000000  0  8G10G17G02G04G12G09G05G27
 -18892399.57548 -13543617.48445  21293790.2894                   21293787.2974
  -4138389.92947  -2366497.11645  22602817.2034                   22602814.0864
 -19362871.37948 -14912788.03746  20779998.8054                   20779994.1644
 -14760996.18948 -11224636.95946  20755171.7814                   20755169.1374
 -13025000.96947 -10132126.72145  22318631.7504                   22318628.8444
  -5176147.36147  -4012608.64644  22858109.8984                   22858108.0474
  -9291338.60947  -7222703.69544  23463543.1174                   23463541.6254
  -8305737.91547  -5750215.73544  23237096.2034                   23237095.0274
 11  7 24  1 37  0.0000000  0  8G10G17G02G04G12G09G05G27
 -18903354.51648 -13552153.78546  21291705.8444                   21291703.1724
  -4055632.50047  -2302010.78145  22618565.5084                   22618562.3444
 -19351269.98448 -14903747.95746  20782206.8134                   20782201.5204
 -14665281.81248 -11150054.32046  20773385.8594                   20773383.1374
 -13070290.62147 -10167417.35945  22310013.5394                   22310010.8134
  -5077611.71147  -3935827.68844  22876861.1024                   22876858.9614
  -9360486.12947  -7276584.76245  23450384.9064                   23450384.1374
  -8215290.22347  -5679737.08244  23254308.8204                   23254307.4454
 11  7 24  1 37 30.0000000  0  8G10G17G02G04G12G09G05G27
 -18913731.50448 -13560239.71546  21289731.0234                   21289728.6454
  -3972708.30947  -2237394.50845  22634345.0784                   22634342.5434
 -19339267.01648 -14894394.97746  20784490.8284                   20784485.8284
 -14569212.95748 -11075195.47346  20791667.3914                   20791664.4804
 -13115259.25447 -10202457.81645  22301456.1724                   22301453.5434
  -4978646.25047  -3858711.80144  22895692.8204                   22895691.9804
  -9429500.89547  -7330362.29344  23437250.9774                   23437250.2424
  -8124550.45347  -5609030.81644  23271575.1174                   23271574.4344
 11  7 24  1 38  0.0000000  0  8G10G17G02G04G12G09G05G27
 -18923529.57048 -13567874.55546  21287866.3204                   21287863.7854
  -3889618.41847  -2172649.10945  22650156.1414                   22650153.6604
 -19326864.05548 -14884730.30546  20786851.2424                   20786845.9614
 -14472793.29348 -11000063.26246  20810014.9224                   20810012.7384
 -13159904.98447 -10237246.66846  22292960.6724                   22292957.1724
  -4879254.92247  -3781264.11344  22914607.4774                   22914605.1454
  -9498380.50447  -7384034.61745  23424144.7274                   23424141.8874
  -8033522.05147  -5538099.65644  23288897.8284                   23288896.4884
 11  7 24  1 38 30.0000000  0  8G10G17G02G04G12G09G05G27
 -18932751.82048 -13575060.68746  21286111.4614                   21286108.3364
  -3806367.40647  -2107778.19545  22665998.4844                   22665995.7384
 -19314067.16048 -14874758.67646  20789286.3054                   20789281.0664
 -14376030.25848 -10924663.48446  20828428.5944                   20828425.9024
 -13204230.62547 -10271786.09445  22284525.2274                   22284522.1134
  -4779446.45347  -3703491.31644  22933599.0634                   22933598.5864
  -9567127.84047  -7437603.84444  23411061.8364                   23411060.4614
  -7942213.14547  -5466949.91844  23306273.6564                   23306271.8984
 11  7 24  1 39  0.0000000  0  8G10G17G02G04G12G09G05G27
 -18941389.32448 -13581791.17646  21284467.5704                   21284465.2304
  -3722948.07447  -2042776.10245  22681873.0634                   22681870.0864
 -19300869.95348 -14864475.11746  20791797.3594                   20791792.4384
 -14278919.41848 -10848992.70346  20846908.2814                   20846905.3164
 -13248226.71547 -10306068.71145  22276152.9384                   22276150.2814
  -4679217.15247  -3625390.64844  22952672.6024                   22952671.4924
  -9635733.01247  -7491062.27345  23398006.7274                   23398005.6644
  -7850619.45747  -5395578.25044  23323703.5084                   23323701.7424
 11  7 24  1 39 30.0000000  0  8G10G17G02G04G12G09G05G27
 -18949444.54748 -13588067.93446  21282935.0944                   21282931.7424
  -3639364.76247  -1977646.24245  22697778.4534                   22697775.5744
 -19287278.03548 -14853883.98846  20794384.1334                   20794379.0594
 -14181468.06648 -10773056.57846  20865452.5394                   20865449.9804
 -13291896.04348 -10340096.72345  22267843.5314                   22267840.0474
  -4578575.45347  -3546968.57444  22971824.3284                   22971823.0434
  -9704198.25047  -7544411.67244  23384977.4924                   23384976.4494
  -7758748.87847  -5323990.85844  23341185.7974                   23341184.4454
 11  7 24  1 40  0.0000000  0  8G10G17G02G04G12G09G05G27
 -18956911.23048 -13593886.10546  21281514.0474                   21281511.4384
  -3555613.06647  -1912385.16845  22713715.5004                   22713712.7544
 -19273287.77348 -14842982.45746  20797046.0474                   20797040.9614
 -14083674.50448 -10696853.78946  20884062.1254                   20884059.2814
 -13335231.57847 -10373864.62945  22259596.8444                   22259593.9654
  -4477520.32447  -3468224.37144  22991054.5474                   22991052.8484
  -9772516.51647  -7597646.53544  23371977.2274                   23371975.3404
  -7666599.66847  -5252186.35244  23358720.3984                   23358719.3754
 11  7 24  1 40 30.0000000  0  8G10G17G02G04G12G09G05G27
 -18963796.08248 -13599250.89546  21280203.6414                   21280200.8674
  -3471700.77347  -1846998.96545  22729683.9224                   22729680.8714
 -19258908.57448 -14831777.85946  20799782.3134                   20799777.4574
 -13985549.54748 -10620392.78546  20902734.4224                   20902731.9574
 -13378239.45747 -10407377.21945  22251412.4694                   22251409.6994
  -4376063.79347  -3389167.38744  23010361.6024                   23010359.4964
  -9840693.03947  -7650770.96144  23359003.6724                   23359002.0354
  -7574183.14147  -5180173.55144  23376306.0634                   23376306.3674
 11  7 24  1 41  0.0000000  0  8G10G17G02G04G12G09G05G27
 -18970087.99748 -13604153.65946  21279006.2424                   21279003.4964
  -3387618.52047  -1781480.32045  22745683.9384                   22745681.1524
 -19244132.14548 -14820263.73046  20802594.3754                   20802589.2344
 -13887086.87148 -10543668.60846  20921471.4454                   20921468.8914
 -13420908.33647 -10440625.65645  22243292.6484                   22243289.7074
  -4274200.26547  -3309793.22744  23029745.3284                   23029743.3954
  -9908716.39847  -7703776.07444  23346059.6804                   23346056.1294
  -7481493.11347  -5107947.61744  23393945.4224                   23393944.7464
 11  7 24  1 41 30.0000000  0  8G10G17G02G04G12G09G05G27
 -18975787.02748 -13608594.42646  21277921.8284                   21277919.0944
  -3303368.60947  -1715831.03545  22761715.3754                   22761713.6254
 -19228961.66048 -14808442.54746  20805480.9924                   20805475.9264
 -13788291.32048 -10466685.05546  20940271.6254                   20940268.5824
 -13463238.18747 -10473609.92245  22235237.7274                   22235234.6804
  -4171935.25447  -3230106.20344  23049205.7194                   23049203.7974
  -9976586.10247  -7756661.42644  23333143.7664                   23333141.8324
  -7388534.68446  -5035512.53944  23411634.5634                   23411633.8094
 11  7 24  1 42  0.0000000  0  8G10G17G02G04G12G09G05G27
 -18980888.55548 -13612569.60946  21276951.0314                   21276947.8794
  -3218947.56347  -1650048.39145  22777780.9064                   22777777.9264
 -19213394.61748 -14796312.35546  20808443.1254                   20808438.0314
 -13689162.09448 -10389441.49646  20959135.1564                   20959131.9734
 -13505223.66847 -10506325.85946  22227248.2664                   22227244.9884
  -4069269.54347  -3150106.97744  23068742.4454                   23068740.3554
 -10044296.36747  -7809422.57045  23320259.0944                   23320257.3794
  -7295307.64847  -4962868.13744  23429376.0554                   23429374.5514
 11  7 24  1 42 30.0000000  0  8G10G17G02G04G12G09G05G27
 -18985389.25848 -13616076.61346  21276094.8754                   21276092.1024
  -3134353.31647  -1584130.78145  22793878.4144                   22793875.3554
 -19197430.34848 -14783872.64146  20811481.1254                   20811476.0904
 -13589700.40648 -10311938.88346  20978062.3364                   20978059.4224
 -13546860.64547 -10538770.21546  22219325.0234                   22219321.9494
  -3966204.64847  -3069796.64844  23088354.3134                   23088353.1024
 -10111842.80547  -7862055.97344  23307404.8914                   23307404.0744
  -7201813.27047  -4890015.46144  23447167.6884                   23447166.2624
 11  7 24  1 43  0.0000000  0  8G10G17G02G04G12G09G05G27
 -18989296.43048 -13619121.13346  21275351.0084                   21275348.5634
  -3049595.19147  -1518085.49645  22810007.3204                   22810004.9734
 -19181079.43748 -14771131.64146  20814592.9144                   20814587.7734
 -13489918.21548 -10234186.52346  20997049.9224                   20997047.3164
 -13588156.19147 -10570948.51646  22211466.5704                   22211463.6994
  -3862753.85547  -2989185.64544  23108040.2344                   23108039.3364
 -10179231.81247  -7914566.80145  23294581.2664                   23294579.4654
  -7108063.93046  -4816964.05544  23465006.5944                   23465005.7854
 11  7 24  1 43 30.0000000  0  8G10G17G02G04G12G09G05G27
 -20568021.67248 -14849296.60546  20974929.7664                   20974926.8014
  -4540083.21147  -2679504.73445  22526377.6334                   22526374.0784
 -20739754.81648 -15985683.85946  20517987.0084                   20517981.4884
 -14965227.76648 -11383778.37546  20716307.9064                   20716305.3484
 -15204522.52047 -11830454.71945  21903882.4064                   21903879.0594
  -5334330.21947  -4135868.51644  22828009.5234                   22828007.2704
 -11821876.54347  -9194549.60545  22981995.6254                   22981994.4304
  -8589472.31246  -5971308.31244  23183104.2344                   23183103.8094
 11  7 24  1 44  0.0000000  0  8G10G17G02G04G12G09G05G27
 -20570732.12948 -14851408.61346  20974414.1414                   20974411.1024
  -4454991.72347  -2613199.67245  22542569.5704                   22542566.6564
 -20722627.93748 -15972338.20746  20521245.6024                   20521240.0984
 -14864807.48848 -11305528.81246  20735417.4774                   20735414.6884
 -15245123.82048 -11862092.08245  21896156.1334                   21896152.6644
  -5230113.27747  -4054660.52344  22847840.6334                   22847839.4964
 -11888938.97747  -9246805.94545  22969234.9774                   22969233.1484
  -8495217.00446  -5897862.66444  23201040.9454                   23201039.8094
 11  7 24  1 44 30.0000000  0  8G10G17G02G04G12G09G05G27
 -20572839.69148 -14853050.83646  20974012.7814                   20974009.7584
  -4369730.76247  -2546762.56645  22558794.3204                   22558791.0824
 -20705112.52748 -15958689.80546  20524578.6884                   20524573.4304
 -14764069.80948 -11227031.90246  20754587.2504                   20754584.1954
 -15285372.36747 -11893454.55545  21888496.8914                   21888493.5124
  -5125516.44947  -3973156.49645  22867745.2344                   22867744.0044
 -11955831.68447  -9298930.03545  22956505.6024                   22956503.6604
  -8400711.18047  -5824221.78544  23219024.7504                   23219023.2894
 11  7 24  1 45  0.0000000  0  8G10G17G02G04G12G09G05G27
 -20574343.04348 -14854222.23846  20973726.9384                   20973724.3054
  -4284300.97347  -2480193.89145  22575050.8364                   22575047.9414
 -20687210.10948 -15944739.84046  20527985.7424                   20527980.1174
 -14663017.81648 -11148290.08646  20773816.3524                   20773813.8794
 -15325266.31247 -11924540.72346  21880905.1884                   21880902.3834
  -5020543.90247  -3891359.69544  22887720.2504                   22887719.3484
 -12022552.50047  -9350920.18745  22943808.5704                   22943807.4024
  -8305958.15247  -5750388.31244  23237055.4694                   23237054.3484
 11  7 24  1 45 30.0000000  0  8G10G17G02G04G12G09G05G27
 -20575241.44148 -14854922.24246  20973555.7034                   20973552.9064
  -4198703.18447  -2413494.32845  22591339.9694                   22591336.2774
 -20668922.32448 -15930489.58646  20531465.4694                   20531460.4614
 -14561655.44548 -11069306.42246  20793105.2584                   20793102.5474
 -15364804.02047 -11955349.28946  21873381.6484                   21873378.5354
  -4915200.29747  -3809273.79344  22907767.2814                   22907765.7034
 -12089099.90647  -9402775.22745  22931144.6954                   22931143.1414
  -8210961.94547  -5676365.35244  23255132.7114                   23255132.2194
 11  7 24  1 46  0.0000000  0  8G10G17G02G04G12G09G05G27
 -20575538.32048 -14855153.54746  20973499.4844                   20973496.7344
  -4112941.84047  -2346667.31245  22607659.7734                   22607656.9614
 -20650255.44148 -15915943.93746  20535017.4224                   20535012.2854
 -14459990.02748 -10990086.61746  20812451.6954                   20812448.7894
 -15403988.57847 -11985882.66846  21865925.3054                   21865921.8014
  -4809494.20747  -3726905.41044  22927882.4844                   22927880.9184
 -12155475.96547  -9454496.75045  22918514.3054                   22918512.6604
  -8115730.60947  -5602159.15644  23273254.1094                   23273254.5314
 11  7 24  1 46 30.0000000  0  8G10G17G02G04G12G09G05G27
 -20575229.85948 -14854913.15246  20973558.0164                   20973554.7074
  -4027014.62947  -2279711.04345  22624010.9304                   22624007.8014
 -20631208.31248 -15901101.98446  20538642.5004                   20538637.2384
 -14358022.28148 -10910631.23046  20831855.3914                   20831852.5234
 -15442816.18047 -12016137.91045  21858535.8364                   21858532.5634
  -4703427.22747  -3644255.82844  22948065.9224                   22948064.6454
 -12221675.85247  -9506080.98045  22905917.1884                   22905914.8954
  -8020264.99647  -5527770.42244  23291420.8134                   23291420.6294
 11  7 24  1 47  0.0000000  0  8G10G17G02G04G12G09G05G27
 -20574312.66848 -14854198.41846  20973732.7504                   20973729.6254
  -3940919.59447  -2212623.99645  22640393.8834                   22640391.5784
 -20611780.22748 -15885963.18046  20542339.4454                   20542334.1524
 -14255752.74648 -10830940.68046  20851316.8054                   20851313.7464
 -15481282.08247 -12046111.30146  21851216.6644                   21851213.9884
  -4597000.96547  -3561326.30944  22968318.2974                   22968316.7704
 -12287695.38747  -9557524.67645  22893353.3914                   22893352.0044
  -7924566.30547  -5453200.07844  23309632.3054                   23309631.4264
 11  7 24  1 47 30.0000000  0  8G10G17G02G04G12G09G05G27
 -20572782.22348 -14853005.82046  20974023.7194                   20974020.4884
  -3854653.49647  -2145403.66445  22656810.5234                   22656807.3404
 -20591968.74648 -15870525.62546  20546109.3674                   20546104.2344
 -14153181.01248 -10751014.65646  20870835.3444                   20870832.3054
 -15519380.80148 -12075798.54746  21843966.5234                   21843963.3164
  -4490216.02047  -3478117.28544  22988638.8754                   22988636.6524
 -12353528.59047  -9608823.19545  22880826.1564                   22880824.4344
  -7828634.35546  -5378447.94944  23327887.1954                   23327886.8914
 11  7 24  1 48  0.0000000  0  8G10G17G02G04G12G09G05G27
 -20570640.98848 -14851337.30546  20974431.2274                   20974428.1684
  -3768219.73047  -2078052.66845  22673258.1724                   22673255.2464
 -20571778.70748 -15854793.09446  20549951.0164                   20549945.4734
 -14050313.32448 -10670858.00446  20890410.5634                   20890407.3444
 -15557113.94948 -12105200.94546  21836786.0474                   21836782.5514
  -4383079.89547  -3394634.62544  23009026.4614                   23009024.5784
 -12419176.44147  -9659977.26245  22868333.5394                   22868331.1724
  -7732475.97146  -5303519.37244  23346185.2274                   23346185.0274
 11  7 24  1 48 30.0000000  0  8G10G17G02G04G12G09G05G27
 -20567889.38748 -14849193.16046  20974954.3134                   20974951.5824
  -3681620.14147  -2010572.46145  22689737.8594                   22689734.2464
 -20551213.60248 -15838768.30546  20553864.4924                   20553859.5634
 -13947154.77748 -10590474.74246  20910041.1644                   20910037.9384
 -15594481.63747 -12134318.54746  21829675.1804                   21829672.0984
  -4275598.51646  -3310882.93444  23029478.4224                   23029477.6054
 -12484638.46947  -9710986.54745  22855876.0084                   22855874.1604
  -7636096.28146  -5228418.36744  23364526.0004                   23364525.7894
 11  7 24  1 49  0.0000000  0  8G10G17G02G04G12G09G05G27
 -20564526.23048 -14846572.48446  20975594.5704                   20975591.6884
  -3594855.10547  -1942963.34445  22706248.7344                   22706245.0784
 -20530274.73048 -15822452.27346  20557849.0554                   20557843.4924
 -13843707.84448 -10509866.73046  20929726.2114                   20929723.1604
 -15631481.93047 -12163149.88346  21822633.5634                   21822630.7854
  -4167775.72747  -3226865.23844  23049996.9304                   23049994.9064
 -12549912.44947  -9761849.27345  22843455.1414                   22843452.7894
  -7539498.95346  -5153147.77743  23382907.7974                   23382907.3524
 11  7 24  1 49 30.0000000  0  8G10G17G02G04G12G09G05G27
 -20560547.86348 -14843472.43046  20976351.4924                   20976348.1764
  -3507921.98447  -1875223.24645  22722791.4224                   22722788.1524
 -20508960.68048 -15805843.89146  20561904.8914                   20561899.9064
 -13739973.05948 -10429034.44146  20949466.2194                   20949463.5234
 -15668110.26647 -12191691.37946  21815664.0394                   21815660.4454
  -4059612.96147  -3142582.62944  23070579.0314                   23070577.8594
 -12614993.59047  -9812561.80545  22831070.4144                   22831067.8404
  -7442684.59446  -5077708.07444  23401331.8834                   23401331.3014
 11  7 24  1 50  0.0000000  0  8G10G17G02G04G12G09G05G27
 -20555959.52748 -14839897.07046  20977224.9224                   20977222.0984
  -3420826.91847  -1807356.94145  22739364.7114                   22739361.3674
 -20487279.08648 -15788949.11346  20566031.0474                   20566025.6334
 -13635959.44948 -10347984.87146  20969259.4614                   20969256.5474
 -15704370.91447 -12219946.36746  21808763.7734                   21808760.6134
  -3951120.38347  -3058043.00844  23091225.5314                   23091223.7624
 -12679885.36747  -9863126.74645  22818722.3914                   22818719.8954
  -7345662.69946  -5002106.62544  23419794.0554                   23419793.1454
 11  7 24  1 50 30.0000000  0  8G10G17G02G04G12G09G05G27
 -20550755.47748 -14835841.93046  20978214.7814                   20978212.1454
  -3333565.82847  -1739361.27745  22755969.9924                   22755966.6024
 -20465226.88348 -15771765.55546  20570227.5554                   20570222.0704
 -13531665.35948 -10266716.76246  20989105.8364                   20989102.9064
 -15740257.50847 -12247909.88346  21801934.7344                   21801930.7734
  -3842297.48447  -2973246.01244  23111933.8054                   23111931.6484
 -12744581.08647  -9913538.89845  22806411.1724                   22806407.8674
  -7248431.85946  -4926342.39844  23438296.9694                   23438295.5744
 11  7 24  1 51  0.0000000  0  8G10G17G02G04G12G09G05G27
 -20544941.68448 -14831311.66446  20979320.9844                   20979318.2664
  -3246145.70747  -1671241.68745  22772605.4534                   22772602.0984
 -20442812.62148 -15754299.87546  20574492.6484                   20574487.0234
 -13427100.80948 -10185237.89146  21009003.8444                   21009001.3134
 -15775774.90647 -12275585.71946  21795176.3674                   21795172.7464
  -3733155.03547  -2888199.98844  23132702.9144                   23132701.8164
 -12809085.37947  -9963801.89145  22794135.8364                   22794132.9614
  -7151002.73846  -4850423.62944  23456836.2504                   23456836.0084
 11  7 24  1 51 30.0000000  0  8G10G17G02G04G12G09G05G27
 -20538504.52748 -14826295.68046  20980546.2814                   20980543.2464
  -3158553.96547  -1602988.38345  22789273.5084                   22789270.0594
 -20420024.92648 -15736543.21946  20578829.0634                   20578823.3484
 -13322255.85548 -10103540.52346  21028955.2194                   21028952.4184
 -15810908.39548 -12302962.38746  21788490.0864                   21788486.8984
  -3623684.26247  -2802898.13344  23153534.6884                   23153533.1374
 -12873383.00847 -10013903.83645  22781900.2034                   22781898.1174
  -7053365.77346  -4774342.92244  23475415.9774                   23475415.7774
 11  7 24  1 52  0.0000000  0  8G10G17G02G04G12G09G05G27
 -20531450.67648 -14820799.12546  20981888.6564                   20981885.3714
  -3070798.05347  -1534607.14545  22805972.6564                   22805969.5944
 -20396872.87948 -15718502.64846  20583234.7974                   20583229.3484
 -13217141.32448 -10021633.10246  21048957.8674                   21048955.0004
 -15845664.03547 -12330044.64146  21781876.6644                   21781872.8364
  -3513897.24047  -2717349.83444  23174426.5704                   23174425.3874
 -12937479.61347 -10063849.16945  22769703.0474                   22769700.4614
  -6955532.20346  -4698109.07144  23494033.2114                   23494033.1294
 11  7 24  1 52 30.0000000  0  8G10G17G02G04G12G09G05G27
 -20523778.40248 -14814820.69946  20983348.6724                   20983345.3444
  -2982877.64847  -1466097.71145  22822704.0164                   22822700.3014
 -20373356.82448 -15700178.43446  20587709.4844                   20587703.6604
 -13111759.17248  -9939517.14146  21069011.5004                   21069008.6644
 -15880039.22748 -12356830.45346  21775334.7424                   21775331.7894
  -3403797.30147  -2631557.74244  23195377.8444                   23195376.8714
 -13001371.92247 -10113635.28945  22757544.5164                   22757541.7464
  -6857504.56646  -4621723.91444  23512688.5554                   23512687.2344
 11  7 24  1 53  0.0000000  0  8G10G17G02G04G12G09G05G27
 -20515489.93747 -14808362.12146  20984925.8984                   20984922.5704
  -2894795.48847  -1397462.25445  22839464.7974                   22839461.6724
 -20349481.64548 -15681574.39146  20592252.8054                   20592247.5984
 -13006115.35248  -9857197.27746  21089114.3834                   21089111.9534
 -15914034.88748 -12383320.52346  21768865.9304                   21768862.2974
  -3293391.31647  -2545527.16444  23216387.2504                   23216386.4694
 -13065060.46947 -10163262.65245  22745424.9534                   22745422.7624
  -6759289.35946  -4545192.64543  23531377.3834                   23531377.0634
 11  7 24  1 53 30.0000000  0  8G10G17G02G04G12G09G05G27
 -20506577.91048 -14801417.64546  20986621.4384                   20986618.2854
  -2806545.60947  -1328696.11345  22856258.7664                   22856255.3524
 -20325242.22348 -15662686.50846  20596865.2664                   20596859.5514
 -12900206.39148  -9774670.82046  21109268.4144                   21109265.8134
 -15947642.89548 -12409508.53546  21762470.5004                   21762467.2894
  -3182677.11346  -2459256.43044  23237455.4304                   23237454.8754
 -13128536.70747 -10212724.55145  22733345.5554                   22733343.0164
  -6660883.58246  -4468512.83644  23550103.3444                   23550103.2424
 11  7 24  1 54  0.0000000  0  8G10G17G02G04G12G09G05G27
 -20497040.34847 -14793985.75046  20988436.1564                   20988433.2344
  -2718127.10547  -1259798.56645  22873083.6884                   22873080.8054
 -20300638.75448 -15643514.95346  20601547.3284                   20601541.9534
 -12794034.16448  -9691939.21946  21129472.1804                   21129469.6884
 -15980860.14548 -12435392.06246  21756149.1484                   21756145.9104
  -3071657.50047  -2372747.65644  23258582.2274                   23258580.9804
 -13191797.04747 -10262018.23445  22721307.6024                   22721305.9304
  -6562289.36346  -4391686.23843  23568864.7344                   23568864.4924
 11  7 24  1 54 30.0000000  0  8G10G17G02G04G12G09G05G27
 -20486884.43448 -14786072.02346  20990369.1024                   20990365.9924
  -2629548.15647  -1190775.99245  22889940.2114                   22889936.8324
 -20275681.40248 -15624067.64846  20606296.3594                   20606291.1724
 -12687609.27348  -9609010.73446  21149724.4534                   21149721.9224
 -16013693.18048 -12460976.19946  21749901.6724                   21749897.7384
  -2960344.46547  -2286010.29744  23279763.1724                   23279763.5984
 -13254847.56647 -10311148.40645  22709309.1334                   22709307.7234
  -6463518.17646  -4314721.76243  23587660.6564                   23587660.0124
 11  7 24  1 55  0.0000000  0  8G10G17G02G04G12G09G05G27
 -20476102.48047 -14777670.47346  20992420.7424                   20992417.9534
  -2540802.03947  -1121623.16845  22906827.9304                   22906824.5944
 -20250364.44148 -15604340.12547  20611114.0314                   20611108.7344
 -12580928.05947  -9525882.52346  21170025.3984                   21170022.3054
 -16046132.98448 -12486253.94546  21743728.3054                   21743724.9734
  -2848735.17647  -2199042.07044  23301002.2504                   23301001.6564
 -13317678.75447 -10360107.68745  22697353.3754                   22697351.0434
  -6364566.47746  -4237616.59444  23606490.2194                   23606490.1644
 11  7 24  1 55 30.0000000  0  8G10G17G02G04G12G09G05G27
 -20464698.03547 -14768783.85946  20994591.3284                   20994588.1454
  -2451893.15247  -1052343.51645  22923746.2344                   22923743.2114
 -20224693.51648 -15584336.79746  20615999.0944                   20615993.8554
 -12473997.82048  -9442560.25446  21190373.4144                   21190370.7384
 -16078182.11348 -12511227.26246  21737629.9694                   21737626.4884
  -2736838.05147  -2111849.52744  23322295.9694                   23322294.4534
 -13380292.60547 -10408897.60545  22685438.2114                   22685436.2304
  -6265442.21946  -4160376.94143  23625352.5164                   23625353.0784
 11  7 24  1 56  0.0000000  0  9G10G17G02G04G12G09G05G25G27
 -20452665.37948 -14759407.74646  20996880.4924                   20996877.6684
  -2362816.34447   -982933.00045  22940697.3914                   22940694.3364
 -20198665.00848 -15564054.81646  20620952.2664                   20620946.8284
 -12366815.93048  -9359041.90246  21210769.3204                   21210766.4264
 -16109833.26247 -12535890.45746  21731606.7034                   21731602.9224
  -2624652.10547  -2024431.92644  23343644.5944                   23343643.4064
 -13442681.78947 -10457512.49645  22673565.7034                   22673563.8014
  -6391646.03556  -4966736.74253  24674205.1414                   24674205.9964
  -6166143.50847  -4083001.39144  23644249.2504                   23644248.5664
 11  7 24  1 56 30.0000000  0  9G10G17G02G04G12G09G05G25G27
 -20440013.78548 -14749549.33646  20999288.6094                   20999285.1214
  -2273582.07047   -913399.79745  22957677.5234                   22957674.7464
 -20172290.80948 -15543503.47746  20625971.0004                   20625965.6564
 -12259395.63348  -9275337.77746  21231210.2034                   21231208.0944
 -16141095.02748 -12560250.26246  21725657.8674                   21725654.3594
  -2512191.41847  -1936800.24644  23365045.4144                   23365043.6804
 -13504853.80947 -10505958.15645  22661734.2194                   22661732.3834
  -6457712.21146  -5018216.81643  24661632.7274                   24661634.1254
  -6066683.99647  -4005500.55944  23663176.4304                   23663175.5314
 11  7 24  1 57  0.0000000  0  9G10G17G02G04G12G09G05G25G27
 -20426731.80148 -14739199.71546  21001815.6414                   21001812.7344
  -2184179.75047   -843735.65644  22974690.6484                   22974687.3984
 -20145561.69948 -15522675.57046  20631057.0004                   20631051.5634
 -12151729.19548  -9191441.85246  21251699.1804                   21251696.3714
 -16171954.91848 -12584296.89846  21719785.2194                   21719781.4964
  -2399449.66447  -1848949.55144  23386498.8834                   23386497.1524
 -13566795.98047 -10554224.71545  22649947.2734                   22649945.6994
  -6523643.28546  -5069591.60943  24649085.5784                   24649087.0124
  -5967056.50846  -3927868.81644  23682133.8674                   23682134.1484
 11  7 24  1 57 30.0000000  0  9G10G17G02G04G12G09G05G25G27
 -20412828.17648 -14728365.69946  21004461.4924                   21004458.4884
  -2094618.75847   -773947.86745  22991733.3054                   22991730.2384
 -20118488.21148 -15501579.31646  20636209.5944                   20636203.8954
 -12043828.25848  -9107363.18746  21272232.1884                   21272229.0274
 -16202420.15648 -12608036.02346  21713987.9924                   21713984.1214
  -2286440.06247  -1760890.11744  23408003.7114                   23408003.3914
 -13628514.95747 -10602317.33645  22638202.8134                   22638200.7774
  -6589446.43746  -5120866.71943  24636564.6174                   24636565.2894
  -5867273.60246  -3850115.97344  23701122.6804                   23701122.8204
 11  7 24  1 58  0.0000000  0  9G10G17G02G04G12G09G05G25G27
 -20398303.13748 -14717047.45746  21007225.6564                   21007222.1414
  -2004900.13347   -704037.25045  23008807.2194                   23008803.3244
 -20091073.04748 -15480216.81646  20641426.0784                   20641420.9024
 -11935697.08648  -9023105.13346  21292808.5784                   21292805.7114
 -16232490.25448 -12631467.26646  21708265.9064                   21708262.0984
  -2173167.72747  -1672625.96144  23429559.5084                   23429558.4184
 -13690009.56647 -10650235.14845  22626500.7504                   22626498.6684
  -6655121.18047  -5172041.74243  24624067.2034                   24624067.5634
  -5767339.66846  -3772245.43044  23720139.4924                   23720139.9494
 11  7 24  1 58 30.0000000  0  9G10G17G02G04G12G09G05G25G27
 -20383149.43448 -14705239.34846  21010109.2034                   21010105.9224
  -1915017.38347   -633998.73045  23025910.7344                   23025907.8054
 -20063311.14848 -15458584.14546  20646709.2814                   20646703.4654
 -11827331.87548  -8938664.69946  21313429.9384                   21313426.9064
 -16262156.31648 -12654583.65246  21702620.4224                   21702616.9734
  -2059629.85247  -1584154.94944  23451164.8364                   23451163.4304
 -13751270.68447 -10697971.04345  22614843.1564                   22614840.2074
  -6720658.86346  -5223110.02743  24611595.3364                   24611596.0904
  -5667251.39546  -3694254.64544  23739185.6804                   23739186.0744
 11  7 24  1 59  0.0000000  0  9G10G17G02G04G12G09G05G25G27
 -20367369.78148 -14692943.48846  21013111.8444                   21013108.7234
  -1824973.93447   -563835.00845  23043045.2734                   23043042.3164
 -20035207.27748 -15436684.98846  20652057.3834                   20652051.7624
 -11718738.75848  -8854046.67246  21334094.1484                   21334091.3674
 -16291420.03947 -12677386.53146  21697051.4384                   21697048.4774
  -1945833.98847  -1495482.89844  23472818.9844                   23472818.4614
 -13812299.38747 -10745525.81645  22603229.1484                   22603227.1294
  -6786060.86746  -5274072.55143  24599149.8914                   24599149.6054
  -5567015.63346  -3616148.91444  23758259.9064                   23758260.0124
 11  7 24  1 59 30.0000000  0  9G10G17G02G04G12G09G05G25G27
 -20350953.18448 -14680151.31246  21016235.8444                   21016232.6954
  -1734759.62047   -493538.14545  23060212.3524                   23060209.2384
 -20006752.62148 -15414512.49646  20657471.5864                   20657466.0664
 -11609910.00847  -8769245.04746  21354803.6954                   21354801.2734
 -16320269.06648 -12699866.25846  21691561.9064                   21691558.5084
  -1831773.72947  -1406604.84344  23494523.9844                   23494523.8554
 -13873083.06647 -10792889.66045  22591662.6334                   22591660.1294
  -6851315.23746  -5324919.99743  24586731.9534                   24586732.5514
  -5466625.37146  -3537922.81243  23777363.6804                   23777363.2974
 11  7 24  2  0  0.0000000  0  9G10G17G02G04G12G09G05G25G27
 -20333906.71947 -14666868.32446  21019479.5704                   21019476.4774
  -1644381.60747   -423113.71545  23077411.1094                   23077407.8284
 -19977956.02348 -15392073.55546  20662951.3674                   20662946.1024
 -11500855.81648  -8684267.75446  21375556.2504                   21375553.5824
 -16348709.09847 -12722027.30146  21686150.0164                   21686146.0474
  -1717460.28147  -1317529.46944  23516276.8754                   23516276.6254
 -13933626.55547 -10840066.34845  22580141.3204                   22580138.4844
  -6916427.12146  -5375656.41443  24574341.7504                   24574342.1414
  -5366091.25447  -3459584.61744  23796495.4844                   23796494.4734
 11  7 24  2  0 30.0000000  0  9G10G17G02G04G12G09G05G25G27
 -20316222.96147 -14653088.74646  21022844.5864                   21022841.6844
  -1553833.62947   -352556.84045  23094641.8984                   23094638.3204
 -19948812.28948 -15369364.12546  20668497.4844                   20668492.1054
 -11391572.35247  -8599111.80546  21396351.9064                   21396349.3634
 -16376731.47347 -12743862.88746  21680817.3674                   21680813.3874
  -1602891.22747  -1228254.94544  23538078.6174                   23538079.0234
 -13993921.04747 -10887048.97745  22568667.8204                   22568665.3014
  -6981388.16446  -5426275.38743  24561979.6884                   24561980.3014
  -5265410.07446  -3381131.82843  23815654.2504                   23815653.4844
 11  7 24  2  1  0.0000000  0  9G10G17G02G04G12G09G05G25G27
 -20297909.34048 -14638818.36346  21026329.5634                   21026326.3594
  -1463123.62547   -281873.72345  23111903.1884                   23111900.0394
 -19919331.08248 -15346391.72746  20674107.6954                   20674102.0594
 -11282070.37948  -8513785.58646  21417189.4924                   21417186.7424
 -16404342.50048 -12765377.92646  21675562.9774                   21675559.8134
  -1488078.65247  -1138790.60544  23559926.7424                   23559926.4614
 -14053971.64147 -10933841.59445  22557240.8524                   22557238.3134
  -7046204.46546  -5476781.54743  24549646.2194                   24549646.3094
  -5164593.12146  -3302573.20743  23834838.1094                   23834838.1724
 11  7 24  2  1 30.0000000  0  9G10G17G02G04G12G09G05G25G27
 -20278962.20348 -14624054.33246  21029934.8364                   21029932.0594
  -1372248.70347   -211062.08245  23129195.8594                   23129193.1294
 -19889510.63348 -15323154.98046  20679782.0234                   20679777.0004
 -11172349.39147  -8428288.71946  21438068.7894                   21438066.0234
 -16431537.05548 -12786568.43446  21670388.0474                   21670384.5354
  -1373023.28947  -1049137.12543  23581821.9694                   23581820.1484
 -14113772.87947 -10980439.89145  22545860.9304                   22545858.4144
  -7110870.74647  -5527170.84843  24537340.8754                   24537340.1604
  -5063640.62946  -3223908.98043  23854049.7034                   23854048.8984
 11  7 24  2  2  0.0000000  0  9G10G17G02G04G12G09G05G25G27
 -20259379.28148 -14608794.89546  21033661.2504                   21033658.3674
  -1281206.91447   -140120.40645  23146520.7034                   23146517.3594
 -19859350.64148 -15299653.66846  20685521.3444                   20685516.0704
 -11062410.30548  -8342621.89545  21458989.7974                   21458986.5394
 -16458311.58648 -12807431.66046  21665293.1094                   21665289.6484
  -1257727.19147   -959295.99644  23603761.6954                   23603760.1024
 -14173320.94147 -11026840.89845  22534529.3674                   22534526.4024
  -7175383.37946  -5577440.40643  24525063.3204                   24525064.4064
  -4962554.07046  -3145140.32843  23873285.7664                   23873284.9574
 11  7 24  2  2 30.0000000  0  9G10G17G02G04G12G09G05G25G27
 -20239156.07048 -14593036.52346  21037509.9144                   21037507.0164
  -1189994.35147    -69045.67844  23163878.1724                   23163874.6254
 -19828848.53148 -15275885.76246  20691325.7194                   20691320.2074
 -10952251.79348  -8256784.09845  21479952.0554                   21479948.8674
 -16484659.86748 -12827962.74246  21660279.0314                   21660275.4224
  -1142190.49247   -869267.41044  23625747.7894                   23625746.6484
 -14232609.26647 -11073039.52345  22523246.6174                   22523244.6134
  -7239736.35947  -5627585.48843  24512817.6954                   24512817.7704
  -4861332.66046  -3066266.55943  23892547.2814                   23892546.1174
 11  7 24  2  3  0.0000000  0  9G10G17G02G04G12G09G05G25G27
 -20218291.81248 -14576778.63346  21041480.1484                   21041477.0704
  -1098610.75447      2162.33245  23181267.5554                   23181264.5744
 -19798005.49648 -15251852.21146  20697194.8444                   20697189.4774
 -10841876.40248  -8170777.29746  21500956.1804                   21500952.9844
 -16510580.07047 -12848160.24246  21655346.8984                   21655343.2704
  -1026416.91847   -779054.28543  23647779.0944                   23647777.4534
 -14291635.13747 -11119033.64545  22512014.1414                   22512012.1604
  -7303927.35247  -5677604.43444  24500602.4454                   24500603.1954
  -4759979.42247  -2987290.09443  23911834.4694                   23911833.6094
 11  7 24  2  3 30.0000000  0  9G10G17G02G04G12G09G05G25G27
 -20196799.10947 -14560031.05946  21045570.2894                   21045566.6954
  -1007069.14147     73493.49245  23198687.3674                   23198683.6724
 -19766836.05548 -15227564.31646  20703126.3674                   20703120.6954
 -10731299.79747  -8084613.72345  21521998.1724                   21521994.8914
 -16536083.37547 -12868032.87946  21650493.6804                   21650489.9614
   -910423.42646   -688669.78144  23669851.4774                   23669850.3554
 -14350408.88747 -11164831.28545  22500830.0234                   22500827.3594
  -7367967.43746  -5727505.74244  24488416.9064                   24488417.8094
  -4658510.75446  -2908223.60943  23931143.2734                   23931142.6294
 11  7 24  2  4  0.0000000  0  9G10G17G02G04G12G09G05G25G27
 -20174668.96248 -14542786.75746  21049781.4454                   21049777.9304
   -915360.89847    144954.48744  23216138.9454                   23216135.8594
 -19735333.19948 -15203016.62146  20709120.5944                   20709115.3444
 -10620515.87548  -7998288.59846  21543079.2664                   21543076.4884
 -16561159.15548 -12887572.39946  21645721.5634                   21645718.0124
   -794205.09846   -598110.10243  23691966.8594                   23691965.9924
 -14408919.90647 -11210424.23045  22489696.0554                   22489693.5744
  -7431845.82847  -5777281.07844  24476261.0164                   24476262.2384
  -4556921.37147  -2829063.10243  23950475.3914                   23950475.4964
 11  7 24  2  4 30.0000000  0  9G10G17G02G04G12G09G05G25G27
 -20151895.99248 -14525041.56246  21054115.1254                   21054111.3794
   -823481.68747    216548.70744  23233622.9384                   23233620.0864
 -19703494.01648 -15178206.84446  20715179.9924                   20715173.9924
 -10509522.77748  -7911800.48046  21564200.6884                   21564197.9144
 -16585800.94148 -12906773.73046  21641032.2424                   21641028.4264
   -677761.50446   -507374.89543  23714125.5634                   23714124.8404
 -14467160.99647 -11255806.83245  22478613.0474                   22478610.5704
  -7495556.12147  -5826925.42244  24464136.8284                   24464138.1214
  -4455210.12947  -2749807.66843  23969830.1484                   23969830.4574
 11  7 24  2  5  0.0000000  0  9G10G17G02G04G12G09G05G25G27
 -21703899.89548 -15734395.23046  20758778.1564                   20758775.0004
  -2306848.54747   -939321.55544  22951347.4304                   22951344.5164
 -21246739.05548 -16380735.43446  20421510.1254                   20421504.5004
 -11973739.84047  -9052748.82845  21285569.2584                   21285566.2704
 -18185428.16448 -14153236.44546  21336633.4694                   21336629.6174
  -2136513.13347  -1644064.51644  23436534.4924                   23436534.4884
 -16100551.94547 -12528578.93045  22167788.8984                   22167786.0204
  -9134518.72346  -7104039.10544  24152252.3444                   24152253.8164
  -5928797.14146  -3898057.33643  23689415.7034                   23689415.9494
 11  7 24  2  5 30.0000000  0  9G10G17G02G04G12G09G05G25G27
 -21679845.47348 -15715651.49646  20763355.6804                   20763352.4064
  -2214631.68847   -867464.23844  22968895.9694                   22968892.4064
 -21214235.62948 -16355408.06246  20427695.5474                   20427689.9614
 -11862340.61747  -8965944.24245  21306768.0314                   21306764.8094
 -18209200.90248 -14171760.59446  21332109.5704                   21332106.0434
  -2019635.16847  -1552990.83644  23458775.6024                   23458775.2424
 -16158250.01247 -12573538.39145  22156808.9774                   22156806.7344
  -9197890.87046  -7153419.97743  24140193.6564                   24140194.0664
  -5826855.96146  -3818622.69543  23708814.3834                   23708814.2074
 11  7 24  2  6  0.0000000  0  9G10G17G02G04G12G09G05G25G27
 -21655145.09848 -15696404.42646  20768056.1254                   20768052.6334
  -2122241.46947   -795471.84444  22986476.9224                   22986473.8834
 -21181397.54748 -16329819.93446  20433944.0474                   20433938.9534
 -11750737.63347  -8878980.86745  21328005.3754                   21328002.4694
 -18232531.74248 -14189940.42246  21327670.1564                   21327666.1054
  -1902541.39847  -1461748.99644  23481058.9614                   23481057.1914
 -16215668.19147 -12618279.78145  22145883.0394                   22145879.9414
  -9261086.42246  -7202663.22344  24128167.9144                   24128168.7384
  -5724800.32447  -3739098.85243  23728235.8754                   23728234.5274
 11  7 24  2  6 30.0000000  0  9G10G17G02G04G12G09G05G25G27
 -21629801.07448 -15676655.80946  20772878.6484                   20772875.2774
  -2029680.33247   -723346.24644  23004090.6954                   23004087.1684
 -21148229.23448 -16303974.48046  20440255.7664                   20440250.2464
 -11638936.31647  -8791862.96145  21349280.5234                   21349277.0744
 -18255421.31648 -14207776.39846  21323314.1334                   21323310.3244
  -1785238.22747  -1370343.98444  23503381.0084                   23503379.0124
 -16272806.89848 -12662803.36345  22135009.8914                   22135006.9104
  -9324105.73446  -7251769.10943  24116175.5634                   24116176.3324
  -5622635.94546  -3659490.33643  23747676.6804                   23747675.8634
 11  7 24  2  7  0.0000000  0  9G10G17G02G04G12G09G05G25G27
 -21603818.07848 -15656409.28546  20777822.8594                   20777820.0664
  -1936953.39847   -651091.48844  23021736.0944                   23021732.4614
 -21114737.17648 -16277876.75846  20446629.2034                   20446623.5164
 -11526944.10548  -8704596.29345  21370591.9304                   21370589.1054
 -18277873.32048 -14225271.43746  21319041.4844                   21319037.5514
  -1667734.95347  -1278783.03144  23525739.6484                   23525739.2114
 -16329668.80148 -12707111.28945  22124189.4924                   22124187.0704
  -9386951.82447  -7300740.02743  24104216.6414                   24104217.4534
  -5520371.22746  -3579803.56643  23767136.4614                   23767136.9534
 11  7 24  2  7 30.0000000  0  9G10G17G02G04G12G09G05G25G27
 -21577193.74248 -15635663.03146  20782889.7194                   20782886.7974
  -1844058.78147   -578706.03544  23039412.5474                   23039410.7154
 -21080920.81648 -16251526.33646  20453064.4224                   20453058.4414
 -11414761.57048  -8617181.32845  21391939.3594                   21391936.7154
 -18299883.64548 -14242422.28946  21314853.0554                   21314849.5394
  -1550033.10547  -1187067.33244  23548138.0314                   23548137.3914
 -16386249.60547 -12751200.19145  22113422.1484                   22113419.4454
  -9449620.57047  -7349572.82043  24092291.3364                   24092290.5474
  -5418007.48846  -3500039.64543  23786615.4384                   23786615.2274
 11  7 24  2  8  0.0000000  0  9G10G17G02G04G12G09G05G25G27
 -21549925.27348 -15614414.84446  20788078.3594                   20788075.5274
  -1750993.71547   -506187.78144  23057122.6484                   23057119.5434
 -21046778.53148 -16224921.93746  20459561.1484                   20459555.4384
 -11302388.41448  -8529617.81645  21413323.0554                   21413320.4774
 -18321447.29348 -14259225.09446  21310749.6804                   21310746.0124
  -1432133.87547  -1095197.86744  23570573.3284                   23570573.3594
 -16442543.60247 -12795065.58645  22102709.5554                   22102707.1724
  -9512106.94147  -7398263.43743  24080399.8674                   24080399.8094
  -5315544.91046  -3420198.71543  23806114.1334                   23806114.0394
 11  7 24  2  8 30.0000000  0  9G10G17G02G04G12G09G05G25G27
 -21522014.10948 -15592665.85246  20793390.0164                   20793386.7384
  -1657759.89847   -433538.02044  23074864.8984                   23074861.5634
 -21012313.70748 -16198066.21546  20466119.6024                   20466113.9024
 -11189829.12948  -8441909.27345  21434742.3594                   21434739.6454
 -18342564.54748 -14275680.05946  21306731.0474                   21306727.5044
  -1314043.18947  -1003179.19144  23593045.4924                   23593045.1024
 -16498550.15647 -12838707.00445  22092051.9774                   22092049.2934
  -9574410.76247  -7446811.80143  24068544.6724                   24068543.6644
  -5212988.63346  -3340284.75843  23825629.2814                   23825629.9104
 11  7 24  2  9  0.0000000  0  9G10G17G02G04G12G09G05G25G27
 -21493461.14148 -15570416.75846  20798823.2664                   20798820.0124
  -1564358.22347   -360757.47344  23092639.2034                   23092635.3674
 -20977529.05548 -16170961.28146  20472738.7274                   20472733.1954
 -11077086.90247  -8354058.16445  21456196.5084                   21456193.8794
 -18363234.26248 -14291786.30146  21302797.9144                   21302794.2814
  -1195765.72347   -911014.99244  23615553.1334                   23615552.4414
 -16554267.78948 -12882123.30145  22081449.6024                   22081446.4774
  -9636530.77347  -7495216.89143  24056722.8594                   24056723.7034
  -5110342.77746  -3260301.05543  23845162.3284                   23845162.3014
 11  7 24  2  9 30.0000000  0  9G10G17G02G04G12G09G05G25G27
 -21464264.44148 -15547666.05946  20804379.3594                   20804375.9654
  -1470787.00047   -287844.79344  23110444.7034                   23110440.8284
 -20942424.12548 -16143606.77346  20479419.0634                   20479413.8094
 -10964162.74248  -8266065.30545  21477685.4384                   21477682.4964
 -18383453.04748 -14307541.16846  21298950.4384                   21298946.3674
  -1077303.44846   -818706.77844  23638096.0004                   23638094.8444
 -16609692.48847 -12925311.34845  22070902.7274                   22070899.6134
  -9698463.09847  -7543475.71143  24044937.8204                   24044936.8594
  -5007608.93046  -3180248.76243  23864712.4774                   23864712.2384
 11  7 24  2 10  0.0000000  0  9G10G17G02G04G12G09G05G25G27
 -21434417.68748 -15524408.82446  20810058.8364                   20810055.2774
  -1377039.77047   -214795.00044  23128284.3754                   23128280.9224
 -20906994.30548 -16115999.10946  20486161.3134                   20486155.7424
 -10851052.89847  -8177927.75045  21499209.4614                   21499207.0514
 -18403212.75048 -14322938.30946  21295189.9694                   21295186.4064
   -958653.94147   -726252.67644  23660674.1484                   23660673.6374
 -16664815.44148 -12968264.24245  22060412.9534                   22060410.0124
  -9760199.45347  -7591581.86343  24033189.1094                   24033188.9924
  -4904784.38346  -3100125.82843  23884279.3524                   23884279.2114
 11  7 24  2 10 30.0000000  0  9G10G17G02G04G12G09G05G25G27
 -21403922.60548 -15500646.38746  20815862.1804                   20815858.4574
  -1283118.90647   -141609.86744  23146156.1564                   23146153.4384
 -20871242.92248 -16088140.87146  20492964.3134                   20492959.0394
 -10737761.94547  -8089649.07445  21520768.1174                   21520765.5274
 -18422513.88748 -14337978.14546  21291517.2974                   21291513.4414
   -839823.33246   -633657.45744  23683287.1414                   23683286.2664
 -16719636.51247 -13010981.91046  22049980.9224                   22049978.2194
  -9821739.82447  -7639535.30543  24021478.8594                   24021477.6484
  -4801874.14546  -3019936.05543  23903862.0234                   23903862.6644
 11  7 24  2 11  0.0000000  0  9G10G17G02G04G12G09G05G25G27
 -21372785.28548 -15476383.51246  20821786.7814                   20821783.7464
  -1189030.36747    -68294.09044  23164061.3524                   23164057.5434
 -20835177.51648 -16060037.93746  20499827.4774                   20499822.1174
 -10624298.27748  -8001235.80545  21542359.7344                   21542357.2544
 -18441360.56248 -14352663.82446  21287930.4844                   21287927.0004
   -720821.67646   -540928.96944  23705931.5944                   23705931.4574
 -16774158.96147 -13053466.87546  22039605.2584                   22039602.3014
  -9883087.87947  -7687338.82444  24009804.5864                   24009804.8754
  -4698887.18846  -2939686.55143  23923460.0944                   23923460.1174
 11  7 24  2 11 30.0000000  0  9G10G17G02G04G12G09G05G25G27
 -21341003.55548 -15451618.51246  20827834.9924                   20827831.9924
  -1094772.11347      5153.94544  23181997.9774                   23181994.2624
 -20798797.54748 -16031689.89846  20506750.4694                   20506744.5744
 -10510662.13348  -7912688.14145  21563983.8594                   21563980.9414
 -18459748.55148 -14366992.10546  21284431.7194                   21284428.2464
   -601650.36747   -448068.24244  23728610.0634                   23728609.0514
 -16828378.17647 -13095715.55546  22029288.0234                   22029284.7464
  -9944239.30147  -7734989.16843  23998167.2974                   23998166.8404
  -4595824.64146  -2859378.14143  23943072.2584                   23943072.5664
 11  7 24  2 12  0.0000000  0  9G10G17G02G04G12G09G05G25G27
 -21308577.85148 -15426351.70046  20834005.3284                   20834002.1214
  -1000344.32647     78734.05244  23199966.8524                   23199964.0664
 -20762104.96448 -16003098.27246  20513732.8754                   20513727.5164
 -10396856.74648  -7824008.61245  21585639.8834                   21585637.3404
 -18477676.72948 -14380962.09246  21281020.0864                   21281016.3794
   -482314.00647   -355078.92844  23751319.4224                   23751318.0784
 -16882292.33147 -13137726.54445  22019028.0704                   22019025.5514
 -10005192.53747  -7782485.11144  23986568.5084                   23986568.2114
  -4492690.29646  -2779013.74543  23962698.1724                   23962698.1914
 11  7 24  2 12 30.0000000  0  9G10G17G02G04G12G09G05G25G27
 -21275502.59847 -15400578.75446  20840298.9844                   20840295.9224
   -905741.71547    152450.40245  23217969.4454                   23217965.6524
 -20725095.79348 -15974259.94146  20520775.2584                   20520769.8484
 -10282878.92247  -7735194.72345  21607329.3134                   21607326.4924
 -18495137.97348 -14394568.23446  21277697.0784                   21277693.4614
   -362810.95746   -261959.73444  23774059.1414                   23774058.9104
 -16935893.73447 -13179493.81246  22008827.8594                   22008825.4694
 -10065940.09447  -7829820.75043  23975008.2194                   23975008.1684
  -4389482.06346  -2698591.81643  23982338.0474                   23982338.0234
 11  7 24  2 13  0.0000000  0  9G10G17G02G04G12G09G05G25G27
 -21241787.77747 -15374307.44146  20846714.8754                   20846711.9184
   -810973.71147    226295.62544  23236002.4924                   23235999.4494
 -20687781.23048 -15945183.65246  20527876.2194                   20527870.3754
 -10168740.83648  -7646255.94545  21629049.2114                   21629046.3554
 -18512139.88748 -14407816.44946  21274461.9144                   21274458.4964
   -243154.29046   -168720.79643  23796828.8674                   23796829.0004
 -16989189.04347 -13221022.57446  21998686.4924                   21998683.2504
 -10126489.19947  -7877001.76644  23963484.9774                   23963486.5394
  -4286212.51246  -2618122.11743  24001990.5944                   24001989.6604
 11  7 24  2 13 30.0000000  0  9G10G17G02G04G12G09G05G25G27
 -21207427.62347 -15347533.27146  20853253.6024                   20853250.3554
   -716035.25847    300273.66445  23254068.8364                   23254065.9024
 -20650157.33248 -15915866.32046  20535035.4224                   20535029.6954
 -10054439.36148  -7557189.84445  21650799.8914                   21650796.9924
 -18528675.45748 -14420701.28546  21271315.7114                   21271311.7664
   -123342.92646    -75361.35943  23819628.1024                   23819628.2974
 -17042170.63347 -13262306.88346  21988604.1414                   21988601.3914
 -10186832.44146  -7924022.34444  23952002.5164                   23952004.1414
  -4182879.52447  -2537602.94143  24021653.9924                   24021653.9414
 11  7 24  2 14  0.0000000  0  9G10G17G02G04G12G09G05G25G27
 -21172423.55548 -15320257.34846  20859914.6724                   20859911.4184
   -620927.50447    374383.63744  23272167.1954                   23272163.7854
 -20612226.85548 -15886310.09446  20542253.7894                   20542247.9344
  -9939978.23448  -7467999.35945  21672581.3054                   21672578.2074
 -18544744.06648 -14433222.25446  21268257.3364                   21268253.4734
     -3381.78947     18114.81644  23842457.0554                   23842455.5634
 -17094837.44147 -13303345.89846  21978581.2194                   21978579.5704
 -10246968.68047  -7970881.67244  23940559.9304                   23940559.5124
  -4079487.63746  -2457037.86743  24041328.8054                   24041328.6294
 11  7 24  2 14 30.0000000  0  9G10G17G02G04G12G09G05G25G27
 -21136764.09448 -15292470.72346  20866700.5784                   20866697.0004
   -525638.64147    448634.72344  23290300.0864                   23290297.2154
 -20573979.46548 -15856506.93446  20549531.6484                   20549526.1414
  -9825348.22748  -7378677.25445  21694394.3364                   21694391.4964
 -18560332.53948 -14445369.08646  21265291.2194                   21265287.1174
    116737.07447    111713.88343  23865314.5314                   23865313.1804
 -17147175.35247 -13344128.62546  21968622.4064                   21968619.6174
 -10306884.06247  -8017568.92244  23929157.6484                   23929158.2734
  -3976028.15246  -2376420.11343  24061016.4534                   24061017.2584
 11  7 24  2 15  0.0000000  0  9G10G17G02G04G12G09G05G25G27
 -21100459.38348 -15264181.30546  20873608.6954                   20873605.4144
   -430178.56347    523019.23044  23308465.6564                   23308462.4654
 -20535426.62148 -15826465.74246  20556868.2034                   20556862.2854
  -9710561.44148  -7289232.98845  21716237.6414                   21716234.8164
 -18575448.96148 -14457148.09046  21262414.3984                   21262410.6564
    237000.11747    205425.27043  23888200.4384                   23888199.0044
 -17199191.77047 -13384660.85546  21958723.8204                   21958721.4344
 -10366586.31247  -8064090.10244  23917797.0784                   23917797.8014
  -3872514.32446  -2295760.05943  24080714.3594                   24080714.4654
 11  7 24  2 15 30.0000000  0  9G10G17G02G04G12G09G05G25G27
 -21063508.85947 -15235388.67246  20880640.1564                   20880637.2974
   -334546.87947    597537.45745  23326663.7504                   23326660.2934
 -20496569.45748 -15796187.42246  20564262.0314                   20564256.8164
  -9595619.85548  -7199668.11345  21738110.2274                   21738107.5984
 -18590090.98848 -14468557.42646  21259628.1564                   21259624.5314
    357403.89547    299246.36743  23911112.1414                   23911111.4344
 -17250884.06647 -13424940.52046  21948887.2274                   21948885.1564
 -10426072.71947  -8110443.12144  23906476.1414                   23906477.6804
  -3768948.69546  -2215059.66043  24100422.0314                   24100422.7624
 11  7 24  2 16  0.0000000  0  9G10G17G02G04G12G09G05G25G27
 -21025907.41448 -15206088.80946  20887795.7194                   20887792.3834
   -238738.37547    672193.44544  23344895.4694                   23344892.3404
 -20457404.12148 -15765668.96946  20571715.3524                   20571709.7894
  -9480520.73048  -7109980.47345  21760012.9454                   21760010.0354
 -18604251.88348 -14479591.85246  21256933.5474                   21256929.5594
    477949.66047    393178.09844  23934051.2114                   23934050.5354
 -17302244.22747 -13464961.37146  21939113.7424                   21939111.1604
 -10485336.00047  -8156622.28944  23895199.8204                   23895199.9844
  -3665329.36346  -2134317.35243  24120140.7424                   24120140.5004
 11  7 24  2 16 30.0000000  0  9G10G17G02G04G12G09G05G25G27
 -20987658.60548 -15176284.51646  20895073.6414                   20895070.3554
   -142755.98047    746984.93044  23363160.2894                   23363157.0634
 -20417935.19548 -15734913.94546  20579226.2814                   20579220.7234
  -9365269.73848  -7020174.48445  21781944.6094                   21781941.5824
 -18617932.77748 -14490252.26246  21254330.2274                   21254325.9384
    598630.66447    487215.21544  23957016.0784                   23957015.0634
 -17353272.85547 -13504723.89546  21929403.1334                   21929400.1724
 -10544376.86747  -8202628.13743  23883964.6334                   23883964.3714
  -3561662.60246  -2053538.06243  24139866.8284                   24139868.1294
 11  7 24  2 17  0.0000000  0  9G10G17G02G04G12G09G05G25G27
 -20948758.10948 -15145972.41446  20902476.5394                   20902473.2624
    -46595.24246    821915.35944  23381458.2734                   23381456.0864
 -20378159.71148 -15703920.04746  20586794.7504                   20586789.7424
  -9249864.06648  -6930247.97345  21803905.3524                   21803902.5354
 -18631127.21548 -14500533.61746  21251819.3444                   21251815.4224
    719447.72747    581358.29744  23980006.8134                   23980006.8284
 -17403962.69148 -13544222.42646  21919757.2424                   21919754.5944
 -10603188.31247  -8248455.27343  23872773.0164                   23872772.4614
  -3457946.62146  -1972720.45743  24159603.3524                   24159604.5944
 11  7 24  2 17 30.0000000  0  9G10G17G02G04G12G09G05G25G27
 -20909213.10247 -15115158.09846  20910001.5004                   20909997.9224
     49736.83646    896979.32844  23399790.1024                   23399787.1844
 -20338086.09848 -15672693.83646  20594420.6254                   20594415.2894
  -9134313.34748  -6840208.43545  21825893.7194                   21825891.3014
 -18643840.87548 -14510440.33246  21249399.7974                   21249395.9804
    840389.99647    675599.00444  24003021.9454                   24003020.6724
 -17454319.18747 -13583461.19946  21910174.2974                   21910172.0434
 -10661775.26147  -8294107.46243  23861624.2504                   23861623.3444
  -3354191.81346  -1891872.63343  24179347.1724                   24179348.0904
 11  7 24  2 18  0.0000000  0  9G10G17G02G04G12G09G05G25G27
 -20869026.50048 -15083843.84446  20917648.9144                   20917645.6844
    146237.62947    972174.74644  23418153.9144                   23418151.0824
 -20297719.02348 -15641238.95746  20602102.1334                   20602096.8524
  -9018622.84448  -6750059.98845  21847909.3134                   21847906.6724
 -18656074.79348 -14519973.22746  21247071.6414                   21247067.7814
    961450.68447    769931.92243  24026058.4844                   24026058.3794
 -17504342.21147 -13622440.13746  21900655.3914                   21900652.5124
 -10720138.41047  -8339585.24243  23850518.5314                   23850517.8054
  -3250404.21146  -1810999.19543  24199097.7114                   24199098.3984
 11  7 24  2 18 30.0000000  0  9G10G17G02G04G12G09G05G25G27
 -20828190.48848 -15052023.55146  20925419.6884                   20925416.2384
    242915.40247   1047508.07044  23436550.3914                   23436548.3524
 -20257050.93748 -15609549.52746  20609841.1174                   20609835.4774
  -8902786.27748  -6659797.71545  21869951.9144                   21869949.3364
 -18667818.80948 -14529124.38346  21244837.0704                   21244833.3594
   1082634.66046    864360.98443  24049118.6024                   24049117.9734
 -17554021.02047 -13661150.83646  21891201.9534                   21891198.6054
 -10778266.83647  -8384880.12144  23839456.6644                   23839456.6954
  -3146578.51646  -1730096.16443  24218856.1884                   24218856.1254
 11  7 24  2 19  0.0000000  0  9G10G17G02G04G12G09G05G25G27
 -20786702.74648 -15019695.42246  20933314.6804                   20933311.3014
    339772.41446   1122981.07044  23454982.7344                   23454978.7384
 -20216081.20748 -15577625.04746  20617637.4454                   20617631.6174
  -8786803.55548  -6569421.56645  21892023.0394                   21892020.0354
 -18679068.98048 -14537890.72346  21242695.5864                   21242691.9614
   1203940.46546    958884.91443  24072201.9224                   24072201.7894
 -17603350.85947 -13699589.62146  21881814.4064                   21881812.1724
 -10836156.10247  -8429988.59444  23828440.6094                   23828441.5124
  -3042715.34446  -1649163.95343  24238619.5704                   24238621.3954
 11  7 24  2 19 30.0000000  0  9G10G17G02G04G12G09G05G25G27
 -20744573.25048 -14986867.23046  20941331.4064                   20941328.2344
    436799.15247   1198586.27344  23473446.0634                   23473442.4414
 -20174820.84448 -15545474.09846  20625488.9144                   20625482.9064
  -8670686.56248  -6478940.78545  21914119.1174                   21914116.4304
 -18689833.20348 -14546278.40246  21240647.3754                   21240643.6914
   1325354.87146   1053493.50844  24095306.7974                   24095307.2544
 -17652338.62147 -13737761.85246  21872492.4694                   21872489.4024
 -10893813.37547  -8474916.29344  23817468.8524                   23817468.9884
  -2938827.27746  -1568212.21943  24258389.7114                   24258390.0234
 11  7 24  2 20  0.0000000  0  9G10G17G02G04G12G09G05G25G27
 -20701794.00448 -14953532.72746  20949472.0634                   20949468.9384
    534004.28146   1274330.50844  23491942.9144                   23491940.4144
 -20133262.87548 -15513091.25046  20633397.1334                   20633391.3834
  -8554429.05948  -6388350.52045  21936242.4144                   21936239.5434
 -18700101.24248 -14554279.43746  21238693.7814                   21238689.8404
   1446882.89547   1148190.60544  24118433.3594                   24118433.1214
 -17700973.52347 -13775659.11346  21863237.9924                   21863234.6334
 -10951227.91047  -8519654.85544  23806542.5864                   23806543.2774
  -2834909.10246  -1487237.06243  24278164.5864                   24278165.2974
 11  7 24  2 20 30.0000000  0  9G10G17G02G04G12G09G05G25G27
 -20658370.02347 -14919695.85246  20957735.5554                   20957731.8444
    631383.15246   1350210.14144  23510473.5314                   23510470.3054
 -20091413.55548 -15480481.37946  20641361.0634                   20641355.1134
  -8438037.87048  -6297656.07245  21958390.7504                   21958388.1994
 -18709876.02348 -14561896.11646  21236833.7194                   21236829.4184
   1568515.99247   1242969.59844  24141578.9384                   24141578.9614
 -17749257.96948 -13813283.30146  21854049.2584                   21854046.7624
 -11008401.99647  -8564206.01244  23795663.6094                   23795662.9884
  -2730968.32446  -1406244.34443  24297945.1884                   24297944.1804
 11  7 24  2 21  0.0000000  0  9G10G17G02G04G12G09G05G25G27
 -20614304.60548 -14885359.15646  20966120.8284                   20966117.4224
    728932.91447   1426222.91844  23529037.4774                   23529033.6644
 -20049276.96548 -15447647.65246  20649379.0784                   20649373.1414
  -8321518.07448  -6206861.44145  21980564.2974                   21980560.7424
 -18719158.78948 -14569129.41846  21235066.9224                   21235063.2544
   1690247.68046   1337825.39843  24164744.0784                   24164744.0434
 -17797192.24248 -13850634.64146  21844927.9844                   21844924.6214
 -11065336.12547  -8608570.21543  23784828.1724                   23784829.2114
  -2627010.96546  -1325238.68743  24317726.0784                   24317725.8404
 11  7 24  2 21 30.0000000  0  9G10G17G02G04G12G09G05G25G27
 -20569592.10548 -14850518.23046  20974629.7344                   20974626.4614
    826659.60247   1502373.58244  23547634.0314                   23547630.3834
 -20006849.08248 -15414586.94946  20657452.8754                   20657447.1094
  -8204866.09848  -6115963.79345  22002761.4924                   22002759.0394
 -18727942.10948 -14575973.52346  21233395.2344                   21233391.7974
   1812080.12546   1432759.69543  24187927.4064                   24187927.5864
 -17844768.08247 -13887706.67246  21835874.0944                   21835871.1604
 -11122022.12147  -8652741.03944  23774041.6564                   23774042.2274
  -2523034.27045  -1244218.00043  24337511.9384                   24337512.2544
 11  7 24  2 22  0.0000000  0  9G10G17G02G04G12G09G05G25G27
 -20524234.38048 -14815174.53846  20983260.9614                   20983257.2624
    924561.94947   1578661.09444  23566264.1564                   23566260.5984
 -19964132.07448 -15381300.95346  20665581.6414                   20665576.0824
  -8088085.18447  -6024965.68445  22024984.5164                   22024982.0824
 -18736225.19848 -14582427.84546  21231819.4454                   21231815.3914
   1934008.26246   1527768.59043  24211130.2584                   24211129.0394
 -17891984.11747 -13924498.32446  21826889.4304                   21826886.5004
 -11178458.90647  -8696717.69044  23763302.5164                   23763302.7344
  -2419042.46145  -1163185.55943  24357301.2034                   24357302.2854
 11  7 24  2 22 30.0000000  0  9G10G17G02G04G12G09G05G25G27
 -20478228.16848 -14779325.51646  20992015.0864                   20992011.5664
   1022643.50047   1655088.26244  23584927.5314                   23584925.3594
 -19921124.05548 -15347788.18046  20673765.8834                   20673760.3484
  -7971173.95748  -5933866.03145  22047232.0944                   22047229.4614
 -18744003.42248 -14588488.76646  21230339.0554                   21230335.3444
   2056032.30146   1622852.12144  24234351.2194                   24234350.3484
 -17938834.46547 -13961005.05946  21817973.9694                   21817971.0744
 -11234640.60247  -8740495.51244  23752611.3984                   23752611.7344
  -2315034.63345  -1082140.62943  24377093.4614                   24377094.3984
 11  7 24  2 23  0.0000000  0  9G10G17G02G04G12G09G05G25G27
 -20431571.87547 -14742969.94946  21000893.6174                   21000890.4614
   1120906.69147   1731656.96544  23603627.0784                   23603623.8524
 -19877824.09048 -15314047.93046  20682005.3754                   20682000.0904
  -7854132.38348  -5842664.82045  22069504.2584                   22069502.0704
 -18751272.75448 -14594153.14546  21228955.7344                   21228952.2774
   2178150.78546   1718009.23443  24257589.6954                   24257588.7664
 -17985314.77748 -13997223.43746  21809129.0394                   21809125.6174
 -11290562.46947  -8784070.90644  23741970.0314                   23741969.7774
  -2211011.97746  -1001084.06643  24396888.6644                   24396889.5704
 11  7 24  2 23 30.0000000  0  9G10G17G02G04G12G09G05G25G27
 -20384270.58647 -14706111.79746  21009894.9534                   21009891.6454
   1219346.75847   1808363.49644  23622359.6024                   23622356.4924
 -19834238.33648 -15280084.99247  20690299.6954                   20690294.0744
  -7736967.18848  -5751367.27745  22091800.4534                   22091797.4964
 -18758036.07048 -14599423.23046  21227669.1094                   21227665.4884
   2300355.43446   1813233.62144  24280843.7814                   24280843.8094
 -18031426.78548 -14033154.82446  21800354.0474                   21800351.1454
 -11346226.89147  -8827445.64844  23731377.3284                   23731376.9454
  -2106981.98746   -920021.84143  24416685.0084                   24416685.9024
 11  7 24  2 24  0.0000000  0  9G10G17G02G04G12G09G05G25G27
 -20336328.80548 -14668754.55146  21019017.6724                   21019014.3674
   1317960.01247   1885204.98044  23641125.7894                   23641122.2304
 -19790372.12148 -15245903.51246  20698647.4774                   20698641.3164
  -7619684.30947  -5659978.02745  22114118.2814                   22114115.6024
 -18764295.46148 -14604300.64146  21226477.7584                   21226474.0234
   2422638.68446   1908519.15243  24304114.0554                   24304113.6294
 -18077172.07848 -14068800.46546  21791649.3204                   21791646.3014
 -11401635.35547  -8870620.89544  23720832.5864                   23720832.7704
  -2002951.39146   -838959.13343  24436481.9614                   24436482.2114
 11  7 24  2 24 30.0000000  0  9G10G17G02G04G12G09G05G25G27
 -20287743.59848 -14630895.93446  21028262.9924                   21028259.6564
   1416749.59447   1962183.87544  23659924.8444                   23659921.6884
 -19746223.60248 -15211502.05146  20707048.4384                   20707042.8284
  -7502282.46547  -5568496.07045  22136458.7114                   22136456.3164
 -18770045.75048 -14608781.35946  21225383.1644                   21225379.6024
   2545000.00046   2003865.60943  24327398.2734                   24327398.3094
 -18122544.94548 -14104155.90246  21783014.8364                   21783011.8754
 -11456782.20747  -8913592.29744  23710338.2814                   23710338.6914
  -1898919.86747   -757895.62943  24456278.3984                   24456278.3364
 11  7 24  2 25  0.0000000  0  9G10G17G02G04G12G09G05G25G27
 -20238514.07448 -14592535.27046  21037631.6334                   21037628.2194
   1515717.28547   2039301.54344  23678757.8984                   23678754.3834
 -19701792.63348 -15176880.50446  20715503.1884                   20715497.4264
  -7384762.37947  -5476921.98445  22158822.6174                   22158819.5354
 -18775284.79748 -14612863.71146  21224386.5704                   21224382.2544
   2667437.60247   2099271.43844  24350698.1094                   24350697.3324
 -18167541.57048 -14139218.17646  21774452.2114                   21774449.4534
 -11511663.50447  -8956356.80944  23699894.6884                   23699895.4024
  -1794888.90146   -676832.61443  24476074.8984                   24476075.2704
 11  7 24  2 25 30.0000000  0  9G10G17G02G04G12G09G05G25G27
 -21764061.87848 -15781273.81446  20747329.5004                   20747326.1684
     39443.89147    888958.62944  23397832.5864                   23397828.9574
 -21232501.68548 -16369640.79346  20424218.8284                   20424213.1214
  -8842544.87647  -6612856.39645  21881415.4224                   21881412.7504
 -20355433.51048 -15844148.39446  20923693.9924                   20923690.5354
   1214529.38947    967135.11143  24074219.1414                   24074217.7114
 -19787583.76148 -15401588.65646  21466168.4224                   21466165.2734
 -13141701.38747 -10226516.02044  23389709.5474                   23389708.9694
  -3266280.72846  -1823371.71343  24196078.5864                   24196078.1604
 11  7 24  2 26  0.0000000  0  9G10G17G02G04G12G09G05G25G27
 -21713543.02748 -15741908.46546  20756942.6174                   20756939.1174
    138770.72747    966356.15644  23416733.3134                   23416730.6454
 -21187507.52348 -16334580.37946  20432780.8364                   20432775.3754
  -8724791.78147  -6521100.74245  21903823.9144                   21903820.7974
 -20359642.10248 -15847427.78546  20922893.4614                   20922889.4804
   1337111.51247   1062653.59043  24097545.4304                   24097545.3554
 -19831818.13348 -15436056.97346  21457750.6094                   21457747.9104
 -13196041.95747 -10268859.18444  23379368.0474                   23379368.0784
  -3162257.55946  -1742314.70343  24215872.0784                   24215873.9964
 11  7 24  2 26 30.0000000  0  9G10G17G02G04G12G09G05G25G27
 -21662381.26248 -15702042.14146  20766678.4614                   20766675.1414
    238276.49247   1043893.13345  23435668.5784                   23435665.5514
 -21142234.26648 -16299302.50046  20441396.3134                   20441390.6914
  -8606925.87147  -6429257.17245  21926252.6094                   21926250.2114
 -20363333.24648 -15850303.98846  20922190.9694                   20922186.5474
   1459760.22746   1158223.99643  24120884.8134                   24120884.3244
 -19875668.17248 -15470225.77746  21449406.4614                   21449403.6094
 -13250109.00847 -10310989.28943  23369079.3204                   23369078.8674
  -3058243.14846  -1661264.50043  24235666.2274                   24235666.1954
 11  7 24  2 27  0.0000000  0  9G10G17G02G04G12G09G05G25G27
 -21610580.60948 -15661677.98446  20776535.8834                   20776532.3484
    337957.82847   1121566.89144  23454638.1884                   23454634.2194
 -21096686.97748 -16263811.08646  20450063.6644                   20450058.0784
  -8488952.36747  -6337329.77345  21948701.7274                   21948699.0664
 -20366508.85948 -15852778.46946  20921586.5394                   20921582.7854
   1582468.28546   1253840.60943  24144235.0864                   24144234.8674
 -19919134.80548 -15504095.85946  21441135.0164                   21441131.9694
 -13303903.64147 -10352907.11744  23358842.0704                   23358841.6764
  -2954243.70345  -1580226.12942  24255455.8054                   24255457.6294
 11  7 24  2 27 30.0000000  0  9G10G17G02G04G12G09G05G25G27
 -21558140.44948 -15620815.50446  20786514.7894                   20786511.4224
    437816.25847   1199378.64844  23473639.4384                   23473636.4574
 -21050865.74248 -16228106.19946  20458782.9384                   20458777.4184
  -8370872.27047  -6245319.30945  21971171.7894                   21971169.5474
 -20369166.52048 -15854849.36346  20921080.7274                   20921077.0204
   1705233.28146   1349501.55543  24167596.4924                   24167596.6994
 -19962214.76248 -15537664.60546  21432937.3754                   21432935.0004
 -13357422.21147 -10394609.81244  23348658.3914                   23348657.7624
  -2850261.03145  -1499200.81342  24275244.2344                   24275245.0704
 11  7 24  2 28  0.0000000  0  9G10G17G02G04G12G09G05G25G27
 -21505062.08248 -15579455.72746  20796614.9144                   20796611.8914
    537850.84047   1277327.66044  23492675.8754                   23492672.8134
 -21004772.65248 -16192189.49646  20467554.2814                   20467548.6524
  -8252688.44947  -6153228.01245  21993661.6334                   21993658.7544
 -20371305.32048 -15856515.94946  20920673.8054                   20920669.8554
   1828050.96146   1445203.59443  24190968.3674                   24190967.9574
 -20004906.39548 -15570930.77046  21424813.2114                   21424810.1604
 -13410663.22347 -10436096.19944  23338526.5944                   23338526.5274
  -2746298.93846  -1418191.52042  24295027.2734                   24295028.5004
 11  7 24  2 28 30.0000000  0  9G10G17G02G04G12G09G05G25G27
 -21451338.69948 -15537593.32046  20806838.3364                   20806835.0634
    638069.62147   1355420.20744  23511746.1954                   23511743.6484
 -20958401.09848 -16156055.79746  20476378.4614                   20476372.4694
  -8134394.64547  -6061050.99645  22016172.2114                   22016169.3054
 -20372915.70748 -15857770.77746  20920367.2814                   20920363.5434
   1950925.86346   1540950.18043  24214351.3594                   24214349.5474
 -20047199.04748 -15603886.03146  21416765.2344                   21416762.2274
 -13463616.03947 -10477358.02044  23328449.7194                   23328450.5944
  -2642352.02346  -1337194.01242  24314807.5864                   24314808.4844
 11  7 24  2 29  0.0000000  0  9G10G17G02G04G12G09G05G25G27
 -21396984.71148 -15495239.54346  20817181.9224                   20817178.3404
    738458.46946   1433645.27744  23530849.3444                   23530847.7934
 -20911766.71948 -16119717.29346  20485252.4304                   20485246.5944
  -8016006.92647  -5968800.82445  22038701.1954                   22038697.4654
 -20374010.39848 -15858623.77746  20920159.1174                   20920154.9844
   2073840.66846   1636727.88343  24237740.7274                   24237739.4384
 -20089104.32848 -15636539.44946  21408790.7424                   21408787.5784
 -13516292.26647 -10518404.37544  23318426.4694                   23318426.7584
  -2538437.44146  -1256221.71143  24334583.3524                   24334583.1174
 11  7 24  2 29 30.0000000  0  9G10G17G02G04G12G09G05G25G27
 -21341985.95348 -15452383.35546  20827647.6724                   20827644.4804
    839032.59846   1512014.72744  23549988.7894                   23549985.6804
 -20864855.73448 -16083163.25846  20494179.3364                   20494173.6604
  -7897512.28947  -5876467.32445  22061249.6414                   22061245.8134
 -20374572.52048 -15859061.78546  20920052.4454                   20920048.1174
   2196807.04746   1732545.69943  24261139.8444                   24261140.3674
 -20130604.98048 -15668877.57046  21400893.6024                   21400890.5004
 -13568674.53947 -10559221.64545  23308457.8204                   23308458.5664
  -2434543.05946  -1175265.14543  24354353.8364                   24354353.8324
 11  7 24  2 30  0.0000000  0  9G10G17G02G04G12G09G05G25G27
 -21286352.46548 -15409032.56246  20838234.3054                   20838230.8094
    939783.48846   1590521.89144  23569161.0474                   23569157.7274
 -20817678.53548 -16046401.78946  20503156.9924                   20503150.8914
  -7778921.46147  -5784058.88745  22083816.6254                   22083813.8364
 -20374610.19148 -15859091.12146  20920044.6414                   20920040.9924
   2319812.19946   1828393.83243  24284547.5864                   24284547.2424
 -20171707.76248 -15700905.66046  21393072.0314                   21393068.5124
 -13620769.35947 -10599814.95344  23298544.8674                   23298543.9414
  -2330680.51646  -1094333.38743  24374117.3134                   24374117.7384
 11  7 24  2 30 30.0000000  0  9G10G17G02G04G12G09G05G25G27
 -21230080.51648 -15365184.27046  20848942.1954                   20848938.8674
   1040715.32846   1669170.06244  23588367.1094                   23588364.0124
 -20770231.91048 -16009430.38346  20512185.8364                   20512179.9694
  -7660231.88347  -5691573.49645  22106402.3754                   22106399.7034
 -20374117.12148 -15858706.89146  20920138.6174                   20920134.2624
   2442857.27046   1924273.08643  24307961.3914                   24307961.4024
 -20212405.89548 -15732618.44546  21385327.1884                   21385324.0594
 -13672569.71947 -10640178.82444  23288687.9614                   23288687.3634
  -2226848.10546  -1013425.09442  24393875.5944                   24393877.1764
 11  7 24  2 31  0.0000000  0  9G10G17G02G04G12G09G05G25G27
 -21173172.58248 -15320840.39846  20859771.8364                   20859768.4964
   1141826.82846   1747958.23044  23607608.0864                   23607606.4774
 -20722518.53548 -15972251.10946  20521265.2894                   20521259.7034
  -7541446.95347  -5599013.80145  22129006.2114                   22129003.7194
 -20373093.07048 -15857908.90646  20920333.3674                   20920329.4694
   2565937.42646   2020179.58643  24331383.8284                   24331383.3714
 -20252698.05148 -15764014.87546  21377659.9384                   21377656.6524
 -13724074.56347 -10680312.40644  23278886.6564                   23278885.7344
  -2123050.11746   -932543.67242  24413627.8984                   24413629.0274
 11  7 24  2 31 30.0000000  0  9G10G17G02G04G12G09G05G25G27
 -21115627.81648 -15276000.29746  20870722.0634                   20870718.6374
   1243119.64146   1826887.66444  23626883.4224                   23626880.9304
 -20674538.52748 -15934864.07046  20530395.4384                   20530390.0944
  -7422566.81347  -5506379.92645  22151628.6884                   22151626.0744
 -20371535.17648 -15856694.94146  20920630.2664                   20920626.1134
   2689050.92246   2116112.15643  24354810.8364                   24354810.3324
 -20292580.44148 -15795092.02746  21370070.3754                   21370067.2704
 -13775279.86347 -10720212.58644  23269142.0004                   23269141.7814
  -2019287.96146   -851690.09442  24433373.9304                   24433374.5704
 11  7 24  2 32  0.0000000  0  8G10G17G02G04G12G09G05G25
 -21057447.80948 -15230665.21546  20881793.5704                   20881790.0554
   1344592.89146   1905957.71544  23646193.4384                   23646191.2304
 -20626293.98448 -15897270.88746  20539576.3364                   20539570.7074
  -7303594.49647  -5413674.21945  22174267.9144                   22174265.4454
 -20369442.85248 -15855064.55146  20921028.3594                   20921024.1804
   2812193.12146   2212067.01243  24378243.8834                   24378243.9494
 -20332051.91048 -15825848.96146  21362559.3914                   21362556.5784
 -13826184.16047 -10759878.14544  23259455.0084                   23259455.0004
 11  7 24  2 32 30.0000000  0  8G10G17G02G04G12G09G05G25
 -20998637.02047 -15184838.59846  20892984.3594                   20892981.5704
   1446243.05547   1985165.63344  23665536.4454                   23665533.6684
 -20577789.84448 -15859475.43046  20548805.9614                   20548800.5514
  -7184535.23847  -5320900.77045  22196924.2974                   22196921.5044
 -20366818.23448 -15853019.37146  20921527.2114                   20921523.5824
   2935357.26646   2308038.94543  24401682.8674                   24401681.7894
 -20371113.23848 -15856286.32446  21355125.9144                   21355122.5354
 -13876788.48447 -10799310.00045  23249826.1254                   23249824.9654
 11  7 24  2 33  0.0000000  0  8G10G17G02G04G12G09G05G25
 -20939191.23848 -15138517.18746  20904296.5704                   20904293.1724
   1548075.57847   2064515.64844  23684915.0784                   23684912.1294
 -20529021.91848 -15821474.42646  20558086.8754                   20558080.9734
  -7065385.57447  -5228056.87545  22219598.1414                   22219595.1764
 -20363654.64548 -15850554.20746  20922129.6884                   20922125.6414
   3058545.72346   2404029.90643  24425123.9454                   24425123.9344
 -20409757.01648 -15886398.29346  21347772.3984                   21347769.5204
 -13927084.96147 -10838501.96145  23240254.7734                   23240254.9224
 11  7 24  2 33 30.0000000  0  8G10G17G02G04G12G09G05G25
 -20879116.08248 -15091705.35246  20915728.4614                   20915725.1914
   1650086.01247   2144004.27744  23704327.5944                   23704323.6994
 -20479996.28148 -15783272.61346  20567415.7274                   20567410.2344
  -6946152.02047  -5135147.61345  22242286.7274                   22242284.1454
 -20359955.27748 -15847671.56646  20922833.2734                   20922829.5234
   3181750.09046   2500033.23043  24448568.9614                   24448569.2114
 -20447985.62148 -15916186.78146  21340497.5314                   21340494.3594
 -13977075.85947 -10877455.81645  23230741.2584                   23230741.3714
 11  7 24  2 34  0.0000000  0  8G10G17G02G04G12G09G05G25
 -20818397.19948 -15044391.92246  20927283.2424                   20927279.6724
   1752289.98447   2223643.71544  23723775.9774                   23723773.2154
 -20430698.89548 -15744859.05146  20576796.8984                   20576791.4384
  -6826820.81647  -5042162.27045  22264995.0944                   22264992.8484
 -20355703.08248 -15844358.14146  20923642.9844                   20923638.8244
   3304982.28146   2596058.23844  24472019.1644                   24472019.8204
 -20485781.14547 -15945637.78946  21333305.5084                   21333302.2194
 -14026743.21147 -10916157.55545  23221290.2504                   23221289.3444
 11  7 24  2 34 30.0000000  0  8G10G17G02G04G12G09G05G25
 -20757045.94148 -14996585.72346  20938957.5554                   20938954.2814
   1854677.10247   2303425.85944  23743258.8754                   23743256.1024
 -20381141.30548 -15706242.72746  20586227.2344                   20586221.1564
  -6707403.93847  -4949110.16845  22287718.8134                   22287716.4844
 -20350907.57048 -15840621.35546  20924555.1174                   20924550.6414
   3428228.80546   2692094.42243  24495472.6254                   24495472.7854
 -20523151.53548 -15974757.52046  21326193.7424                   21326190.6524
 -14076094.83247 -10954613.23444  23211898.1254                   23211897.9924
 11  7 24  2 35  0.0000000  0  8G10G17G02G04G12G09G05G25
 -20695058.87548 -14948284.09446  20950753.5944                   20950750.2274
   1957251.46947   2383353.93044  23762778.9224                   23762776.0744
 -20331320.72348 -15667421.47346  20595707.4454                   20595702.0044
  -6587899.14147  -4855989.54345  22310460.2974                   22310457.5434
 -20345562.72748 -15836456.51646  20925572.5314                   20925568.1804
   3551490.76846   2788142.66444  24518928.5474                   24518928.6214
 -20560090.07848 -16003540.75846  21319164.6484                   21319161.6414
 -14125123.93047 -10992817.68044  23202567.9534                   23202568.2154
 11  7 24  2 35 30.0000000  0  8G10G17G02G04G12G09G05G25
 -20632433.24248 -14899484.87546  20962670.9384                   20962667.5314
   2060017.37147   2463431.25444  23782334.7344                   23782331.3094
 -20281234.45748 -15628393.19946  20605238.7734                   20605233.4064
  -6468304.04347  -4762798.53545  22333218.9144                   22333215.4414
 -20339663.52048 -15831859.69946  20926694.4924                   20926690.5474
   3674768.40646   2884203.03943  24542387.3754                   24542387.8284
 -20596590.87948 -16031982.88346  21312218.8134                   21312215.5634
 -14173824.16447 -11030765.87544  23193301.1174                   23193299.8134
 11  7 24  2 36  0.0000000  0  8G10G17G02G04G12G09G05G25
 -20569179.65648 -14850196.35246  20974707.2894                   20974704.5164
   2162965.21147   2543650.36344  23801924.9304                   23801921.1294
 -20230893.12548 -15589166.17246  20614818.1334                   20614812.4654
  -6348629.87947  -4669545.94145  22355992.0164                   22355989.1334
 -20333217.79348 -15826837.02746  20927921.6414                   20927917.4454
   3798049.33246   2980266.08643  24565846.6024                   24565846.3094
 -20632660.93048 -16060089.37546  21305355.0234                   21305351.9384
 -14222202.57847 -11068463.28144  23184095.0234                   23184093.7734
 11  7 24  2 36 30.0000000  0  8G10G17G02G04G12G09G05G25
 -20505297.71947 -14800418.20346  20986863.8594                   20986860.5434
   2266096.58647   2624012.47344  23821549.9384                   23821547.1094
 -20180296.96948 -15549740.58246  20624446.6724                   20624440.3594
  -6228877.23847  -4576232.18845  22378779.8444                   22378777.4304
 -20326222.81648 -15821386.37546  20929252.3674                   20929248.1724
   3921331.63346   3076330.08244  24589307.7664                   24589307.6054
 -20668296.74648 -16087857.49646  21298573.3754                   21298570.7114
 -14270255.19947 -11105906.84045  23174951.0314                   23174950.2194
 11  7 24  2 37  0.0000000  0  8G10G17G02G04G12G09G05G25
 -20440786.43447 -14750149.65246  20999139.8914                   20999136.9614
   2369413.64547   2704519.23843  23841210.4614                   23841207.2464
 -20129445.05948 -15510115.71146  20634123.2664                   20634117.6564
  -6109045.53147  -4482856.80145  22401583.5394                   22401580.6294
 -20318675.38348 -15815505.23046  20930688.7344                   20930684.7624
   4044614.01646   3172394.23843  24612766.1094                   24612767.7934
 -20703493.64848 -16115283.60546  21291875.6254                   21291872.8134
 -14317977.35247 -11143092.88345  23165869.8284                   23165869.5514
 11  7 24  2 37 30.0000000  0  8G10G17G02G04G12G09G05G25
 -20375658.42247 -14699400.53946  21011533.3204                   21011529.9264
   2472905.04747   2785161.91843  23860904.6094                   23860900.3524
 -20078349.91448 -15470301.29746  20643846.1954                   20643840.5314
  -5989147.82847  -4389430.03544  22424399.0234                   22424396.2544
 -20310585.98048 -15809201.77746  20932228.2274                   20932223.7464
   4167881.79346   3268447.05143  24636224.3754                   24636224.0124
 -20738260.73848 -16142374.80146  21285259.7584                   21285256.9384
 -14365377.86747 -11180028.30545  23156849.7734                   23156849.3364
 11  7 24  2 38  0.0000000  0  8G10G17G02G04G12G09G05G25
 -20309904.67248 -14648163.83246  21024045.8754                   21024042.6884
   2576581.00847   2865948.41843  23880632.5314                   23880629.7344
 -20027002.61348 -15430290.40646  20653617.5784                   20653611.8404
  -5869175.59447  -4295945.16845  22447229.0234                   22447226.3164
 -20301942.72348 -15802466.73846  20933872.6804                   20933868.6094
   4291141.87546   3364493.85243  24659679.8444                   24659679.8094
 -20772585.64848 -16169121.44546  21278728.0164                   21278724.9454
 -14412444.23047 -11216703.32044  23147892.4774                   23147892.2974
 11  7 24  2 38 30.0000000  0  8G10G17G02G04G12G09G05G25
 -20243532.06648 -14596444.90646  21036676.0704                   21036672.6174
   2680436.19547   2946874.53144  23900396.2114                   23900393.3094
 -19975410.25048 -15390088.56246  20663435.2194                   20663429.7424
  -5749136.00047  -4202407.79745  22470072.0474                   22470069.6174
 -20292749.92248 -15795303.50446  20935622.3364                   20935617.9184
   4414385.86247   3460528.09143  24683132.8444                   24683131.5704
 -20806471.91048 -16195526.27046  21272279.5864                   21272276.5904
 -14459179.40647 -11253120.24244  23138999.2584                   23138999.1994
 11  7 24  2 39  0.0000000  0  8G10G17G02G04G12G09G05G25
 -20176542.21547 -14544245.00046  21049423.8914                   21049420.4384
   2784469.96947   3027939.78144  23920193.0394                   23920190.0474
 -19923574.59048 -15349697.14146  20673299.5164                   20673294.0314
  -5629031.51647  -4108819.90244  22492926.8594                   22492923.9184
 -20283006.92648 -15787711.52346  20937476.3134                   20937472.0824
   4537609.58247   3556546.62543  24706581.0864                   24706580.3054
 -20839917.84048 -16221588.00446  21265915.0944                   21265911.9614
 -14505581.51247 -11289277.62944  23130169.6484                   23130169.3794
 11  7 24  2 39 30.0000000  0  8G10G17G02G04G12G09G05G25
 -20108925.48048 -14491556.62546  21062290.8134                   21062287.4224
   2888693.11347   3109152.63344  23940025.6644                   23940023.6334
 -19871486.09048 -15309108.68446  20683211.1804                   20683205.6294
  -5508852.99247  -4015174.29345  22515796.1954                   22515793.0594
 -20272701.80148 -15779681.53146  20939437.0554                   20939433.0004
   4660820.35547   3652555.01243  24730027.5234                   24730027.8834
 -20872910.37948 -16247296.42646  21259636.8834                   21259633.6954
 -14551637.28147 -11325165.18044  23121405.3134                   23121404.1914
 11  7 24  2 40  0.0000000  0  8G10G17G02G04G12G09G05G25
 -20040691.42248 -14438387.22346  21075275.7034                   21075272.0664
   2993097.48446   3190506.68444  23959893.9224                   23959891.4734
 -19819154.34048 -15268330.68746  20693169.8674                   20693164.0594
  -5388610.00847  -3921478.46545  22538678.2034                   22538674.7624
 -20261841.70748 -15771219.11346  20941503.6954                   20941499.8554
   4784006.89846   3748544.47343  24753469.6644                   24753468.8054
 -20905455.64548 -16272656.33246  21253443.3444                   21253440.5944
 -14597352.34047 -11360787.24645  23112706.3204                   23112705.0944
 11  7 24  2 40 30.0000000  0  8G10G17G02G04G12G09G05G25
 -19971844.12148 -14384739.97346  21088376.6174                   21088373.3594
   3097680.60546   3272000.03544  23979795.9614                   23979792.1214
 -19766583.11748 -15227366.08646  20703173.4384                   20703167.7814
  -5268306.86347  -3827735.69945  22561570.9534                   22561567.2154
 -20250427.92648 -15762325.23446  20943675.7894                   20943671.9734
   4907163.63746   3844510.72743  24776904.5634                   24776905.4144
 -20937553.64848 -16297667.71546  21247335.5004                   21247332.4804
 -14642726.92247 -11396143.96945  23104071.1884                   23104070.6254
 11  7 24  2 41  0.0000000  0  8G10G17G02G04G12G09G05G25
 -19902375.98848 -14330608.94146  21101596.0004                   21101592.3244
   3202451.08746   3353639.28444  23999731.4694                   23999729.7154
 -19713764.90648 -15186209.02046  20713224.5944                   20713218.8794
  -5147936.49647  -3733940.57845  22584476.1724                   22584472.9734
 -20238450.50448 -15752992.16446  20945954.9774                   20945950.6914
   5030295.88346   3940457.85243  24800336.2664                   24800337.3754
 -20969193.71548 -16322322.27046  21241314.6884                   21241311.1954
 -14687749.64147 -11431226.52745  23095503.6334                   23095503.4804
 11  7 24  2 41 30.0000000  0  8G10G17G02G04G12G09G05G25
 -19832293.09448 -14275998.89146  21114932.0634                   21114929.3094
   3307404.43746   3435421.09444  24019704.1644                   24019701.2074
 -19660705.55148 -15144864.05146  20723321.5164                   20723315.5704
  -5027505.06347  -3640097.89545  22607393.5314                   22607390.9454
 -20225912.59848 -15743222.34446  20948340.9384                   20948337.0354
   5153396.25855   4036380.07452  24823761.0704                   24823761.8754
 -21000378.07848 -16346621.72746  21235380.3594                   21235377.3914
 -14732422.72747 -11466036.60245  23087002.3134                   23087002.4804
 11  7 24  2 42  0.0000000  0  8G10G17G02G04G12G09G05G25
 -19761594.18447 -14220908.82846  21128385.7344                   21128382.2974
   3412543.39846   3517347.56644  24039712.1254                   24039708.7344
 -19607404.03548 -15103330.37946  20733464.2584                   20733458.5904
  -4907011.58247  -3546206.87945  22630322.5474                   22630319.7274
 -20212811.22348 -15733013.47346  20950833.8134                   20950829.6724
   5276463.77346   4132276.75843  24847180.5004                   24847181.1254
 -21031102.28148 -16370562.62946  21229533.8134                   21229530.4694
 -14776741.02047 -11500570.21945  23078569.1414                   23078569.1454
 11  7 24  2 42 30.0000000  0  8G10G17G02G04G12G09G05G25
 -19690279.28948 -14165338.77746  21141956.6484                   21141953.0044
   3517869.21146   3599419.59844  24059753.6884                   24059751.6214
 -19553860.08248 -15061607.80146  20743653.0864                   20743647.5824
  -4786456.30547  -3452267.70745  22653263.7344                   22653261.1374
 -20199143.64148 -15722363.39546  20953434.5394                   20953430.3714
   5399496.65646   4228146.47343  24870593.1414                   24870593.3324
 -21061362.79748 -16394142.21146  21223775.1174                   21223771.8134
 -14820700.87147 -11534824.54745  23070203.2974                   23070203.3404
 11  7 24  2 43  0.0000000  0  8G10G17G02G04G12G09G05G25
 -19618357.02748 -14109295.44146  21155643.0234                   21155639.4654
   3623374.76646   3681631.70744  24079831.4454                   24079828.6484
 -19500082.26648 -15019702.98046  20753886.8134                   20753881.2934
  -4665847.92647  -3358287.15244  22676214.4534                   22676211.3444
 -20184916.23448 -15711277.09446  20956142.2814                   20956138.0554
   5522484.80546   4323981.36743  24893997.0634                   24893997.4224
 -21091164.66848 -16417364.40646  21218103.8054                   21218100.8134
 -14864306.89847 -11568803.18445  23061906.1094                   23061905.0084
 11  7 24  2 43 30.0000000  0  8G10G17G02G04G12G09G05G25
 -19545831.25047 -14052781.84846  21169443.8364                   21169441.0004
   3729057.61346   3763981.98844  24099942.1484                   24099939.7114
 -19446074.02748 -14977618.62146  20764164.3754                   20764158.7504
  -4545190.35947  -3264268.28544  22699175.0944                   22699172.6484
 -20170129.94148 -15699755.30546  20958956.0634                   20958952.0704
   5645422.58246   4419777.01643  24917391.6334                   24917390.1684
 -21120508.15648 -16440229.42246  21212520.4064                   21212517.0944
 -14907558.98047 -11602506.05545  23053675.3914                   23053673.4494
 11  7 24  2 44  0.0000000  0  8G10G17G02G04G12G09G05G25
 -19472696.45747 -13995793.68746  21183361.4384                   21183357.7974
   3834924.60546   3846475.76644  24120087.6414                   24120085.0824
 -19391829.69948 -14935350.28946  20774486.6334                   20774480.8204
  -4424478.24647  -3170206.88344  22722145.2504                   22722143.4064
 -20154777.08648 -15687792.03146  20961876.8914                   20961873.0164
   5768313.57446   4515536.29343  24940777.1254                   24940775.8204
 -21149383.95348 -16462730.00446  21207025.4224                   21207022.1454
 -14950447.77347 -11635925.84445  23045513.6334                   23045512.9024
 11  7 24  2 44 30.0000000  0  8G10G17G02G04G12G09G05G25
 -19398946.98448 -13938326.55146  21197394.8594                   21197391.8094
   3940983.06647   3929118.74244  24140270.7974                   24140266.9104
 -19337343.60948 -14892893.56646  20784854.8834                   20784849.2504
  -4303705.94947  -3076098.59444  22745127.7814                   22745125.4694
 -20138849.34848 -15675380.79746  20964908.0784                   20964904.2074
   5891161.80946   4611262.19943  24964152.7274                   24964153.5004
 -21177783.14548 -16484859.20346  21201621.1254                   21201617.7504
 -14992963.58247 -11669054.98845  23037423.1414                   23037422.5044
 11  7 24  2 45  0.0000000  0  7G10G17G02G04G12G05G25
 -19324598.86348 -13880392.93745  21211543.2424                   21211539.4064
   4047218.83646   4011899.83244  24160487.5084                   24160483.4264
 -19282631.31248 -14850260.58646  20795266.5554                   20795260.5984
  -4182889.37147  -2981955.81644  22768118.7194                   22768115.5864
 -20122360.08648 -15662532.01646  20968045.8754                   20968041.9064
 -21205718.17648 -16506626.71546  21196305.2034                   21196301.9024
 -15035118.39147 -11701902.83645  23029401.5234                   23029400.6724
 11  7 24  2 45 30.0000000  0  7G10G17G02G04G12G05G25
 -19249650.35248 -13821991.49246  21225805.5084                   21225802.0514
   4153634.60546   4094821.19544  24180736.3284                   24180733.5824
 -19227690.98848 -14807449.91846  20805721.0314                   20805715.4414
  -4062027.12547  -2887777.41044  22791117.5474                   22791114.8954
 -20105305.47348 -15649242.69546  20971290.8204                   20971287.0634
 -21233183.64148 -16528028.32446  21191078.4454                   21191075.5314
 -15076906.68047 -11734465.09445  23021449.5234                   23021448.7034
 11  7 24  2 46  0.0000000  0  7G10G17G02G04G12G05G25
 -20749510.62948 -14990713.77746  20940391.3834                   20940388.0084
   2684823.66446   2950293.22744  23901232.2504                   23901227.8244
 -20747932.19948 -15992053.44146  20516428.8134                   20516423.1214
  -5516526.46147  -4021153.51644  22514335.8134                   22514333.0474
 -21663093.69948 -16863103.64146  20674853.9774                   20674849.7854
 -22835588.68448 -17776655.60246  20886151.1094                   20886147.8014
 -16693737.47347 -12994333.19145  22713776.5164                   22713776.1374
 11  7 24  2 46 30.0000000  0  7G10G17G02G04G12G05G25
 -20673350.12147 -14931367.90646  20954883.8984                   20954881.0554
   2791615.87146   3033507.88744  23921553.5084                   23921550.6484
 -20692523.30948 -15948877.65646  20526972.8984                   20526967.3794
  -5395560.67647  -3926894.44944  22537354.8914                   22537351.8094
 -21644888.93048 -16848918.10946  20678318.3984                   20678314.3874
 -22862092.70748 -17797308.03146  20881107.2664                   20881104.2504
 -16734769.00847 -13026305.77345  22705968.9454                   22705968.1484
 11  7 24  2 47  0.0000000  0  7G10G17G02G04G12G05G25
 -20596586.93447 -14871552.43446  20969491.6564                   20969488.5634
   2898595.12546   3116868.39143  23941910.3444                   23941907.0124
 -20636883.06248 -15905521.60246  20537560.8524                   20537555.3794
  -5274546.35247  -3832597.53944  22560383.4454                   22560380.4494
 -21626108.85548 -16834284.28146  20681892.2424                   20681887.7544
 -22888114.07448 -17817584.37546  20876155.8284                   20876152.5904
 -16775419.55947 -13057981.48445  22698232.9924                   22698232.4924
 11  7 24  2 47 30.0000000  0  7G10G17G02G04G12G05G25
 -20519213.44947 -14811261.39546  20984215.3754                   20984212.1374
   3005770.77346   3200381.86743  23962305.8204                   23962302.6024
 -20581003.02048 -15861978.69146  20548194.4384                   20548188.8364
  -5153475.63747  -3738256.69544  22583422.6254                   22583419.3204
 -21606743.11348 -16819194.07846  20685577.5704                   20685573.1684
 -22913641.39848 -17837475.75046  20871298.0554                   20871295.1644
 -16815677.27347 -13089351.11745  22690571.6804                   22690570.7974
 11  7 24  2 48  0.0000000  0  7G10G17G02G04G12G05G25
 -20441236.77047 -14750500.33246  20999053.9064                   20999050.8954
   3113137.68046   3284044.41843  23982736.6094                   23982733.4734
 -20524890.10948 -15818254.33246  20558872.4694                   20558866.9024
  -5032355.40647  -3643877.28544  22606470.4454                   22606467.7384
 -21586796.48048 -16803651.25046  20689373.0474                   20689369.0204
 -22938678.24648 -17856984.93446  20866533.7194                   20866530.5944
 -16855545.27347 -13120417.03945  22682985.0234                   22682984.1994
 11  7 24  2 48 30.0000000  0  7G10G17G02G04G12G05G25
 -20362662.07448 -14689273.27346  21014006.3524                   21014002.8634
   3220691.88346   3367852.93743  24003203.7194                   24003200.2704
 -20468549.26648 -15774352.36346  20569593.6804                   20569587.8484
  -4911190.63347  -3549463.16444  22629527.5784                   22629524.5474
 -21566271.53548 -16787657.76646  20693278.7664                   20693274.2384
 -22963226.16048 -17876113.12946  20861862.3134                   20861858.8594
 -16895024.56647 -13151180.09045  22675472.7424                   22675472.2034
 11  7 24  2 49  0.0000000  0  7G10G17G02G04G12G05G25
 -20283486.21947 -14627577.78146  21029073.0634                   21029069.3554
   3328438.45346   3451811.35943  24023706.6884                   24023704.1484
 -20411976.59448 -15730269.75846  20580359.2974                   20580352.9384
  -4789977.82847  -3455011.59844  22652593.2894                   22652590.5434
 -21545162.64148 -16771209.27746  20697295.7274                   20697291.6334
 -22987278.13748 -17894854.87946  20857285.6024                   20857281.9454
 -16934107.81247 -13181634.53545  22668035.4304                   22668035.4304
 11  7 24  2 49 30.0000000  0  7G10G17G02G04G12G05G25
 -20203720.60247 -14565422.73846  21044252.1094                   21044248.2154
   3436367.57846   3535911.98843  24044245.0784                   24044242.1604
 -20355183.29348 -15686015.22346  20591166.3914                   20591160.7074
  -4668728.18447  -3360531.35244  22675666.4384                   22675663.6094
 -21523478.93048 -16754312.86746  20701422.0164                   20701417.9414
 -23010842.17248 -17913216.41446  20852801.2974                   20852797.7974
 -16972802.41448 -13211786.12545  22660672.5084                   22660671.7774
 11  7 24  2 50  0.0000000  0  7G10G17G02G04G12G05G25
 -20123366.07048 -14502808.80146  21059542.7504                   21059539.5164
   3544479.87546   3620155.35943  24064817.9224                   24064814.9384
 -20298169.52048 -15641588.88346  20602015.6724                   20602010.0514
  -4547442.28547  -3266022.82844  22698746.2584                   22698743.0824
 -21501218.46148 -16736967.03546  20705657.7584                   20705654.0434
 -23033915.46148 -17931195.55146  20848410.3984                   20848406.6954
 -17011105.15647 -13241632.35545  22653383.4614                   22653382.8014
 11  7 24  2 50 30.0000000  0  7G10G17G02G04G12G05G25
 -20042421.53547 -14439735.13346  21074946.0554                   21074942.1094
   3652778.41846   3704543.82843  24085426.1954                   24085423.5354
 -20240933.43448 -15596989.32446  20612907.5084                   20612901.3484
  -4426118.36347  -3171484.69544  22721834.0704                   22721830.4224
 -21478377.59048 -16719168.94146  20710004.3984                   20710000.3914
 -23056493.05548 -17948788.43746  20844114.0944                   20844110.6954
 -17049010.37947 -13271168.82845  22646169.7274                   22646169.2424
 11  7 24  2 51  0.0000000  0  7G10G17G02G04G12G05G25
 -19960889.17647 -14376203.41446  21090460.9534                   21090457.7584
   3761262.55946   3789076.93743  24106070.8364                   24106067.2774
 -20183476.87548 -15552217.96546  20623841.3524                   20623835.1884
  -4304758.38347  -3076918.43444  22744927.6804                   22744924.4144
 -21454956.07448 -16700918.40246  20714461.2894                   20714457.2074
 -23078573.62948 -17965994.03946  20839912.1564                   20839908.6884
 -17086516.41047 -13300394.25445  22639032.6254                   22639032.3594
 11  7 24  2 51 30.0000000  0  7G10G17G02G04G12G05G25
 -19878773.03947 -14312216.80546  21106087.1724                   21106083.9304
   3869929.51646   3873752.51243  24126749.0864                   24126745.9454
 -20125803.59448 -15507277.72346  20634815.8984                   20634809.7934
  -4183366.25447  -2982327.13744  22768028.0864                   22768024.7074
 -21430955.93448 -16682216.97746  20719028.3134                   20719024.1254
 -23100158.01648 -17982812.99646  20835804.5234                   20835801.5164
 -17123623.41047 -13329308.73445  22631971.6174                   22631970.6374
 11  7 24  2 52  0.0000000  0  7G10G17G02G04G12G05G25
 -19796082.46547 -14247782.58246  21121822.9384                   21121818.9384
   3978772.53946   3958565.24243  24147460.4534                   24147457.9454
 -20067921.44948 -15462174.73846  20645830.6024                   20645824.9534
  -4061950.25847  -2887717.28144  22791132.1644                   22791129.5744
 -21406383.30948 -16663069.46546  20723704.6564                   20723700.4264
 -23121250.98448 -17999249.04346  20831790.8054                   20831787.2974
 -17160335.80547 -13357915.73045  22624985.2194                   22624984.8594
 11  7 24  2 52 30.0000000  0  7G10G17G02G04G12G05G25
 -19712807.20347 -14182892.74646  21137669.4534                   21137666.3054
   4087803.18447   4043524.18743  24168208.7664                   24168206.3794
 -20009820.50048 -15416901.26246  20656886.5554                   20656880.7194
  -3940499.96947  -2793080.68044  22814244.2274                   22814240.9384
 -21381225.55948 -16643466.01246  20728491.7274                   20728487.6054
 -23141839.13748 -18015291.71146  20827873.0004                   20827869.2234
 -17196639.48047 -13386204.26645  22618077.2734                   22618076.3674
 11  7 24  2 53  0.0000000  0  7G10G17G02G04G12G05G25
 -19628955.51248 -14117553.75846  21153625.9454                   21153622.3834
   4197015.16447   4128624.43443  24188991.7424                   24188988.2034
 -19951508.07848 -15371462.99646  20667983.1564                   20667977.3284
  -3819023.11347  -2698423.37544  22837359.5634                   22837357.1564
 -21355488.47748 -16623411.12946  20733389.4224                   20733385.3634
 -23161926.82848 -18030944.41846  20824050.5394                   20824047.0744
 -17232538.36348 -13414177.37145  22611245.9694                   22611244.6684
 11  7 24  2 53 30.0000000  0  7G10G17G02G04G12G05G25
 -19544519.07448 -14051759.14146  21169693.3674                   21169690.1054
   4306418.50447   4213873.78544  24209810.3364                   24209807.1804
 -19892974.76248 -15325852.59846  20679121.8204                   20679116.1804
  -3697510.72347  -2603738.38344  22860482.7274                   22860480.0514
 -21329161.72348 -16602896.76246  20738399.2504                   20738394.9494
 -23181502.28548 -18046197.99246  20820325.0704                   20820322.0234
 -17268020.04347 -13441825.36745  22604493.5634                   22604492.9884
 11  7 24  2 54  0.0000000  0  7G10G17G02G04G12G05G25
 -19459502.62548 -13985512.56646  21185871.8754                   21185868.7274
   4416010.11347   4299269.84844  24230664.8204                   24230661.7034
 -19834225.12548 -15280073.63746  20690301.0864                   20690295.4304
  -3575967.02047  -2509029.00444  22883611.7584                   22883609.3014
 -21302247.30948 -16581924.48446  20743520.6024                   20743516.8444
 -23200566.78148 -18061053.40646  20816697.4614                   20816693.7704
 -17303085.05147 -13469148.68445  22597820.5634                   22597820.4804
 11  7 24  2 54 30.0000000  0  8G10G17G02G04G12G29G05G25
 -19373921.87947 -13918826.25446  21202156.9774                   21202153.9654
   4525776.23847   4384801.87944  24251553.1724                   24251549.5784
 -19775273.69548 -15234137.44146  20701519.2664                   20701513.2114
  -3454406.73047  -2414306.70744  22906743.8134                   22906741.5474
 -21274758.12948 -16560504.32846  20748751.4694                   20748747.7704
 -11107781.15256  -8646794.51653  24611237.7894                   24611237.3364
 -23219131.93748 -18075519.71146  20813164.7894                   20813161.2304
 -17337744.58247 -13496156.04345  22591225.5164                   22591225.0204
 11  7 24  2 55  0.0000000  0  8G10G17G02G04G12G29G05G25
 -19287769.92647 -13851694.83246  21218551.3834                   21218547.9304
   4635725.80947   4470476.84044  24272475.3834                   24272472.4534
 -19716113.03548 -15188038.19546  20712777.2034                   20712771.5984
  -3332822.72347  -2319565.92244  22929881.1334                   22929877.9844
 -21246684.93748 -16538629.10246  20754094.1254                   20754090.0784
 -11149457.57846  -8679269.53143  24603307.5084                   24603305.2584
 -23237187.10948 -18089588.64146  20809728.6884                   20809724.9964
 -17371987.57047 -13522838.83645  22584709.0084                   22584708.5664
 11  7 24  2 55 30.0000000  0  8G10G17G02G04G12G29G05G25
 -19201062.30947 -13784130.41846  21235051.3364                   21235048.1174
   4745845.17647   4556284.14144  24293430.8594                   24293427.4144
 -19656757.88348 -15141787.40646  20724072.2424                   20724066.2774
  -3211229.81647  -2224818.20344  22953018.5234                   22953016.1484
 -21218041.00048 -16516309.13746  20759544.3984                   20759540.9614
 -11191209.17246  -8711803.18443  24595360.7734                   24595360.1684
 -23254744.44548 -18103269.64846  20806387.4304                   20806384.0634
 -17405825.16447 -13549205.74245  22578270.2034                   22578269.1214
 11  7 24  2 56  0.0000000  0  8G10G17G02G04G12G29G05G25
 -19113791.17647 -13716126.93045  21251658.3594                   21251655.1414
   4856143.77347   4642231.10244  24314419.8364                   24314416.3284
 -19597199.25448 -15095378.05946  20735406.0164                   20735399.9734
  -3089619.18847  -2130056.66444  22976160.5944                   22976157.9064
 -21188815.82848 -16493536.27346  20765106.2894                   20765102.1684
 -11233025.56346  -8744387.32443  24587404.0314                   24587402.8524
 -23271792.18048 -18116553.56246  20803143.6954                   20803140.4024
 -17439245.16047 -13575247.25845  22571910.2504                   22571909.3874
 11  7 24  2 56 30.0000000  0  8G10G17G02G04G12G29G05G25
 -19025960.64147 -13647687.54346  21268372.1954                   21268368.5394
   4966619.44547   4728316.03944  24335442.8984                   24335439.7504
 -19537440.77348 -15048812.99246  20746777.4694                   20746771.3834
  -2967994.19147  -2035283.94544  22999305.6254                   22999302.7464
 -21159010.83648 -16470311.59446  20770777.8914                   20770773.7274
 -11274908.52746  -8777023.27742  24579434.5944                   24579432.4304
 -23288330.70348 -18129440.68746  20799996.5634                   20799993.0234
 -17472247.39547 -13600963.23845  22565630.3754                   22565629.6134
 11  7 24  2 57  0.0000000  0  8G10G17G02G04G12G29G05G25
 -18937565.90247 -13578808.52346  21285192.7504                   21285189.4574
   5077278.92647   4814544.16444  24356500.7734                   24356496.8674
 -19477476.26248 -15002087.38346  20758188.3674                   20758182.3914
  -2846349.25847  -1940495.70344  23022453.7344                   23022450.6294
 -21128619.05548 -16446629.68446  20776561.1804                   20776557.1134
 -11316850.73046  -8809705.41843  24571452.8754                   24571450.8484
 -23304351.41448 -18141924.31646  20796947.4924                   20796944.2344
 -17504822.65647 -13626346.52045  22559431.8524                   22559430.7274
 11  7 24  2 57 30.0000000  0  8G10G17G02G04G12G29G05G25
 -18848608.98447 -13509491.42246  21302120.7584                   21302117.3714
   5188121.98047   4900915.39544  24377592.3444                   24377590.3134
 -19417307.32048 -14955202.49246  20769637.8674                   20769631.9024
  -2724685.75447  -1845692.97344  23045605.5554                   23045602.8444
 -21097640.26248 -16422490.35546  20782456.2274                   20782452.5164
 -11358851.85546  -8842433.46543  24563460.7814                   24563458.5704
 -23319853.06248 -18154003.48846  20793997.7114                   20793994.3324
 -17536968.82447 -13651395.43845  22553314.1804                   22553313.1804
 11  7 24  2 58  0.0000000  0  8G10G17G02G04G12G29G05G25
 -18759100.42247 -13439744.47346  21319154.0634                   21319150.5594
   5299139.82846   4987422.77343  24398719.6414                   24398716.1254
 -19356943.78548 -14908165.95746  20781125.0394                   20781119.1414
  -2603013.57047  -1750883.49244  23068759.0704                   23068756.1294
 -21066082.48848 -16397899.87146  20788461.3134                   20788457.6374
 -11400919.91446  -8875213.67643  24555454.0394                   24555452.2894
 -23334842.57848 -18165683.58246  20791145.2424                   20791141.9774
 -17568692.27047 -13676114.96145  22547277.3284                   22547276.6724
 11  7 24  2 58 30.0000000  0  8G10G17G02G04G12G29G05G25
 -18669032.79748 -13369561.89145  21336293.2504                   21336289.7274
   5410341.84446   5074073.72343  24419880.2814                   24419876.5984
 -19296377.39148 -14860971.35946  20792650.2584                   20792644.6644
  -2481324.33647  -1656060.70744  23091915.1414                   23091912.5124
 -21033935.68448 -16372850.41446  20794578.8204                   20794574.6254
 -11443045.01646  -8908038.30543  24547438.1954                   24547437.3834
 -23349308.81248 -18176955.92646  20788393.0004                   20788389.3324
 -17599981.05547 -13700495.78145  22541323.2734                   22541322.3054
 11  7 24  2 59  0.0000000  0  8G10G17G02G04G12G29G05G25
 -18578401.87947 -13298940.37946  21353539.2814                   21353536.0984
   5521734.30946   5160872.97743  24441077.2504                   24441074.1524
 -19235602.91448 -14813614.60546  20804215.5314                   20804209.5904
  -2359612.50447  -1561220.32044  23115076.2034                   23115073.0704
 -21001193.25048 -16347336.82046  20800809.4384                   20800805.5784
 -11485219.98846  -8940901.79343  24539412.9924                   24539411.8674
 -23363243.55148 -18187814.12546  20785741.2194                   20785737.4064
 -17630826.40248 -13724531.08245  22535454.0084                   22535452.3484
 11  7 24  2 59 30.0000000  0  8G10G17G02G04G12G29G05G25
 -18487217.91847 -13227887.93045  21370891.1414                   21370887.8204
   5633309.25446   5247814.41443  24462308.7734                   24462305.8054
 -19174628.57448 -14766102.12946  20815818.2034                   20815812.4264
  -2237887.32847  -1466369.53544  23138239.7664                   23138236.7504
 -20967862.48448 -16321364.78146  20807152.1334                   20807148.0234
 -11527451.99646  -8973809.69543  24531376.0704                   24531374.5124
 -23376652.80948 -18198262.85946  20783188.9844                   20783185.5594
 -17661233.96547 -13748225.26645  22529667.2814                   22529666.2814
 11  7 24  3  0  0.0000000  0  8G10G17G02G04G12G29G05G25
 -18395492.18747 -13156413.32046  21388346.0004                   21388342.4344
   5745057.32846   5334890.77743  24483575.0394                   24483570.5824
 -19113465.21148 -14718442.35246  20827457.0084                   20827451.3164
  -2116159.27346  -1371516.48444  23161403.4774                   23161400.5514
 -20933952.57848 -16294941.46946  20813604.6094                   20813600.6294
 -11569750.78146  -9006769.66843  24523326.8284                   24523325.0314
 -23389544.74248 -18208308.49246  20780735.6804                   20780732.2274
 -17691210.80548 -13771583.80545  22523962.9924                   22523961.3714
 11  7 24  3  0 30.0000000  0  8G10G17G02G04G12G29G05G25
 -18303210.34847 -13084505.37145  21405906.6954                   21405903.0434
   5856994.50846   5422114.51242  24504874.7664                   24504872.9804
 -19052097.65248 -14670623.47346  20839135.3054                   20839129.5514
  -1994413.10946  -1276649.37144  23184571.8984                   23184568.3524
 -20899446.99648 -16268053.99246  20820170.9224                   20820166.9884
 -11612098.80146  -9039767.96543  24515267.6804                   24515267.2304
 -23401901.59848 -18217937.17246  20778384.1724                   20778380.4774
 -17720738.37147 -13794592.25845  22518343.7664                   22518342.9224
 11  7 24  3  1  0.0000000  0  8G10G17G02G04G12G29G05G25
 -18210382.34047 -13012171.83645  21423571.1954                   21423567.6954
   5969112.62546   5509479.25843  24526210.2894                   24526208.3714
 -18990534.90248 -14622652.49246  20850849.9614                   20850844.4694
  -1872657.92247  -1181775.18444  23207740.7424                   23207737.8054
 -20864352.84448 -16240707.87946  20826849.1954                   20826845.0394
 -11654503.46246  -9072810.42543  24507197.4614                   24507197.0164
 -23413729.57048 -18227153.73846  20776133.7034                   20776130.3874
 -17749822.10547 -13817254.87545  22512809.1484                   22512808.2384
 11  7 24  3  1 30.0000000  0  8G10G17G02G04G12G29G05G25
 -18117014.02347 -12939417.28945  21441338.8594                   21441335.4224
   6081408.09045   5596982.22743  24547579.9924                   24547577.2344
 -18928781.75448 -14574533.16046  20862601.2274                   20862595.8674
  -1750898.51647  -1086897.72344  23230910.9064                   23230907.8914
 -20828674.05148 -16212906.21546  20833638.7344                   20833634.9494
 -11696968.22346  -9105899.68843  24499116.5474                   24499116.1294
 -23425030.88748 -18235959.93446  20773983.0784                   20773979.2854
 -17778463.62547 -13839572.93045  22507358.9534                   22507357.7814
 11  7 24  3  2  0.0000000  0  8G10G17G02G04G12G29G05G25
 -18023101.28147 -12866238.52745  21459209.8054                   21459206.1414
   6193887.15246   5684628.25843  24568984.0234                   24568980.5634
 -18866832.94548 -14526261.36746  20874389.9304                   20874384.3674
  -1629129.39547   -992012.71944  23254082.8134                   23254079.7194
 -20792403.62948 -16184643.53546  20840540.1564                   20840536.7304
 -11739485.55946  -9139029.90243  24491026.6724                   24491025.6334
 -23435797.51248 -18244349.47746  20771934.1954                   20771930.5744
 -17806654.19948 -13861539.56645  22501994.1564                   22501993.5704
 11  7 24  3  2 30.0000000  0  8G10G17G02G04G12G29G05G25
 -17928654.27747 -12792643.44145  21477182.8754                   21477178.9304
   6306541.43045   5772410.87943  24590420.7504                   24590418.0164
 -18804697.47348 -14477844.12146  20886213.6094                   20886208.2464
  -1507359.63747   -897127.20744  23277254.9614                   23277251.9694
 -20755549.59048 -16155926.09046  20847553.9224                   20847549.6334
 -11782063.17246  -9172207.18843  24482924.3444                   24482922.9064
 -23446035.90648 -18252327.41446  20769985.7274                   20769982.1134
 -17834399.64548 -13883159.36345  22496714.8594                   22496713.9064
 11  7 24  3  3  0.0000000  0  8G10G17G02G04G12G29G05G25
 -17833670.41447 -12718630.02745  21495257.3284                   21495253.4654
   6419376.00046   5860333.84442  24611892.0944                   24611890.2344
 -18742371.21148 -14429278.20746  20898074.3594                   20898068.2734
  -1385585.18047   -802237.99244  23300427.5944                   23300424.5274
 -20718106.80148 -16126749.88746  20854679.0314                   20854674.8404
 -11824695.07046  -9205426.71543  24474811.5634                   24474809.6804
 -23455739.34048 -18259888.49646  20768139.1024                   20768135.4224
 -17861692.46947 -13904426.47345  22491520.7734                   22491520.0944
 11  7 24  3  3 30.0000000  0  7G10G02G04G12G29G05G25
 -17738154.37547 -12644201.93445  21513432.7894                   21513429.4024
 -18679857.91848 -14380566.53146  20909970.4144                   20909964.0474
  -1263810.19947   -707348.37944  23323600.8204                   23323598.0234
 -20680077.85548 -16097116.93046  20861915.7894                   20861911.4104
 -11867383.65246  -9238690.39543  24466688.0394                   24466686.8324
 -23464909.43748 -18267033.99646  20766394.5314                   20766390.6254
 -17888533.44947 -13925341.48445  22486413.1954                   22486412.0984
 11  7 24  3  4  0.0000000  0  7G10G02G04G12G29G05G25
 -17642102.76247 -12569356.50845  21531711.2734                   21531707.5314
 -18617152.93448 -14331705.48446  20921902.1094                   20921896.3364
  -1142029.58247   -612454.37944  23346774.5704                   23346771.8164
 -20641456.61748 -16067022.44546  20869265.0394                   20869261.1134
 -11910122.71546  -9271993.41043  24458554.6724                   24458553.5124
 -23473539.02048 -18273758.30546  20764751.8754                   20764748.5394
 -17914914.41047 -13945898.04345  22481393.0634                   22481392.1804
 11  7 24  3  4 30.0000000  0  7G10G02G04G12G29G05G25
 -17545516.87947 -12494094.76245  21550090.8284                   21550087.5394
 -18554256.82448 -14282695.50446  20933871.1564                   20933865.3094
  -1020243.75847   -517556.31344  23369950.1334                   23369946.7934
 -20602242.06248 -16036465.64146  20876727.2194                   20876723.3094
 -11952910.53946  -9305334.46943  24450412.4614                   24450411.2154
 -23481625.93048 -18280059.76247  20763212.9774                   20763209.9144
 -17940832.56247 -13966093.98045  22476460.9694                   22476459.9264
 11  7 24  3  5  0.0000000  0  7G10G02G04G12G29G05G25
 -17448405.84847 -12418423.81645  21568570.4224                   21568567.1454
 -18491176.93048 -14233542.31346  20945874.7274                   20945869.0594
   -898460.27747   -422660.09044  23393124.8524                   23393121.6884
 -20562440.49648 -16005451.42646  20884301.2274                   20884297.3404
 -11995753.32046  -9338718.30143  24442259.6644                   24442258.7074
 -23489175.25448 -18285942.32846  20761776.5084                   20761773.2774
 -17966292.16447 -13985932.58645  22471616.1724                   22471615.1054
 11  7 24  3  5 30.0000000  0  7G10G02G04G12G29G05G25
 -17350756.73847 -12342333.59445  21587152.6724                   21587148.8754
 -18427899.52348 -14184235.24246  20957915.9534                   20957910.3014
   -776665.13347   -327754.76244  23416300.9774                   23416298.7034
 -20522037.91848 -15973968.89546  20891989.5474                   20891985.7704
 -12038635.34046  -9372132.73843  24434100.1174                   24434097.7734
 -23496170.62548 -18291393.24246  20760445.1094                   20760441.6564
 -17991276.22747 -14005400.64845  22466862.2504                   22466860.9574
 11  7 24  3  6  0.0000000  0  7G10G02G04G12G29G05G25
 -17252577.79747 -12265830.50845  21605835.4534                   21605831.9654
 -18364431.52048 -14134779.64846  20969993.5004                   20969987.7774
   -654865.43047   -232845.90244  23439479.2894                   23439475.8914
 -20481039.74247 -15942022.24646  20899790.9774                   20899787.0084
 -12081561.89546  -9405581.90644  24425930.6094                   24425929.4694
 -23502616.91048 -18296416.29346  20759218.4924                   20759215.1524
 -18015788.49247 -14024501.09045  22462197.2344                   22462196.2114
 11  7 24  3  6 30.0000000  0  7G10G02G04G12G29G05G25
 -18729301.77747 -13416524.51245  21324823.7274                   21324820.5474
 -19876205.50848 -15312785.35246  20682312.5864                   20682306.9064
  -2108491.70347  -1365541.69144  23162863.0944                   23162860.3714
 -22014877.84448 -17137220.76246  20607911.5554                   20607907.6604
 -13699967.25046 -10666676.85543  24117958.3444                   24117957.3404
 -25083946.18048 -19528620.88746  20458301.5474                   20458297.9454
 -19615261.23847 -15270843.45345  22157828.3204                   22157826.7034
 11  7 24  3  7  0.0000000  0  7G10G02G04G12G29G05G25
 -18630081.69947 -13339210.15645  21343704.9144                   21343701.4224
 -19812371.00048 -15263044.17246  20694459.8594                   20694454.0634
  -1986697.35547  -1270636.98044  23186039.7814                   23186036.9144
 -21972699.39548 -17104354.42246  20615937.7734                   20615934.2934
 -13742992.25046 -10700202.73843  24109770.7584                   24109769.1804
 -25089301.37148 -19532793.73846  20457282.2664                   20457278.9574
 -19638835.03147 -15289212.60945  22153341.3364                   22153340.6804
 11  7 24  3  7 30.0000000  0  7G10G02G04G12G29G05G25
 -18530340.77347 -13261489.94545  21362685.2974                   21362681.3674
 -19748350.68048 -15213158.19946  20706642.5704                   20706636.6764
  -1864902.95346  -1175732.24644  23209215.9694                   23209213.6644
 -21929927.32048 -17071025.52046  20624076.8134                   20624073.0824
 -13786061.53946 -10733763.17243  24101574.9224                   24101574.6644
 -25094105.44548 -19536537.14546  20456368.3594                   20456364.6914
 -19661932.52347 -15307210.60545  22148946.2274                   22148945.7074
 11  7 24  3  8  0.0000000  0  7G10G02G04G12G29G05G25
 -18430089.44947 -13183372.01645  21381761.8914                   21381758.6294
 -19684153.87948 -15163134.70346  20718858.5474                   20718853.1374
  -1743118.03547  -1080834.89544  23232390.7504                   23232388.3484
 -21886569.64148 -17037240.30946  20632327.5004                   20632323.7194
 -13829182.64546 -10767363.93743  24093369.9384                   24093367.8164
 -25098365.33248 -19539856.50846  20455557.6484                   20455554.0594
 -19684559.68447 -15324842.13345  22144640.5634                   22144639.2034
 11  7 24  3  8 30.0000000  0  7G10G02G04G12G29G05G25
 -18329317.63347 -13104848.52345  21400938.3204                   21400935.0864
 -19619769.07048 -15112964.71546  20731110.8754                   20731104.7034
  -1621330.86747   -985935.76644  23255566.1094                   23255563.5944
 -21842613.62948 -17002988.86346  20640692.0554                   20640688.1254
 -13872342.34046 -10800994.77043  24085156.5004                   24085154.5634
 -25102066.86748 -19542740.78946  20454853.2974                   20454849.6094
 -19706702.02747 -15342095.89145  22140426.7974                   22140425.7624
 11  7 24  3  9  0.0000000  0  7G10G02G04G12G29G05G25
 -18228035.46947 -13025927.34445  21420211.8134                   21420208.1484
 -19555205.05548 -15062655.08246  20743396.7814                   20743391.0234
  -1499550.10247   -891041.66444  23278740.7194                   23278738.0394
 -21798067.64848 -16968277.69146  20649168.9774                   20649165.5434
 -13915547.43446 -10834660.98443  24076935.1174                   24076932.2274
 -25105216.66848 -19545195.14847  20454254.0164                   20454250.2934
 -19728365.14147 -15358976.21545  22136304.6804                   22136303.9384
 11  7 24  3  9 30.0000000  0  7G10G02G04G12G29G05G25
 -18126253.72747 -12946616.88345  21439580.1804                   21439576.7934
 -19490471.59448 -15012213.42246  20755715.2584                   20755709.4264
  -1377785.32447   -796160.00844  23301912.2974                   23301909.0044
 -21752940.27348 -16933113.48446  20657756.2034                   20657752.3484
 -13958805.98846 -10868368.85243  24068702.5864                   24068699.4184
 -25107822.36348 -19547225.53146  20453757.9694                   20453754.7974
 -19749555.65648 -15375488.27345  22132272.0394                   22132270.7384
 11  7 24  3 10  0.0000000  0  7G10G02G04G12G29G05G25
 -18023962.08247 -12866909.09445  21459045.5394                   21459042.1844
 -19425556.14848 -14961629.95746  20768068.2344                   20768062.6484
  -1256024.18746   -701281.17644  23325082.3524                   23325079.0164
 -21707218.56248 -16897486.17246  20666456.9224                   20666453.1564
 -14002104.14147 -10902107.60243  24060463.4924                   24060460.0594
 -25109869.68048 -19548820.80946  20453368.2894                   20453364.8364
 -19770258.36747 -15391620.22745  22128332.5234                   22128331.3874
 11  7 24  3 10 30.0000000  0  7G10G02G04G12G29G05G25
 -17921168.03147 -12786809.82845  21478606.7034                   21478603.1604
 -19360465.34048 -14910909.84046  20780454.5864                   20780448.9144
  -1134273.07846   -606410.16844  23348250.4224                   23348247.5864
 -21660908.35548 -16861400.28946  20675269.4534                   20675265.4774
 -14045446.56647 -10935880.77744  24052214.4774                   24052213.7894
 -25111362.83648 -19549984.26647  20453084.0394                   20453080.5084
 -19790476.64848 -15407374.71946  22124485.2584                   22124484.2624
 11  7 24  3 11  0.0000000  0  7G10G02G04G12G29G05G25
 -17817861.77747 -12706311.43745  21498264.9454                   21498261.7704
 -19295187.54348 -14860044.00446  20792876.5704                   20792870.5554
  -1012520.61346   -511538.08644  23371419.0944                   23371416.5044
 -21613996.64548 -16824845.70746  20684196.4064                   20684192.5434
 -14088819.71547 -10969677.88344  24043962.1024                   24043960.1454
 -25112288.24648 -19550705.32447  20452908.2504                   20452904.8054
 -19810195.96947 -15422740.38745  22120732.4144                   22120731.9384
 11  7 24  3 11 30.0000000  0  7G10G02G04G12G29G05G25
 -17714070.20347 -12625434.87545  21518016.1564                   21518012.6024
 -19229748.22748 -14809052.32846  20805329.1954                   20805323.6524
   -890791.93447   -416684.53544  23394583.5704                   23394580.6134
 -21566508.86748 -16787842.22746  20693232.7664                   20693229.4924
 -14132247.62946 -11003517.68444  24035697.4614                   24035696.3754
 -25112669.18448 -19551002.10547  20452835.8364                   20452831.7384
 -19829438.67247 -15437734.67245  22117070.7504                   22117069.9104
 11  7 24  3 12  0.0000000  0  7G10G02G04G12G29G05G25
 -17609783.30947 -12544172.35245  21537860.9774                   21537857.4734
 -19164135.83248 -14757925.76246  20817814.7974                   20817809.0354
   -769075.14847   -321840.25444  23417745.3674                   23417742.8054
 -21518432.32848 -16750379.98446  20702381.7814                   20702378.2114
 -14175717.26646 -11037389.98844  24027425.6414                   24027423.7584
 -25112492.04748 -19550864.03547  20452868.9924                   20452865.6724
 -19848190.31648 -15452346.33246  22113502.7894                   22113501.0864
 11  7 24  3 12 30.0000000  0  7G10G02G04G12G29G05G25
 -17505001.75047 -12462524.39145  21557800.4614                   21557796.9304
 -19098349.48848 -14706663.66846  20830333.3134                   20830327.7974
   -647369.29747   -227004.50844  23440905.4614                   23440902.5634
 -21469765.55148 -16712457.80546  20711643.0864                   20711639.2234
 -14219225.25446 -11071292.19544  24019145.9454                   24019144.4654
 -25111753.97748 -19550288.86747  20453009.6884                   20453005.6844
 -19866447.02048 -15466572.30546  22110028.7814                   22110027.5784
 11  7 24  3 13  0.0000000  0  7G10G02G04G12G29G05G25
 -17399726.66047 -12380491.84445  21577833.2034                   21577830.5234
 -19032388.66448 -14655265.60246  20842885.4144                   20842879.9844
   -525674.22747   -132177.16844  23464063.6954                   23464059.9614
 -21420507.43448 -16674074.85946  20721016.5474                   20721012.3714
 -14262769.65246 -11105222.77744  24010860.4454                   24010858.1564
 -25110452.66048 -19549274.81646  20453256.9144                   20453253.5514
 -19884205.64148 -15480410.16845  22106649.2504                   22106647.8594
 11  7 24  3 13 30.0000000  0  7G10G02G04G12G29G05G25
 -17293955.50047 -12298072.74645  21597961.2504                   21597957.9184
 -18966249.65648 -14603728.70346  20855471.3444                   20855465.3524
   -403985.58647    -37354.84444  23487219.4454                   23487216.7194
 -21370653.59848 -16635227.71146  20730503.3834                   20730499.2894
 -14306344.66046 -11139177.12943  24002566.9614                   24002565.7344
 -25108582.03948 -19547817.14546  20453613.5084                   20453609.6214
 -19901459.16048 -15493854.46546  22103366.1024                   22103364.9964
 11  7 24  3 14  0.0000000  0  7G10G02G04G12G29G05G25
 -17187700.94148 -12215276.98045  21618181.0554                   21618177.7974
 -18899943.94948 -14552061.90646  20868088.9774                   20868082.9064
   -282314.96547     57453.47744  23510372.8984                   23510369.5944
 -21320214.76648 -16595924.71946  20740101.7894                   20740097.7464
 -14349960.13346 -11173163.11344  23994268.4064                   23994265.2664
 -25106151.46148 -19545923.13746  20454075.4924                   20454071.8324
 -19918216.09448 -15506911.78146  22100176.9614                   22100176.2974
 11  7 24  3 14 30.0000000  0  7G10G02G04G12G29G05G25
 -17080962.01247 -12132103.77745  21638492.6414                   21638489.0984
 -18833468.44148 -14500262.79346  20880738.5864                   20880732.9264
   -160658.85947    152250.48444  23533523.5394                   23533520.0394
 -21269187.23448 -16556163.00046  20749811.6334                   20749807.6214
 -14393611.27746 -11207176.83243  23985960.8594                   23985959.3754
 -25103156.35248 -19543589.25446  20454645.7194                   20454642.0944
 -19934470.71948 -15519577.67246  22097084.0634                   22097082.8404
 11  7 24  3 15  0.0000000  0  7G10G02G04G12G29G05G25
 -16973746.70747 -12048559.36745  21658894.6564                   21658891.3554
 -18766829.58248 -14448336.39846  20893419.6564                   20893413.8874
    -39024.06246    247030.85244  23556669.1644                   23556666.8714
 -21217577.42648 -16515947.55546  20759632.7734                   20759628.8324
 -14437302.83247 -11241222.10544  23977646.8284                   23977644.6094
 -25099601.28548 -19540819.03547  20455322.3284                   20455318.2194
 -19950226.68448 -15531855.01646  22094085.7504                   22094084.6134
 11  7 24  3 15 30.0000000  0  7G10G02G04G12G29G05G25
 -16866056.32447 -11964644.77045  21679387.6254                   21679384.0744
 -18700026.81648 -14396282.28146  20906131.6254                   20906125.7154
     82590.16047    341795.19544  23579811.5704                   23579809.0554
 -21165384.16448 -16475277.46946  20769564.8204                   20769560.5314
 -14481032.70746 -11275297.20343  23969324.6644                   23969323.4694
 -25095484.19548 -19537610.87947  20456105.5394                   20456101.7504
 -19965480.70348 -15543741.22346  22091182.7894                   22091182.0704
 11  7 24  3 16  0.0000000  0  7G10G02G04G12G29G05G25
 -16757888.19547 -11880357.91045  21699971.4774                   21699967.9414
 -18633056.05148 -14344097.25446  20918875.7504                   20918869.9614
    204188.41846    436547.15243  23602951.1884                   23602948.9494
 -21112602.58248 -16434148.97346  20779608.7974                   20779604.6604
 -14524794.41446 -11309397.10244  23960998.3204                   23960995.4414
 -25090798.73448 -19533959.83647  20456997.0704                   20456993.4184
 -19980225.71548 -15555230.77746  22088376.9924                   22088376.2464
 11  7 24  3 16 30.0000000  0  7G10G02G04G12G29G05G25
 -16649247.39147 -11795702.73445  21720645.3364                   21720641.3484
 -18565920.46148 -14291783.78946  20931651.3834                   20931645.6604
    325767.22747    531283.88743  23626086.6804                   23626083.6994
 -21059235.90648 -16392564.54346  20789763.8754                   20789759.4614
 -14568589.92646 -11343523.40244  23952663.7974                   23952661.0004
 -25085546.37548 -19529867.06247  20457996.5394                   20457992.6764
 -19994462.30548 -15566324.18746  22085667.7344                   22085666.3714
 11  7 24  3 17  0.0000000  0  7G10G02G04G12G29G05G25
 -16540138.08247 -11710682.48045  21741407.8134                   21741404.0634
 -18498622.90648 -14239344.11746  20944457.4844                   20944451.7274
    447324.21947    626003.63744  23649218.0634                   23649215.5784
 -21005285.88348 -16350525.55146  20800030.3984                   20800026.3204
 -14612419.93047 -11377676.53944  23944323.4144                   23944321.1764
 -25079728.10548 -19525333.32447  20459103.8134                   20459099.8834
 -20008190.47348 -15577021.41846  22083055.5314                   22083054.3364
 11  7 24  3 17 30.0000000  0  7G10G02G04G12G29G05G25
 -16430566.11347 -11625301.71545  21762258.7504                   21762254.8444
 -18431166.87548 -14186780.96946  20957294.0164                   20957288.2384
    568855.77347    720703.56343  23672344.9694                   23672342.7234
 -20950756.52348 -16308035.14146  20810406.9384                   20810403.1724
 -14656286.21947 -11411857.92244  23935975.6254                   23935973.1564
 -25073346.22748 -19520360.41447  20460317.9454                   20460314.2384
 -20021411.18448 -15587323.23046  22080539.6174                   22080538.4224
 11  7 24  3 18  0.0000000  0  7G10G02G04G12G29G05G25
 -16320528.33247 -11539557.97745  21783198.1024                   21783194.5744
 -18363548.16848 -14134091.05546  20970161.5554                   20970155.3554
    690366.51647    815387.30144  23695467.2894                   23695464.9534
 -20895642.88348 -16265089.44146  20820894.6414                   20820890.6024
 -14700182.53147 -11446062.71944  23927621.5394                   23927620.1564
 -25066394.27748 -19514943.29347  20461641.3754                   20461637.4184
 -20034117.19148 -15597223.95346  22078121.2734                   22078120.6134
 11  7 24  3 18 30.0000000  0  7G10G02G04G12G29G05G25
 -16210029.71147 -11453455.14845  21804225.7424                   21804222.4614
 -18295769.86348 -14081276.77346  20983059.7814                   20983053.3014
    811853.27747    910052.34443  23718586.3444                   23718583.1994
 -20839947.78148 -16221690.66846  20831493.2814                   20831488.9144
 -14744110.66046 -11480292.34044  23919262.8444                   23919260.3984
 -25058873.80548 -19509083.17247  20463071.5784                   20463068.0474
 -20046309.22748 -15606724.19546  22075801.5864                   22075800.4734
 11  7 24  3 19  0.0000000  0  7G10G02G04G12G29G05G25
 -16099075.60947 -11366997.40245  21825339.1334                   21825335.7854
 -18227835.81248 -14028341.14146  20995986.3984                   20995981.0204
    933312.69547   1004696.07843  23741698.6414                   23741696.0124
 -20783674.73448 -16177841.53546  20842201.5474                   20842197.3094
 -14788072.14547 -11514547.95744  23910896.9064                   23910894.5474
 -25050786.87148 -19502781.64547  20464610.9304                   20464607.1524
 -20057988.05948 -15615824.53146  22073578.9144                   22073577.4964
 11  7 24  3 19 30.0000000  0  7G10G02G04G12G29G05G25
 -15987661.12547 -11280180.92245  21846540.6644                   21846537.1254
 -18159738.75048 -13975278.48446  21008945.0394                   21008939.2274
   1054751.85547   1099324.02343  23764808.3054                   23764805.2034
 -20726816.10248 -16133536.11346  20853021.2734                   20853016.8874
 -14832058.28147 -11548822.77344  23902526.8984                   23902523.9964
 -25042124.84448 -19496032.00447  20466259.4924                   20466255.6914
 -20069144.21548 -15624517.59846  22071456.5084                   22071455.1684
 11  7 24  3 20  0.0000000  0  7G10G02G04G12G29G05G25
 -15875794.51248 -11193012.12145  21867828.4144                   21867824.7544
 -18091485.09048 -13922093.80146  21021933.3754                   21021927.7074
   1176164.60947   1193931.42243  23787912.1414                   23787908.4924
 -20669378.48848 -16088779.53146  20863951.6724                   20863947.2344
 -14876073.34446 -11583120.18743  23894150.8134                   23894148.4064
 -25032892.68448 -19488838.09447  20468016.0864                   20468012.2584
 -20079781.44948 -15632806.30946  22069431.7114                   22069430.3594
 11  7 24  3 20 30.0000000  0  7G10G02G04G12G29G05G25
 -15763475.40248 -11105490.73045  21889202.2504                   21889198.3674
 -18023073.09848 -13868785.75046  21034951.6564                   21034946.0354
   1297552.74246   1288519.62943  23811011.3914                   23811007.9104
 -20611359.19948 -16043569.69946  20874992.0634                   20874988.1254
 -14920113.90647 -11617437.44543  23885770.0784                   23885767.7034
 -25023087.42248 -19481197.62547  20469881.8834                   20469878.1454
 -20089895.51648 -15640687.35946  22067506.8054                   22067505.6564
 11  7 24  3 21  0.0000000  0  7G10G02G04G12G29G05G25
 -15650707.40247 -11017619.54745  21910660.8834                   21910657.3714
 -17954504.74248 -13815355.85246  21047999.8674                   21047994.0354
   1418914.60247   1383087.36743  23834105.5554                   23834102.1334
 -20552761.10548 -15997908.85246  20886143.0234                   20886139.0514
 -14964180.15647 -11651774.75443  23877384.2664                   23877381.7664
 -25012708.87948 -19473110.42647  20471857.3594                   20471853.2034
 -20099485.70748 -15648160.19946  22065682.1254                   22065681.2114
 11  7 24  3 21 30.0000000  0  7G10G02G04G12G29G05G25
 -15537492.59047 -10929400.20345  21932204.9534                   21932201.6684
 -17885780.02748 -13761804.12546  21061077.4614                   21061071.5124
   1540250.14146   1477634.55143  23857194.8674                   23857191.2934
 -20493583.94948 -15951796.78546  20897404.0004                   20897399.8204
 -15008270.17247 -11686130.59044  23868995.1484                   23868990.9734
 -25001755.71948 -19464575.48447  20473941.3364                   20473937.6884
 -20108549.54348 -15655222.90646  22063957.4694                   22063956.1884
 11  7 24  3 22  0.0000000  0  7G10G02G04G12G29G05G25
 -15423840.14147 -10840839.85945  21953832.3674                   21953828.5984
 -17816906.47348 -13708136.41446  21074183.8594                   21074178.0004
   1661552.18046   1572155.69543  23880277.7974                   23880274.6564
 -20433834.41448 -15905238.71546  20908773.9614                   20908769.6994
 -15052389.46147 -11720509.17244  23860599.0704                   23860596.3054
 -24990233.89148 -19455597.41847  20476133.8674                   20476130.0664
 -20117092.03948 -15661879.35946  22062331.3054                   22062330.2424
 11  7 24  3 22 30.0000000  0  7G10G02G04G12G29G05G25
 -15309741.21547 -10751931.60545  21975544.8914                   21975540.8634
 -17747873.32448 -13654344.33646  21087320.3594                   21087314.5824
   1782831.78547   1666659.24643  23903357.1644                   23903353.3324
 -20373502.14848 -15858226.55946  20920254.9304                   20920251.0204
 -15096525.52346 -11754900.88344  23852199.4924                   23852196.9774
 -24978131.57048 -19446167.03147  20478436.7344                   20478432.9184
 -20125099.82048 -15668119.17646  22060807.6954                   22060806.6604
 11  7 24  3 23  0.0000000  0  7G10G02G04G12G29G05G25
 -15195213.39147 -10662689.12945  21997338.4774                   21997335.3834
 -17678696.22348 -13600440.09846  21100484.4844                   21100478.7114
   1904073.39147   1761133.25844  23926428.1724                   23926425.2464
 -20312602.77348 -15810772.51246  20931843.8524                   20931839.2854
 -15140692.31647 -11789316.45344  23843796.0554                   23843793.4694
 -24965462.87548 -19436295.29747  20480847.5474                   20480843.8634
 -20132586.26648 -15673952.75446  22059383.2344                   22059382.1134
 11  7 24  3 23 30.0000000  0  7G10G02G04G12G29G05G25
 -15080250.27348 -10573107.49245  22019215.6564                   22019212.0434
 -17609366.87548 -13546417.23446  21113677.2274                   21113671.8834
   2025285.39546   1855584.20743  23949494.6644                   23949491.2114
 -20251127.98848 -15762870.09046  20943542.0944                   20943537.3554
 -15184879.76246 -11823748.10544  23835386.5394                   23835384.1684
 -24952218.05148 -19425974.63347  20483367.5864                   20483364.0824
 -20139540.64548 -15679371.73846  22058059.6414                   22058059.0394
 11  7 24  3 24  0.0000000  0  7G10G02G04G12G29G05G25
 -14964847.62147 -10483183.35245  22041175.9384                   22041172.4304
 -17539878.77348 -13492270.65246  21126900.3134                   21126894.5664
   2146474.29346   1950017.11743  23972555.3054                   23972551.9924
 -20189071.53548 -15714514.41046  20955350.7034                   20955346.8874
 -15229079.43046 -11858189.35944  23826975.4924                   23826973.1454
 -24938389.44548 -19415199.08647  20485999.4144                   20485995.4614
 -20145953.99648 -15684369.14846  22056839.2814                   22056838.2664
 11  7 24  3 24 30.0000000  0  7G10G02G04G12G29G05G25
 -14849012.79747 -10392922.44945  22063218.1024                   22063214.8594
 -17470237.73048 -13438004.90646  21140152.8754                   21140146.5634
   2267634.60946   2044427.66043  23995611.3914                   23995608.1844
 -20126439.28948 -15665710.06646  20967269.3444                   20967265.2464
 -15273295.22746 -11892643.09444  23818561.1644                   23818558.8484
 -24923981.69548 -19403972.23447  20488740.7664                   20488737.1254
 -20151829.78148 -15688947.67646  22055721.3524                   22055719.6804
 11  7 24  3 25  0.0000000  0  7G10G02G04G12G29G05G25
 -14732757.96947 -10302334.26645  22085341.0394                   22085337.4494
 -17400453.64148 -13383627.69946  21153431.9844                   21153426.3094
   2388757.11746   2138808.80943  24018660.6644                   24018657.1484
 -20063240.96148 -15616464.62146  20979295.6334                   20979291.4574
 -15317535.01647 -11927115.52744  23810142.4384                   23810140.7704
 -24909003.22348 -19392300.68447  20491591.3444                   20491587.2154
 -20157175.40248 -15693113.08246  22054704.1414                   22054703.0944
 11  7 24  3 25 30.0000000  0  7G10G02G04G12G29G05G25
 -14616073.66847 -10211411.43045  22107544.9844                   22107542.0164
 -17330515.87948 -13329130.73046  21166741.1644                   21166735.1254
   2509852.38346   2233168.79143  24041703.4534                   24041701.4184
 -19999466.02348 -15566769.87546  20991431.6724                   20991427.5984
 -15361786.22847 -11961596.89044  23801722.5234                   23801720.2234
 -24893442.07048 -19380175.08247  20494552.6254                   20494548.5314
 -20161977.92248 -15696855.30546  22053790.2504                   22053788.8244
 11  7 24  3 26  0.0000000  0  7G10G02G04G12G29G05G25
 -14498967.55147 -10120159.91045  22129829.6954                   22129825.7304
 -17260429.68448 -13274518.10946  21180077.9304                   21180072.0124
   2630914.90246   2327503.20743  24064740.7584                   24064738.2304
 -19935120.25848 -15516630.32046  21003676.1564                   21003671.8164
 -15406052.50847 -11996090.02744  23793298.3674                   23793295.9924
 -24877302.39848 -19367598.69547  20497623.7114                   20497620.0664
 -20166240.55948 -15700176.82446  22052978.8834                   22052977.7974
 11  7 24  3 26 30.0000000  0  7G10G02G04G12G29G05G25
 -14381447.69547 -10028585.99645  22152193.1644                   22152189.4574
 -17190201.27348 -13219794.67246  21193441.8834                   21193436.6134
   2751939.37546   2421807.97744  24087771.5084                   24087768.4384
 -19870209.86348 -15466050.79746  21016028.5084                   21016024.2774
 -15450337.89147 -12030598.05944  23784871.0314                   23784868.3874
 -24860589.33648 -19354575.50447  20500804.1884                   20500800.4144
 -20169966.88748 -15703080.44546  22052269.6414                   22052268.6604
 11  7 24  3 27  0.0000000  0  7G10G02G04G12G29G05G25
 -15838919.48447 -11164278.28145  21874845.0394                   21874842.0944
 -18695235.32848 -14392548.47746  20907043.2664                   20907037.9654
   1297522.57046   1288496.15643  23811005.2734                   23811002.4064
 -21380139.85948 -16642619.62946  20728698.3524                   20728694.1254
 -17070049.52347 -13292710.94944  23476650.4694                   23476646.9654
 -26418707.89548 -20568693.84847  20204304.0864                   20204300.3594
 -21748562.01648 -16933154.55146  21751873.1484                   21751871.9774
 11  7 24  3 27 30.0000000  0  7G10G02G04G12G29G05G25
 -15720576.65647 -11072063.09045  21897364.8284                   21897362.0274
 -18624720.30948 -14337601.71546  20920462.0634                   20920456.7504
   1418472.87946   1382743.12943  23834021.2504                   23834018.9774
 -21314098.46948 -16591158.80146  20741265.3914                   20741260.7934
 -17114366.03147 -13327243.21544  23468217.1804                   23468213.7854
 -26400842.25848 -20554772.54747  20207703.7194                   20207699.8094
 -21751207.33248 -16935215.81646  21751370.1334                   21751368.4414
 11  7 24  3 28  0.0000000  0  7G10G02G04G12G29G05G25
 -15601814.84447 -10979521.43045  21919964.5474                   21919961.3094
 -18554051.35548 -14282534.99646  20933909.9774                   20933904.0664
   1539396.88346   1476969.64144  23857033.0634                   23857030.3834
 -21247482.09048 -16539249.93846  20753941.8284                   20753938.3134
 -17158684.66046 -13361777.10944  23459782.9224                   23459780.6414
 -26382388.20748 -20540392.74647  20211215.6094                   20211211.7194
 -21753298.43048 -16936845.22346  21750971.5234                   21750970.5434
 11  7 24  3 28 30.0000000  0  7G10G02G04G12G29G05G25
 -15482651.77347 -10886667.07045  21942640.5394                   21942637.6374
 -18483244.82848 -14227361.07446  20947384.0784                   20947378.5434
   1660278.64146   1571163.20343  23880035.9774                   23880032.4184
 -21180307.09448 -16486905.78946  20766725.1724                   20766721.1884
 -17203019.66046 -13396323.82044  23451346.2344                   23451343.8484
 -26363361.33248 -20525566.59047  20214836.3284                   20214831.8954
 -21754849.24248 -16938053.64846  21750676.6094                   21750675.2074
 11  7 24  3 29  0.0000000  0  7G10G02G04G12G29G05G25
 -15363087.44147 -10793500.04745  21965393.1334                   21965389.4614
 -18412298.30548 -14172078.06646  20960884.7194                   20960879.1454
   1781120.78147   1665325.87143  23903031.6094                   23903028.1414
 -21112571.14548 -16434124.53546  20779615.0474                   20779610.8404
 -17247366.89546 -13430879.98044  23442907.5084                   23442905.5044
 -26343758.01648 -20510291.25047  20218566.4064                   20218562.3164
 -21755855.25048 -16938837.52346  21750485.3204                   21750484.3484
 11  7 24  3 29 30.0000000  0  7G10G02G04G12G29G05G25
 -15243117.41447 -10700016.90245  21988222.6884                   21988219.0664
 -18341205.10947 -14116680.77046  20974413.2034                   20974406.9264
   1901930.26147   1759463.11943  23926020.8204                   23926017.9694
 -21044267.92648 -16380901.25046  20792612.6954                   20792608.2194
 -17291717.62946 -13465438.88744  23434467.5084                   23434465.0784
 -26323570.06348 -20494560.35247  20222408.0164                   20222404.0274
 -21756307.71148 -16939190.07046  21750399.2424                   21750397.7774
